GFSSGP_2pvu_pres_000.txt.gz
Presure
112 183 99 88 88 88 136 84 100 86 84 90 96 124 104 91 89 99 94 155 96 153 151 152 153 152 160 157 152 156 151 116 159 167 108 166 113 155 130 165 163 152 150 151 169 172 173 166 169
126 163 114 141 173 89 92 130 87 91 92 92 107 113 86 110 142 156 99 148 153 152 154 160 154 149 152 157 131 151 98 97 118 134 142 170 155 171 154 139 203 162 164 168 166 181 172 178 150
92 109 106 111 117 94 113 141 88 96 89 86 88 80 145 98 129 146 96 101 150 151 157 152 152 147 161 145 156 149 156 155 154 161 169 164 170 158 144 231 224 139 213 209 207 191 172 188 198
82 111 105 102 110 107 178 116 124 81 75 81 146 89 149 104 144 122 146 97 104 152 160 151 164 164 151 144 150 153 157 156 160 166 161 163 133 116 227 229 96 222 213 209 199 150 189 173 188
106 91 113 108 114 94 121 135 120 89 84 101 113 118 122 154 153 152 148 145 106 153 163 157 172 165 155 151 150 153 138 160 163 163 158 155 217 246 231 137 131 225 206 106 134 197 132 137 189
127 92 103 108 110 88 102 170 163 88 90 128 184 101 97 148 155 143 132 156 164 157 156 159 173 158 145 97 159 147 152 163 163 162 165 125 228 230 227 221 208 159 133 129 187 190 147 106 137
89 90 105 106 110 103 148 94 87 122 122 112 154 98 89 175 96 94 187 186 155 178 161 153 168 117 120 132 149 112 96 151 135 172 172 205 246 126 233 215 123 178 137 140 186 131 147 188 187
103 116 94 96 104 188 139 88 95 103 170 86 133 93 82 108 139 92 100 99 157 152 155 147 159 133 105 89 92 155 186 156 173 171 179 259 239 231 125 216 125 121 203 203 134 186 196 166 185
104 123 130 104 97 110 193 141 110 174 112 183 92 84 87 95 90 107 131 136 147 120 185 162 139 86 87 90 167 164 178 167 177 172 192 235 242 226 219 129 151 128 126 151 139 189 201 209 218
208 206 134 95 85 179 139 192 158 99 81 84 90 74 86 89 84 120 151 177 162 171 125 203 194 94 89 235 125 144 162 174 177 167 243 249 238 230 135 182 133 144 171 206 203 139 113 89 197
109 208 149 112 190 134 106 174 186 91 86 86 71 89 84 75 90 174 188 173 166 186 235 125 254 200 130 96 147 176 170 176 179 112 242 242 226 225 216 219 197 194 195 195 102 106 101 195 207
113 124 163 188 216 114 109 179 187 96 95 88 85 91 90 91 92 192 196 189 207 238 240 241 250 259 245 106 228 178 176 176 147 106 106 161 245 227 225 177 213 200 182 94 212 196 207 205 186
110 111 115 130 210 200 91 174 113 118 107 88 91 130 96 88 95 155 180 173 231 229 197 134 132 234 151 191 172 197 176 166 158 111 230 239 247 178 219 218 141 101 125 185 215 213 198 168 191
148 109 215 93 80 141 80 84 109 184 179 135 181 99 102 93 87 102 229 100 118 186 238 177 144 153 162 170 144 172 181 174 156 210 231 236 249 235 236 155 132 170 216 215 174 183 176 158 161
171 180 89 101 87 208 92 100 94 171 173 93 92 91 95 91 94 172 168 120 224 114 237 235 235 227 214 191 153 169 184 167 156 157 162 168 160 151 234 91 114 104 211 169 165 126 135 160 167
173 186 180 217 88 85 105 90 94 93 155 202 89 87 84 95 92 201 148 106 117 112 187 147 172 199 207 149 180 168 184 162 167 171 166 164 171 155 168 101 91 163 179 103 143 153 154 157 160
188 177 169 204 209 127 174 91 88 109 117 148 95 91 100 87 104 181 109 217 186 99 115 105 83 154 192 197 177 167 164 160 161 173 168 164 162 104 99 103 104 123 125 173 164 165 165 169 169
183 176 203 196 206 209 198 195 87 90 90 179 90 149 193 199 89 126 87 214 199 209 202 84 90 90 194 191 166 168 161 176 143 151 142 136 124 102 101 100 94 157 158 167 166 165 163 163 165
180 184 180 206 209 205 201 196 188 195 76 73 98 129 189 191 92 192 142 141 127 162 216 126 172 178 179 189 163 173 169 168 143 156 145 159 131 102 96 104 163 155 160 179 175 156 142 177 155
179 174 189 193 193 196 201 195 193 132 190 197 190 185 159 197 186 198 160 231 220 209 213 199 168 179 193 191 176 181 171 132 172 159 131 102 120 82 171 176 178 177 176 173 168 163 156 121 131
177 170 198 194 202 197 197 192 187 189 189 193 90 84 118 182 191 162 198 235 219 214 173 164 178 166 168 186 166 179 174 143 115 121 138 167 170 168 169 149 172 153 153 161 154 144 127 166 153
182 167 141 111 194 190 194 190 144 135 169 179 183 191 179 176 179 195 203 201 134 206 205 212 193 151 183 142 131 108 124 132 139 156 160 163 166 171 130 153 168 175 170 134 154 164 133 176 181
183 178 178 189 189 196 105 100 104 184 178 181 191 170 190 175 169 178 177 193 205 210 197 202 109 191 180 185 140 149 149 174 146 159 99 152 126 164 164 164 170 167 120 128 130 190 185 188 174
188 168 172 190 117 194 189 191 177 177 177 174 181 177 134 188 184 187 187 187 185 193 118 210 207 201 193 185 170 125 143 167 127 139 167 170 154 172 158 168 142 122 180 180 155 178 190 192 191
187 119 160 183 186 188 191 187 173 178 172 172 177 177 168 94 141 171 186 185 187 191 194 156 197 204 196 194 196 174 178 179 141 144 152 149 150 161 163 165 126 155 198 201 206 201 199 179 205
180 88 188 160 186 179 186 183 173 82 173 187 192 169 132 167 175 178 173 182 175 185 184 190 190 196 200 201 202 203 194 200 197 145 195 192 204 210 203 133 179 195 194 172 193 121 187 198 198
165 175 101 150 179 171 184 184 192 181 176 172 98 183 161 178 172 165 184 171 182 181 162 167 186 191 192 188 186 192 187 188 193 199 184 134 198 155 141 153 192 199 195 186 148 147 181 173 178
178 178 183 173 174 188 169 179 187 174 168 137 188 185 174 131 172 170 159 185 169 167 170 182 189 189 184 184 183 183 188 187 191 155 183 185 180 192 196 204 197 182 127 174 212 135 113 145 139
176 183 174 182 180 175 179 183 176 172 186 122 144 192 167 164 165 168 164 169 158 165 169 181 187 183 181 181 184 192 183 186 184 172 188 149 190 196 212 209 130 157 137 145 133 131 144 167 190
188 178 181 180 177 181 174 179 181 169 186 176 168 173 194 172 162 191 177 180 160 172 181 162 196 171 161 174 173 174 178 184 177 173 181 182 233 230 114 130 215 134 134 202 151 144 132 141 192

GFSSGP_2pvu_pres_003.txt.gz
Presure
137 98 82 85 78 82 89 90 97 148 83 87 89 86 92 104 148 123 150 95 98 115 129 137 159 150 150 152 155 155 158 161 157 109 152 121 131 125 164 124 147 174 165 157 158 172 150 165 165
173 153 104 96 90 85 90 95 113 83 88 83 88 161 89 93 90 139 158 157 96 112 150 153 153 153 149 155 158 151 152 164 127 119 118 156 158 164 165 170 169 169 130 218 194 206 195 169 171
92 181 111 144 102 90 89 83 93 87 90 90 100 90 85 133 159 135 151 138 97 99 119 153 153 150 157 157 152 144 159 158 152 152 151 153 138 163 164 160 113 144 243 104 139 219 143 212 208
85 101 109 151 124 135 193 96 93 85 93 93 84 83 130 113 123 137 84 165 158 131 115 145 148 148 151 150 148 152 163 162 147 131 150 153 158 162 129 150 162 102 242 104 225 214 215 120 136
93 87 131 171 112 116 176 136 100 86 110 86 92 91 88 110 110 117 157 164 139 141 142 141 149 154 154 171 165 148 149 94 102 110 159 155 169 163 154 159 194 249 237 229 222 213 141 128 200
95 92 179 144 151 120 114 147 120 177 189 84 78 136 132 128 135 148 142 124 146 151 151 159 159 151 167 168 137 108 154 151 156 98 125 155 171 157 165 175 224 230 231 222 159 205 130 151 133
179 93 89 113 113 109 114 106 177 177 130 83 89 143 117 166 89 141 98 78 125 114 190 145 186 168 163 147 118 121 92 94 144 147 151 182 155 173 171 191 245 214 125 214 125 115 123 201 160
130 110 92 82 104 114 110 193 177 120 91 70 170 128 104 83 94 100 156 95 102 101 102 180 195 184 151 146 86 89 93 142 139 162 187 154 167 180 170 253 208 229 132 154 158 124 126 127 137
220 108 150 105 87 93 108 111 124 90 88 172 112 116 124 85 88 90 95 87 173 141 117 144 186 161 148 176 89 89 110 193 144 156 185 161 171 172 166 238 240 232 213 161 129 118 134 144 189
191 95 106 108 97 114 120 149 111 102 138 102 190 113 142 84 91 85 91 85 177 139 102 133 135 155 142 191 231 131 95 94 126 142 193 169 177 129 169 233 233 225 190 179 188 198 193 139 89
172 193 105 112 103 115 99 96 101 127 181 120 70 90 98 86 85 80 87 89 177 136 179 182 189 219 202 245 245 252 138 120 107 199 172 178 138 105 103 152 224 219 221 209 203 118 85 84 179
105 84 139 118 107 111 109 175 97 106 155 102 170 89 86 81 91 144 89 94 163 197 195 194 203 203 226 234 246 233 153 228 223 174 176 175 168 105 121 251 227 176 230 209 212 89 204 203 211
133 126 148 107 105 105 136 157 126 107 132 188 173 87 89 84 91 91 134 90 153 172 118 98 204 233 226 189 133 162 152 161 161 195 147 149 154 231 228 257 252 237 166 160 91 182 162 213 177
181 110 160 196 219 168 206 117 198 136 106 185 80 101 88 78 95 95 102 87 125 109 182 227 104 219 179 228 166 174 165 143 153 153 171 165 165 158 171 239 191 180 130 100 99 94 214 112 94
183 109 111 110 171 107 89 147 193 195 111 187 64 156 108 93 100 185 86 82 92 112 222 95 134 115 171 227 165 176 197 189 155 179 179 169 172 164 153 166 162 162 163 99 88 104 102 92 156
197 197 112 90 107 103 111 106 233 158 223 115 109 199 133 105 87 76 96 89 113 93 114 218 117 123 111 185 89 189 206 194 149 181 162 173 151 178 170 161 166 114 99 99 103 93 155 165 165
203 193 187 169 99 108 97 218 156 203 105 110 97 137 168 104 169 164 91 163 114 183 89 219 182 143 214 94 128 182 198 192 197 172 167 172 168 154 154 152 137 116 119 102 91 163 163 155 160
206 193 192 183 161 177 148 140 89 82 107 89 91 200 92 93 205 162 170 196 198 128 206 227 225 99 185 210 121 197 189 197 165 170 170 168 178 147 137 129 140 114 140 106 164 170 165 161 155
207 196 192 184 188 169 175 106 104 98 89 87 90 89 94 91 184 89 98 101 195 156 102 101 229 217 113 206 198 189 171 178 186 168 176 171 149 130 121 117 132 93 169 172 152 177 141 171 173
208 195 190 190 185 182 179 217 206 206 203 201 216 85 92 86 76 145 93 94 192 208 196 217 198 214 213 184 190 180 174 172 180 174 178 140 129 115 114 125 162 157 170 172 173 178 160 174 130
202 191 188 197 165 174 177 214 208 206 214 211 198 190 192 191 190 185 187 186 179 191 228 220 195 211 209 198 182 181 177 151 157 129 141 150 115 145 164 163 158 160 141 161 168 167 161 150 125
208 188 184 196 175 181 173 201 209 208 204 198 193 193 190 189 183 184 183 188 125 184 189 185 149 205 204 205 198 189 137 188 182 154 122 139 179 181 129 137 123 161 158 165 176 163 153 126 154
196 197 183 181 178 180 175 225 195 200 198 195 194 190 191 183 181 187 187 181 162 144 184 191 218 204 199 196 125 198 200 197 189 182 209 147 134 139 174 144 158 146 145 171 155 158 127 149 161
205 186 187 181 178 150 147 175 202 199 197 188 188 170 131 175 195 184 171 184 184 173 178 178 190 197 190 173 155 210 214 200 195 196 189 185 181 175 180 187 201 154 192 152 202 137 202 200 191
205 172 128 182 177 177 176 116 97 97 155 99 109 171 179 171 178 172 176 175 168 124 179 179 181 182 189 191 192 179 193 194 194 197 198 201 195 193 193 191 171 126 196 192 194 198 193 187 197
203 85 94 178 178 179 179 177 163 188 191 185 178 180 178 168 172 178 177 169 169 176 178 184 183 176 184 169 170 187 190 192 193 192 191 191 194 194 193 120 200 197 188 184 191 188 193 201 201
96 187 180 162 174 170 175 187 193 183 187 187 176 172 176 176 179 175 171 181 164 178 169 180 166 172 175 161 171 181 187 188 187 187 191 190 199 199 187 183 183 135 186 191 183 190 122 228 225
201 154 107 182 176 119 84 175 194 128 166 177 178 176 174 178 167 187 170 179 167 178 164 171 170 183 164 182 172 181 172 174 171 177 182 180 181 182 184 150 181 170 174 242 103 117 227 171 171
193 153 160 181 178 174 185 120 185 163 178 183 175 177 174 175 174 189 176 168 155 172 168 161 179 165 194 186 174 175 170 185 187 181 171 190 180 177 177 197 177 120 238 147 124 139 181 191 138
194 184 187 175 176 173 184 174 183 176 170 175 176 180 173 169 162 178 186 186 161 160 176 184 177 182 166 177 168 179 170 192 188 198 180 142 192 189 177 175 237 206 106 215 182 216 210 143 235

GFSSGP_2pvu_pres_006.txt.gz
Presure
153 117 170 83 82 78 78 96 95 95 98 84 92 90 87 96 91 88 95 155 147 122 90 149 152 147 140 142 150 151 149 152 155 152 155 160 163 160 159 154 155 157 165 166 169 104 167 160 137
80 117 96 109 172 135 84 88 93 96 103 93 89 90 99 104 128 152 95 149 145 140 99 99 160 147 149 150 159 154 152 151 158 160 148 131 154 133 157 157 160 152 162 104 156 143 107 148 102
97 202 190 115 110 93 89 87 90 86 84 88 89 84 92 89 94 161 154 166 105 165 139 101 106 161 154 159 158 150 149 159 153 142 153 161 160 147 153 154 158 157 165 131 115 114 167 188 234
88 84 144 95 100 94 93 94 88 84 91 87 92 107 95 90 93 116 127 99 158 150 138 135 161 153 145 94 154 145 148 156 150 106 97 95 124 149 154 158 158 166 177 152 171 173 248 238 229
139 88 84 173 178 107 145 106 95 86 86 86 91 93 87 91 92 131 87 162 112 128 133 141 163 158 131 138 144 149 100 134 94 161 162 160 156 157 167 157 153 180 157 138 170 183 141 230 226
196 94 91 92 181 75 182 169 143 127 82 94 94 85 112 97 93 114 137 131 118 117 148 164 164 179 118 147 160 163 163 159 146 94 96 167 147 168 152 149 179 155 166 165 176 201 128 231 122
123 119 90 95 92 91 84 175 137 130 165 94 84 134 115 94 90 108 92 106 170 88 137 98 144 177 170 151 156 157 143 126 91 95 134 125 151 142 158 168 170 161 178 166 260 250 238 129 206
121 114 155 97 97 92 142 91 112 118 123 92 184 151 89 84 173 168 147 96 92 132 98 142 135 143 185 145 197 149 194 89 94 113 123 122 128 149 167 198 149 170 167 186 249 237 237 213 204
73 189 187 111 98 125 125 104 120 128 117 121 190 178 141 129 130 130 89 96 97 85 169 149 151 175 126 181 147 170 153 171 126 99 94 96 124 208 142 192 168 106 125 223 243 237 225 165 169
186 82 166 210 180 100 93 103 87 109 115 168 195 78 85 175 118 98 85 88 104 91 92 92 170 121 153 179 134 167 172 188 214 252 251 116 124 223 198 172 104 103 110 131 231 232 219 222 205
179 159 77 181 198 111 108 99 172 101 94 117 106 100 97 110 170 90 83 86 82 86 96 82 183 173 192 180 201 193 210 183 240 244 244 138 232 220 173 170 176 116 128 235 235 181 229 210 196
205 168 182 180 182 187 112 108 103 100 91 85 85 199 97 118 180 84 82 91 92 86 91 180 119 95 112 198 190 208 205 234 222 252 217 212 229 175 182 165 129 217 245 239 228 240 193 207 128
77 168 162 74 169 101 138 105 111 104 106 148 96 105 161 191 83 106 90 90 84 92 143 90 92 155 97 137 162 227 227 216 229 140 143 149 189 157 155 170 161 168 165 232 184 220 145 122 99
202 130 206 184 80 100 96 137 109 104 109 105 91 91 109 177 109 85 78 94 101 95 102 85 93 98 98 140 187 102 239 192 88 143 143 169 164 171 153 175 163 170 164 161 168 163 215 102 93
236 109 164 206 187 181 131 172 108 103 104 109 196 102 100 171 171 90 97 168 93 137 112 186 88 180 98 101 97 104 243 212 87 215 199 196 195 151 167 177 169 159 174 168 172 171 105 98 99
216 245 208 189 98 193 178 126 116 216 125 182 123 176 114 103 179 180 185 107 77 90 178 86 104 157 110 110 185 126 102 124 128 164 200 201 199 197 159 168 177 170 153 139 131 139 143 136 143
272 211 247 165 95 119 175 179 123 82 123 227 227 110 196 152 185 113 179 147 180 155 122 136 94 116 207 206 210 229 131 213 207 110 126 198 187 201 178 164 167 177 151 124 128 154 118 153 102
267 288 225 224 200 98 104 129 185 137 96 193 215 117 117 223 113 102 91 91 216 96 114 214 126 171 90 234 140 129 219 196 203 202 123 131 187 191 178 167 169 142 121 133 170 175 97 138 135
283 299 222 245 208 201 107 108 185 176 147 118 106 125 217 212 89 93 92 81 90 97 209 78 97 141 96 236 96 214 209 201 198 197 188 184 178 184 143 181 175 111 167 166 180 164 158 155 121
292 298 316 236 228 203 192 145 110 109 98 108 184 214 174 90 92 96 93 80 96 85 84 102 195 103 196 193 216 187 205 203 199 193 147 169 180 165 122 156 125 127 128 168 174 130 97 156 154
304 315 336 215 245 146 194 190 190 168 87 150 104 197 107 102 121 155 148 193 198 190 164 187 183 175 200 200 207 207 204 206 200 196 201 183 178 148 180 172 127 148 132 135 138 161 177 141 174
315 323 327 212 247 217 199 186 186 175 180 187 218 198 192 200 208 196 189 182 190 190 186 186 185 175 189 192 211 201 189 203 204 205 202 120 185 201 196 193 193 190 192 192 191 186 158 202 192
341 91 287 215 237 215 201 185 171 186 174 189 215 210 201 210 191 192 190 196 187 182 181 178 173 140 182 181 188 196 205 192 195 205 193 147 212 212 202 200 200 196 200 201 203 199 198 196 190
374 286 266 212 241 215 195 179 191 176 189 195 212 205 209 192 195 186 192 191 189 183 181 175 174 174 175 183 177 186 180 191 192 187 172 189 190 190 192 194 195 195 194 191 194 194 191 172 202
401 274 275 237 239 198 183 192 177 153 172 201 208 203 196 190 188 190 189 182 183 185 174 179 172 169 176 178 177 132 176 175 163 166 169 178 188 190 190 195 184 186 188 182 186 182 188 187 181
275 267 229 226 185 234 190 181 189 168 190 203 199 195 195 188 189 186 180 185 171 174 172 96 168 95 173 178 176 165 163 182 165 187 172 181 174 169 183 179 188 172 174 180 180 178 172 137 163
283 239 208 212 207 191 176 190 167 171 170 189 144 192 182 104 180 185 181 179 166 179 171 173 170 180 173 176 170 166 179 164 188 174 182 162 173 178 182 174 183 189 184 191 192 187 207 244 241
256 216 195 167 212 185 190 182 163 166 189 197 195 184 187 186 180 177 177 177 178 175 171 182 168 179 168 177 166 176 164 173 180 176 165 177 175 181 192 187 189 197 184 157 206 180 242 240 221
232 213 220 196 208 189 191 173 138 178 189 200 197 175 185 183 184 178 176 177 171 180 167 182 184 171 174 179 174 183 174 189 187 192 182 187 179 191 204 195 193 191 138 146 205 241 240 221 219
79 250 229 204 96 188 191 164 162 178 180 183 184 186 183 185 169 172 171 180 181 161 176 179 171 178 198 186 179 177 167 164 177 177 172 198 181 183 184 192 194 144 210 242 247 234 219 221 228

GFSSGP_2pvu_pres_009.txt.gz
Presure
140 146 136 155 160 79 79 79 130 99 163 142 88 98 95 99 97 89 92 87 78 109 92 96 117 158 170 153 156 150 143 155 142 152 151 157 152 160 141 139 135 120 164 162 143 160 103 136 106
156 111 161 147 168 82 81 83 83 97 125 148 95 88 96 89 107 95 119 101 143 152 152 120 100 102 145 166 162 158 157 145 153 157 122 161 159 158 144 144 161 168 152 150 156 164 157 163 152
83 156 145 165 136 165 85 86 87 158 82 95 96 90 91 100 93 93 125 118 140 142 137 144 144 140 107 145 154 160 166 154 153 152 141 140 105 96 150 165 170 163 150 158 164 154 168 165 153
206 83 172 215 170 197 106 120 92 86 89 82 89 88 99 92 90 96 89 133 98 157 168 177 169 152 133 155 135 116 135 152 155 160 94 106 157 153 160 166 169 158 152 161 150 153 195 154 155
107 90 89 190 209 181 194 95 115 89 91 87 89 130 97 98 90 88 98 130 96 160 128 130 145 133 135 157 117 161 165 140 156 160 161 158 95 93 168 160 166 152 145 145 150 197 163 158 168
189 198 167 89 155 95 204 92 98 90 90 88 87 89 95 112 86 89 97 87 169 170 92 131 122 177 177 160 185 171 127 180 150 95 104 94 97 125 124 131 145 147 144 175 155 176 159 173 169
188 111 197 210 88 102 183 103 105 90 96 89 94 93 95 93 89 92 95 96 104 113 105 100 112 148 127 154 163 139 147 143 152 190 151 90 110 118 155 138 135 172 145 217 200 189 168 174 156
189 190 147 195 200 91 85 149 82 116 184 122 99 91 91 93 88 89 87 118 122 129 88 96 187 132 118 146 183 142 143 137 146 181 151 96 94 171 96 150 175 253 242 109 224 106 112 165 175
161 187 188 162 201 99 95 93 90 91 125 136 178 148 174 170 113 87 91 136 128 95 99 87 97 85 102 165 183 143 145 171 177 210 148 159 156 198 238 119 138 220 239 148 112 103 112 139 240
204 129 195 85 144 190 101 95 97 92 106 167 103 122 117 112 133 78 143 134 133 85 84 86 90 117 160 147 161 132 179 170 191 136 204 205 193 237 248 251 211 195 233 165 167 139 151 238 248
257 206 200 191 100 139 155 103 98 99 101 178 121 111 113 134 166 88 126 180 120 89 93 88 88 87 93 90 148 134 181 206 207 201 202 193 239 219 146 229 226 226 169 175 169 153 163 230 230
238 204 204 208 192 186 154 106 102 187 84 182 110 111 114 162 96 87 99 182 173 87 91 92 85 171 91 92 97 139 191 204 102 191 193 191 159 240 162 144 158 140 182 176 171 163 170 204 230
248 233 243 188 186 174 95 192 183 109 223 87 114 92 103 86 81 83 104 186 174 92 93 92 92 105 87 90 90 93 197 91 113 223 143 199 88 162 174 144 146 165 157 161 158 171 167 169 164
226 242 230 118 204 193 185 114 124 145 112 105 103 91 93 80 104 103 182 183 109 79 93 87 109 101 190 104 99 90 192 102 83 83 248 114 189 224 218 195 170 177 185 152 168 176 167 167 158
264 266 222 222 249 128 179 190 185 123 175 105 115 86 111 112 91 94 107 116 170 111 86 84 102 90 85 172 96 101 171 99 113 181 113 101 104 124 118 127 174 189 192 179 163 176 163 167 169
242 262 267 203 224 252 222 184 179 82 81 141 109 112 109 112 111 182 79 102 174 136 176 177 103 183 148 184 128 101 105 103 155 179 229 223 213 157 183 122 165 196 191 181 170 165 160 172 122
250 248 256 259 211 96 92 163 183 139 156 93 91 124 91 103 110 114 131 149 148 192 189 145 110 125 184 102 130 112 214 198 126 230 228 214 183 204 200 198 178 130 194 192 147 160 165 142 164
247 251 249 253 259 219 231 217 90 196 178 107 108 86 152 124 102 108 119 229 200 179 183 104 102 100 102 102 122 84 78 96 179 219 216 208 202 202 199 196 191 186 178 190 189 153 121 110 111
247 252 256 254 262 267 235 129 74 90 185 180 189 188 193 96 107 175 119 125 144 79 173 82 82 96 91 83 167 183 105 219 143 210 197 200 199 196 194 193 158 136 137 173 127 176 109 140 146
245 249 253 253 263 275 181 239 210 122 94 176 184 171 189 187 216 147 203 144 97 129 93 82 96 95 102 202 105 195 225 215 208 207 204 206 206 202 196 195 202 191 186 166 170 180 198 186 187
237 245 240 253 256 267 296 227 242 202 126 179 181 176 187 190 209 159 116 208 208 188 97 103 202 192 191 192 189 184 189 194 211 212 200 203 203 202 200 198 198 198 126 212 208 204 203 202 205
236 242 244 250 262 269 289 223 242 207 196 182 104 135 179 177 120 111 109 204 126 108 108 175 196 179 193 183 184 178 189 180 191 183 190 196 193 193 194 131 186 188 190 191 193 193 193 192 192
273 276 285 307 285 277 304 299 81 229 206 190 179 166 110 110 198 109 106 104 110 116 192 197 173 193 180 182 184 181 173 178 181 188 180 181 183 183 173 171 172 183 187 185 180 179 171 187 178
195 346 344 330 305 306 286 319 219 245 191 180 183 169 170 178 194 210 200 205 198 195 190 176 191 179 184 172 180 173 175 181 180 176 165 166 183 177 161 186 177 182 169 188 172 179 175 188 136
379 212 339 319 312 336 312 303 181 241 196 180 173 167 181 184 211 206 198 206 195 192 187 194 183 189 181 178 141 180 179 171 178 172 176 166 178 171 180 177 186 173 180 176 175 179 188 160 190
364 341 327 309 100 81 177 154 199 233 211 179 187 174 177 188 209 202 207 198 197 192 194 186 187 182 174 138 179 171 178 181 168 180 169 171 179 189 173 182 173 181 190 169 179 189 191 189 180
362 364 341 293 255 261 253 235 212 113 206 183 167 169 182 194 204 202 199 194 196 191 186 184 183 172 182 171 178 182 179 160 178 170 180 179 184 165 179 186 172 174 176 189 184 203 203 184 209
433 358 263 259 250 249 254 217 233 226 195 177 173 171 174 205 210 201 193 197 192 188 181 180 181 179 173 180 188 173 188 165 173 178 172 182 177 191 193 171 176 194 190 188 193 205 218 207 194
347 264 253 246 255 251 264 196 240 198 194 180 173 170 170 204 203 199 197 185 190 165 178 179 181 179 170 185 169 184 179 169 173 166 183 170 201 173 177 187 177 176 193 206 202 214 197 156 259
254 250 238 244 240 259 259 210 227 193 179 174 174 167 191 194 198 172 192 184 187 141 177 170 182 181 195 171 180 159 158 179 169 173 170 182 197 178 174 172 180 192 205 223 207 140 217 256 214

GFSSGP_2pvu_pres_012.txt.gz
Presure
175 177 113 133 158 158 113 79 90 95 123 132 95 96 96 98 97 96 108 94 111 141 116 90 94 146 115 147 136 157 169 152 148 157 149 148 159 155 157 156 162 165 158 155 143 151 166 154 149
102 153 169 104 165 154 168 95 78 102 151 127 93 90 97 96 131 130 91 107 84 141 137 97 153 99 125 151 147 162 140 170 156 146 151 157 136 153 160 157 148 146 144 151 162 167 170 149 157
202 131 221 240 205 164 166 85 84 84 106 94 162 86 91 100 95 85 93 137 126 147 141 137 143 151 104 150 119 149 145 111 166 158 163 158 132 96 136 144 148 152 145 155 166 166 154 155 161
78 105 151 226 209 172 165 102 89 81 127 149 80 138 86 86 91 95 94 96 127 136 120 146 117 131 143 129 169 130 141 159 140 151 150 94 95 97 145 148 188 151 158 168 164 204 202 155 143
209 108 193 149 93 231 207 215 96 90 90 87 89 88 94 92 93 96 94 90 94 90 123 140 150 168 145 153 145 155 130 173 172 151 131 83 122 150 95 94 148 151 128 186 181 146 149 147 155
194 206 166 87 146 208 238 203 200 105 88 89 94 89 89 90 95 95 90 95 94 114 135 123 125 95 109 160 157 163 173 170 151 173 132 163 162 92 87 96 117 125 124 141 168 136 151 148 201
204 197 200 182 195 136 156 159 123 189 124 87 89 95 128 116 100 90 89 97 87 92 93 129 89 109 102 118 123 142 127 169 160 133 124 178 181 166 95 94 98 99 120 104 211 152 195 145 229
238 193 199 185 91 89 209 123 81 129 133 95 89 159 88 91 97 89 91 82 89 76 132 101 87 113 80 122 114 154 120 140 163 141 144 136 173 134 191 193 148 162 161 136 178 241 242 179 111
192 168 198 189 169 86 170 205 135 102 151 91 104 83 90 90 88 90 89 82 99 90 111 120 85 93 79 90 110 119 118 143 165 158 158 149 174 192 208 193 179 191 208 265 254 243 153 233 222
215 197 120 193 185 199 195 159 108 225 153 229 102 98 197 175 86 94 80 113 108 112 117 82 82 86 79 92 87 93 125 176 138 117 169 188 195 198 171 199 220 193 221 249 240 235 152 225 179
234 107 177 167 115 185 168 190 98 92 98 103 126 163 117 194 125 191 199 175 166 98 171 86 100 88 91 91 116 90 91 91 177 88 90 184 206 114 83 206 225 279 215 239 144 220 150 142 173
244 247 247 197 260 200 215 187 190 110 98 89 97 98 105 185 115 195 96 114 77 92 184 84 90 85 92 85 91 89 90 88 91 178 100 95 190 106 104 213 217 239 239 142 184 140 143 162 182
213 228 233 235 232 204 234 147 110 191 115 132 87 101 124 82 195 96 113 123 115 89 105 119 144 88 87 90 91 125 90 97 90 102 129 122 91 152 169 163 105 176 123 179 166 209 159 171 179
241 239 257 234 232 231 152 232 165 109 188 111 91 97 94 168 156 120 117 95 84 161 128 153 131 92 89 89 91 83 84 119 93 97 95 191 116 133 223 154 160 189 118 121 120 127 177 177 183
239 237 279 245 277 274 226 258 226 86 85 198 191 199 89 100 175 81 113 96 104 102 109 188 188 116 104 90 105 110 190 94 178 123 109 96 90 181 196 235 229 215 212 160 167 158 128 183 194
221 282 269 271 259 273 249 222 246 203 155 101 197 183 199 180 200 95 95 90 95 96 99 103 106 180 181 172 177 129 96 96 112 164 101 163 101 98 216 228 215 211 200 170 202 201 199 189 188
243 274 264 255 259 254 271 227 222 250 212 211 81 114 177 185 186 112 113 115 113 113 111 108 105 142 185 173 165 102 101 90 101 124 89 153 89 218 226 198 215 206 203 186 200 197 162 184 184
253 269 260 254 251 252 262 262 226 234 232 159 179 127 74 109 174 104 109 87 85 76 115 125 121 178 110 183 120 95 89 105 113 166 173 141 167 222 216 208 211 199 197 198 194 194 184 185 184
235 265 253 246 249 252 260 261 275 212 170 261 210 194 187 107 97 119 113 216 110 106 107 119 120 106 109 88 83 78 97 101 147 205 200 230 224 213 208 205 205 210 207 203 203 204 202 200 204
232 252 239 239 239 231 241 161 87 235 215 254 95 136 187 178 180 110 91 96 96 91 104 114 123 111 120 85 103 92 102 210 200 193 195 200 197 211 215 200 197 195 196 196 196 195 193 192 191
235 255 237 237 239 249 204 254 166 259 117 226 245 210 186 181 175 182 115 188 199 145 178 233 166 117 119 119 163 154 150 148 186 196 190 189 191 182 185 185 184 186 187 186 184 181 179 184 188
210 252 236 233 239 244 250 252 261 258 273 215 255 229 187 191 172 158 145 188 189 202 212 180 195 210 213 181 105 107 191 182 130 191 185 180 180 183 184 182 151 181 176 175 169 182 182 189 178
250 248 234 227 239 241 247 254 257 265 274 288 235 237 204 192 175 176 172 182 189 211 206 205 105 102 102 202 104 201 176 192 192 184 180 177 179 181 180 177 170 163 182 170 173 181 178 177 181
259 228 231 230 234 238 233 248 244 262 261 290 219 250 209 196 171 170 172 180 183 206 206 111 114 125 199 193 194 180 194 186 185 183 177 178 132 178 176 180 168 172 176 183 175 183 172 181 174
239 234 238 246 249 275 254 276 146 149 262 293 166 173 215 194 174 170 131 110 146 206 137 194 202 196 193 199 179 195 187 192 181 179 179 163 177 175 180 171 181 183 182 179 178 187 185 173 188
352 349 200 351 288 284 274 308 265 264 190 303 212 241 228 191 173 174 175 171 179 200 208 198 200 190 196 190 196 185 193 182 179 179 178 169 179 188 172 185 167 181 176 183 159 173 179 181 191
338 311 338 343 347 344 347 358 138 153 80 328 214 240 152 179 178 172 175 174 173 217 211 199 195 196 186 194 190 190 185 185 182 175 188 178 172 179 163 170 168 176 180 174 179 174 176 192 171
334 343 340 341 346 354 374 284 285 296 209 275 198 235 221 180 182 182 170 181 184 209 204 209 197 196 195 190 184 184 175 179 177 186 168 180 171 174 177 178 181 176 180 180 203 207 190 210 250
389 268 361 412 413 311 281 276 262 259 200 233 200 187 218 179 182 174 175 186 198 206 203 209 198 200 181 184 176 179 183 185 182 172 175 182 170 161 177 188 199 198 199 184 196 234 256 247 238
392 406 380 281 261 262 260 250 260 255 247 224 206 227 216 178 187 169 179 187 201 206 208 194 202 189 167 175 182 177 188 183 182 177 176 177 177 181 190 182 173 189 200 200 264 264 230 176 220

GFSSGP_2pvu_pres_015.txt.gz
Presure
136 106 153 132 159 81 148 129 114 112 135 95 130 90 94 129 137 97 95 89 126 121 130 142 96 148 160 170 140 130 142 143 148 151 146 152 148 147 151 155 157 152 148 156 152 157 152 145 149
172 151 147 120 135 127 147 154 112 151 133 163 89 91 116 98 87 88 141 118 135 97 106 133 95 129 103 160 169 125 122 150 142 152 158 154 166 166 152 152 153 161 142 143 152 145 143 150 154
224 84 177 167 167 154 143 86 104 146 104 106 99 152 99 99 89 93 96 90 86 130 145 142 144 129 129 143 148 114 155 160 126 132 143 141 118 166 174 117 101 116 125 147 147 183 192 160 159
219 159 87 219 187 179 101 140 130 194 143 101 95 120 92 97 104 89 82 96 95 98 106 135 132 146 132 135 140 137 137 113 151 124 167 177 83 82 86 92 157 138 93 121 200 173 167 150 168
210 201 101 121 203 211 226 150 149 82 84 92 88 143 128 87 101 86 90 88 90 93 88 142 135 117 127 117 134 133 161 151 163 172 149 143 173 179 138 182 135 88 95 161 144 126 119 126 141
204 199 191 189 182 203 202 215 215 234 88 98 127 131 122 98 88 90 95 110 87 88 93 119 129 108 92 134 139 146 120 163 143 180 177 166 156 143 184 128 170 127 97 98 113 103 110 105 147
189 191 198 209 104 195 188 192 199 221 241 87 88 90 160 86 89 93 94 91 92 94 148 116 171 91 93 99 97 101 133 161 119 158 130 163 164 181 146 136 183 112 153 192 209 211 153 146 178
228 199 194 197 206 188 88 192 84 218 222 96 95 89 94 188 92 86 92 85 99 85 86 95 154 100 98 93 97 120 134 97 125 166 125 133 157 148 176 146 136 186 189 208 128 162 239 236 228
223 181 174 222 194 190 94 100 199 158 219 220 97 211 140 101 126 109 105 119 88 87 87 84 91 127 91 88 88 89 89 93 153 94 175 125 97 164 170 179 152 125 191 190 201 200 225 268 209
146 208 196 207 222 216 177 88 197 134 86 141 97 205 203 92 97 100 92 89 93 90 81 92 129 107 81 84 86 90 83 95 86 91 96 93 111 132 159 100 140 134 148 117 193 227 236 244 238
198 114 205 209 202 103 211 231 99 193 172 101 206 200 213 78 91 85 95 105 131 92 88 166 153 158 166 84 84 89 103 87 86 92 89 96 135 85 94 104 139 199 109 182 110 134 145 221 165
210 202 102 200 206 204 202 197 221 99 140 191 193 89 205 199 111 95 102 198 198 197 193 192 95 134 141 86 87 85 89 91 88 90 95 92 83 96 97 185 197 94 194 183 226 121 234 116 118
203 199 195 150 97 236 133 216 216 208 96 94 191 192 192 213 139 115 116 203 71 205 148 144 100 100 131 129 176 87 86 101 86 87 90 89 133 102 201 123 126 94 157 215 210 238 194 214 219
215 197 172 212 107 102 156 215 265 199 166 221 96 93 91 134 202 122 113 87 217 151 149 78 108 96 138 132 143 86 90 86 98 101 136 88 92 159 191 168 90 202 183 213 227 161 216 217 199
226 194 185 204 213 227 209 106 102 118 186 92 238 196 91 93 94 89 83 103 232 80 107 122 108 103 121 174 178 175 170 92 153 115 113 109 85 101 88 182 146 91 207 214 231 219 215 205 204
234 214 187 199 214 216 205 256 279 280 178 241 253 189 195 192 101 93 187 98 105 175 122 122 122 96 108 108 105 163 183 167 179 185 105 86 100 141 89 150 185 212 193 226 216 218 207 199 204
222 209 217 211 207 211 236 283 185 278 292 237 183 235 156 184 183 158 88 92 96 94 117 96 83 87 97 102 98 103 110 108 117 122 83 99 102 92 193 186 220 207 222 216 212 206 206 208 206
221 125 241 218 218 203 223 236 271 271 280 279 236 244 241 105 136 178 110 191 175 152 99 99 88 104 118 112 117 187 147 185 111 92 97 99 100 161 84 207 197 218 220 206 204 205 202 200 200
206 228 238 231 219 203 221 273 175 269 171 271 262 231 247 250 190 160 102 109 174 151 77 112 110 110 107 107 100 119 82 123 87 147 104 108 110 170 211 200 187 191 192 192 187 189 182 190 192
228 219 223 234 226 196 157 159 265 259 266 268 265 247 226 249 211 195 170 90 96 160 190 117 114 112 109 105 107 145 86 138 167 196 205 101 179 142 193 179 192 191 182 187 175 177 181 178 183
226 234 230 234 202 224 223 242 266 261 261 103 182 263 227 222 174 147 176 180 149 166 139 107 120 105 147 206 111 194 122 219 112 103 100 208 134 196 197 183 190 181 184 178 183 183 180 182 182
213 250 219 232 226 220 228 239 257 249 251 220 210 249 257 212 241 114 205 179 185 186 190 180 175 179 154 203 114 147 201 102 102 99 112 105 149 180 188 191 179 178 174 177 175 183 171 168 164
261 250 248 242 223 224 234 253 252 251 239 215 111 197 161 232 213 148 101 196 184 173 172 183 176 114 191 111 212 149 209 113 110 104 195 190 188 192 191 183 182 173 182 185 179 174 173 186 180
251 253 237 230 226 239 233 249 270 240 243 247 251 257 223 264 213 244 232 209 182 179 169 181 188 155 135 216 206 210 203 203 114 200 189 183 193 189 186 182 178 181 171 183 187 175 179 179 173
257 246 235 234 234 144 239 243 290 225 236 106 237 247 258 251 224 219 238 210 184 183 171 172 183 179 205 202 210 205 207 199 196 186 183 179 190 190 182 180 182 184 171 180 178 174 172 167 176
245 239 243 246 250 257 217 117 181 215 221 223 208 240 254 269 277 207 243 212 190 186 174 173 173 180 199 201 206 201 200 195 186 195 188 189 186 189 177 188 176 168 180 180 175 178 178 185 192
246 254 252 238 263 259 74 243 204 206 223 223 227 235 248 268 279 195 244 214 189 185 179 171 167 173 160 206 208 200 202 192 187 189 194 193 192 178 174 173 178 182 175 180 173 171 183 183 188
377 104 359 370 372 369 360 216 94 224 197 233 149 105 250 270 271 211 170 212 191 184 172 167 166 145 181 209 209 204 195 190 186 192 188 184 189 180 186 187 185 182 176 174 176 181 188 191 206
351 369 369 355 361 368 380 410 292 132 242 250 252 246 158 276 249 215 241 172 159 186 178 167 177 173 194 212 203 203 194 192 188 183 188 187 179 187 186 185 176 171 174 182 188 189 193 203 219
358 350 365 385 363 354 353 359 343 337 268 264 261 254 259 285 235 226 237 205 190 186 181 169 176 181 198 211 206 200 188 195 191 173 180 190 189 182 180 171 174 179 180 188 186 194 203 171 263

GFSSGP_2pvu_pres_018.txt.gz
Presure
136 150 139 144 150 158 145 109 123 145 149 130 148 104 133 155 123 144 115 110 93 139 124 94 110 118 140 147 135 146 158 136 145 125 124 144 148 153 142 149 154 146 109 138 146 151 152 144 155
160 92 94 141 160 171 130 84 102 148 160 143 147 102 109 149 90 114 94 150 90 106 143 142 133 129 100 123 120 129 141 144 150 168 125 147 144 141 147 144 170 138 122 179 91 155 171 156 151
160 123 143 173 125 181 131 106 73 130 126 157 111 117 141 122 149 91 93 92 149 107 134 146 122 133 111 130 133 131 136 141 133 139 138 137 131 156 81 82 87 89 87 153 160 121 152 157 154
159 160 158 153 196 159 149 167 91 135 176 124 156 142 154 164 149 132 84 94 88 94 141 90 142 141 140 138 131 125 138 98 114 140 107 110 142 123 147 168 135 154 183 175 122 94 96 145 170
228 164 169 105 161 182 208 141 183 99 122 108 86 122 105 95 100 90 87 85 92 92 102 93 109 117 143 137 95 133 151 147 134 122 146 134 140 158 181 184 128 175 168 136 157 123 102 105 134
225 219 169 225 158 84 220 222 221 206 81 121 168 96 114 84 96 97 96 90 87 93 89 94 103 111 141 92 89 139 125 133 148 113 112 138 142 127 149 181 163 153 135 155 134 156 135 190 190
213 204 194 171 202 87 94 213 208 214 209 206 91 202 95 197 90 105 89 93 91 84 84 88 90 135 119 91 90 96 97 129 99 108 154 164 134 130 153 126 134 140 161 166 156 146 141 189 202
198 194 190 196 196 199 143 207 209 191 193 88 90 171 93 213 107 161 204 93 97 90 93 86 89 94 109 92 79 95 94 137 89 120 96 101 129 138 153 107 94 98 181 170 162 186 195 168 204
174 189 190 192 196 203 91 112 191 183 200 189 95 166 212 95 96 84 94 91 104 85 88 88 94 93 109 110 121 83 87 89 101 99 83 93 93 87 90 110 169 121 112 92 172 155 136 191 192
181 190 186 188 222 199 191 196 88 202 85 197 187 200 86 96 97 96 124 97 92 90 91 91 80 88 118 151 87 82 88 130 84 86 84 93 89 135 96 90 92 87 172 124 128 178 201 174 205
178 168 197 202 186 224 187 223 187 86 133 203 195 193 195 185 97 175 99 100 110 212 94 90 93 84 98 158 85 84 84 88 91 82 90 89 159 83 87 81 140 132 94 90 86 104 110 189 145
178 210 95 210 210 218 223 221 190 195 168 93 94 86 99 196 106 97 223 97 85 94 95 103 80 95 85 125 186 186 93 166 88 90 106 89 105 89 110 105 183 188 185 189 88 171 183 198 217
204 212 215 168 205 215 221 215 216 208 202 194 235 216 129 83 162 112 102 165 93 105 89 130 203 200 129 211 189 102 186 100 109 83 99 83 84 94 82 102 80 90 181 183 108 182 192 183 219
199 199 228 213 217 209 219 213 159 204 212 218 94 90 233 196 193 106 134 105 188 109 103 94 165 193 120 206 108 83 105 119 163 105 87 146 85 180 182 92 147 86 87 175 131 185 199 211 227
199 228 225 219 210 221 220 211 212 201 213 210 225 228 94 105 198 188 191 181 128 205 75 120 114 229 109 206 191 108 115 122 125 152 82 179 180 174 99 86 96 92 93 132 187 183 89 212 225
198 211 218 224 212 235 229 206 205 122 204 211 229 214 238 259 127 160 94 82 103 189 97 100 106 116 221 124 123 92 112 113 108 105 106 107 108 111 83 83 122 96 110 115 182 206 202 226 208
215 222 230 231 222 217 236 112 204 144 96 211 215 245 252 243 259 210 204 93 97 88 88 96 94 106 111 124 118 82 103 96 104 112 192 186 160 183 99 95 104 111 111 197 181 204 203 203 206
215 212 224 232 213 238 220 220 230 193 205 187 183 103 147 142 237 255 126 202 192 96 144 93 99 97 96 82 90 89 113 118 110 93 112 116 106 108 185 188 150 102 110 194 185 196 180 192 184
220 223 236 231 233 227 230 226 216 230 227 211 202 280 278 135 287 231 252 113 122 191 168 180 189 113 103 79 76 149 119 109 104 106 107 109 115 143 190 106 188 127 202 173 194 191 181 193 189
225 233 228 238 238 230 230 210 236 237 226 224 204 204 272 269 274 290 227 250 223 95 168 188 166 98 76 205 176 153 112 110 100 165 191 116 153 191 96 104 109 167 201 202 187 188 185 180 186
230 223 230 232 230 245 240 233 222 231 232 227 220 221 268 266 265 231 236 235 252 208 181 199 142 150 190 142 114 187 108 101 111 115 109 148 145 98 218 145 108 111 199 192 189 176 193 176 184
229 228 232 236 239 236 240 248 234 218 229 221 201 226 210 254 260 265 264 228 209 252 201 107 195 83 166 173 165 144 191 112 108 106 109 123 205 215 206 184 120 197 190 183 193 183 189 185 182
246 241 242 245 253 247 248 247 255 226 226 215 205 243 219 166 245 252 265 258 225 94 182 203 203 191 188 187 175 186 186 180 189 115 119 203 211 207 210 202 197 191 182 178 187 188 184 181 184
229 238 254 265 266 282 265 272 275 268 224 207 215 245 224 252 242 123 247 263 108 135 143 97 123 195 181 187 107 177 179 181 185 222 211 211 204 203 199 193 185 186 178 191 185 192 184 181 183
249 276 294 295 297 95 283 286 280 254 215 216 222 235 238 233 238 240 244 256 246 217 149 230 175 197 178 183 175 170 186 187 206 214 211 204 206 197 193 185 192 178 186 186 194 187 191 174 184
311 298 292 287 290 294 167 149 107 267 219 217 231 234 241 232 234 238 238 254 268 218 224 241 215 200 181 182 174 171 187 178 199 196 207 202 202 197 190 188 190 193 197 195 191 178 185 190 190
263 262 245 261 276 281 294 275 137 251 206 216 219 231 244 217 235 86 250 114 260 223 208 239 225 205 196 185 174 169 170 172 173 197 208 197 201 191 190 185 194 192 184 188 181 191 189 186 179
188 298 260 268 265 269 124 81 166 207 224 172 218 121 253 234 235 240 243 248 258 148 213 237 226 208 190 183 173 171 185 136 172 195 209 198 202 193 190 193 192 190 183 186 192 185 177 172 184
329 338 303 360 355 388 397 375 284 166 195 222 205 195 234 175 98 204 235 247 259 258 173 135 224 206 192 185 172 177 170 173 176 194 210 199 201 193 195 195 185 187 193 187 185 178 183 186 186
320 318 325 338 106 105 382 440 383 388 313 220 211 213 238 223 224 174 229 242 134 258 215 232 223 207 194 185 174 175 163 176 178 203 209 206 206 198 198 187 190 188 173 182 175 187 184 190 199

GFSSGP_2pvu_pres_021.txt.gz
Presure
152 152 133 116 174 94 115 149 173 102 153 129 153 156 126 154 139 153 157 149 129 148 139 99 90 147 116 125 138 124 129 147 141 115 132 162 161 118 148 141 157 151 90 94 100 154 89 160 134
154 149 158 154 147 158 167 156 166 127 162 142 141 150 125 125 114 133 147 162 93 152 134 100 110 110 106 95 126 110 137 134 139 148 143 138 127 158 167 82 83 125 159 87 105 116 148 90 90
138 130 162 150 95 154 168 138 171 80 110 163 129 166 156 129 133 115 114 116 89 96 92 142 147 142 134 131 133 137 140 135 124 125 117 143 125 127 151 132 139 144 165 143 152 135 151 184 181
141 168 163 160 148 149 181 131 174 114 132 96 170 129 166 145 126 152 121 137 89 112 134 128 154 130 123 156 136 129 131 98 113 142 151 144 145 140 129 126 141 151 139 149 172 190 182 159 146
167 164 161 163 143 87 130 168 103 143 115 106 103 164 163 180 122 145 152 105 148 90 96 98 141 161 134 146 130 128 126 147 142 137 139 152 103 110 153 151 159 140 163 192 134 177 167 162 140
154 167 163 104 171 163 86 178 155 188 143 83 102 167 93 145 122 170 170 110 114 91 94 89 93 145 129 109 127 92 125 150 145 130 123 142 150 134 132 138 127 138 175 128 148 146 139 120 171
188 165 167 145 161 168 163 109 178 171 172 158 119 171 208 227 101 152 115 89 90 90 93 88 94 85 116 137 116 127 130 96 97 96 94 109 115 154 175 125 155 93 94 100 83 117 142 167 101
188 219 193 211 188 192 228 122 91 234 231 226 98 91 232 233 92 91 105 100 96 95 90 93 88 86 101 133 90 83 91 90 89 90 147 134 91 143 88 89 90 94 83 87 171 151 98 155 167
159 208 188 216 224 228 215 225 120 180 152 202 200 124 212 211 218 184 98 90 97 92 96 96 89 90 91 97 146 98 117 81 87 93 92 87 86 88 87 106 132 146 98 106 86 90 86 86 83
184 224 132 183 202 167 185 203 200 195 82 163 193 198 197 200 88 101 200 108 99 159 92 85 90 90 92 87 85 101 118 108 109 87 84 85 86 84 88 86 104 82 87 87 127 176 178 104 84
197 169 175 162 210 175 187 191 176 188 183 93 187 190 192 84 95 198 120 95 93 84 95 100 97 90 83 90 91 90 87 83 84 87 90 90 86 92 89 98 85 163 100 104 110 97 88 187 95
217 187 190 204 215 196 168 134 170 175 186 185 196 155 196 206 201 171 94 100 165 93 92 101 90 89 84 95 89 92 179 96 109 155 84 88 88 90 116 83 83 96 114 101 87 165 83 87 104
196 181 188 199 192 195 194 187 195 194 173 198 231 192 148 184 193 202 206 202 95 101 96 97 90 89 101 85 143 117 135 161 101 202 177 130 84 84 85 125 86 106 184 167 99 92 84 107 185
190 188 205 195 206 173 188 196 221 225 216 220 226 229 127 173 108 200 173 191 191 102 99 84 180 99 89 169 111 209 163 214 111 107 187 126 120 111 120 188 136 143 110 118 147 99 94 108 110
185 180 181 195 210 185 191 185 195 198 224 209 215 221 222 215 90 141 189 82 177 95 123 102 206 154 84 111 116 80 129 205 148 89 103 117 126 116 100 104 104 181 195 86 83 89 114 107 110
206 195 186 206 196 184 200 211 196 231 223 189 211 214 209 209 211 110 115 196 230 201 187 182 105 199 207 115 100 91 124 129 225 121 101 105 84 101 116 122 117 111 119 118 118 190 184 106 191
202 208 199 187 192 209 179 203 223 209 214 222 223 218 211 201 205 223 208 155 145 227 209 136 147 188 183 193 117 173 125 122 133 102 122 117 104 110 103 112 105 96 99 116 112 115 114 108 111
203 203 212 187 214 198 215 218 209 218 176 216 239 217 210 203 199 218 218 247 104 100 120 83 199 114 145 93 86 95 98 101 88 125 91 110 110 103 104 107 109 112 114 124 210 95 98 110 111
204 203 208 207 196 224 214 191 217 230 227 233 202 231 229 215 194 212 216 203 242 242 237 251 195 100 96 90 152 95 94 77 79 108 130 103 100 109 99 113 116 112 107 99 206 193 196 111 180
199 204 211 217 214 223 223 225 215 226 232 226 226 223 220 237 136 199 206 217 193 155 234 234 259 214 209 194 164 189 174 113 152 158 186 126 177 102 95 119 98 105 105 201 193 199 219 174 202
220 217 215 217 218 224 221 228 219 228 218 227 215 226 218 231 239 225 170 120 115 118 112 122 234 221 84 151 193 192 139 173 143 162 190 102 98 116 159 146 109 158 195 209 217 213 203 201 200
222 227 224 225 230 221 225 237 228 232 231 219 232 217 211 219 234 235 222 215 198 270 274 235 234 240 248 226 200 194 126 183 157 192 109 189 179 202 183 147 226 148 217 211 208 204 202 191 191
230 234 233 238 244 245 245 254 246 228 235 234 228 233 203 219 220 232 231 271 205 265 265 269 234 89 249 98 217 199 208 191 191 185 186 188 190 185 180 215 208 211 210 206 204 199 190 186 188
245 252 256 258 259 274 260 263 207 234 227 228 229 232 223 224 217 225 229 220 239 261 265 202 266 228 74 243 226 199 204 194 189 181 186 190 176 184 198 216 207 213 203 203 195 193 185 191 192
220 225 224 226 227 227 237 244 249 126 229 232 237 257 241 228 223 220 226 215 200 166 256 254 260 154 209 183 147 163 198 200 133 134 188 188 171 190 189 180 207 201 203 201 194 192 188 191 193
220 226 234 244 253 257 257 75 82 249 271 151 257 251 258 257 228 227 230 240 258 248 211 250 256 256 220 228 240 220 198 198 189 175 184 176 172 186 178 177 190 200 199 199 199 193 190 193 199
233 232 247 261 276 316 318 243 323 321 119 309 284 250 248 247 253 238 220 249 261 253 246 241 258 252 223 216 239 230 192 201 193 182 181 178 169 171 172 175 192 204 204 196 202 197 194 191 187
333 324 318 320 331 352 372 381 86 88 91 218 279 264 255 235 177 232 219 230 248 111 246 182 250 200 232 217 236 234 204 202 196 185 181 176 167 173 173 176 181 205 203 198 201 194 198 184 188
331 330 250 222 331 341 349 293 397 249 281 296 278 271 250 244 239 217 231 242 243 238 244 251 254 257 232 218 234 236 214 203 200 191 181 176 172 178 167 179 203 205 208 207 197 197 185 191 181
315 340 336 334 322 329 339 356 361 281 173 241 295 255 255 252 211 218 221 245 97 234 240 252 257 258 232 222 220 235 216 204 197 188 183 180 170 173 169 182 203 205 206 200 183 186 182 182 182

GFSSGP_2pvu_pres_024.txt.gz
Presure
162 162 111 82 157 157 160 156 167 168 168 164 151 175 124 153 144 119 161 161 130 160 131 138 129 134 93 132 132 136 144 137 125 138 126 149 138 131 142 146 152 128 126 94 137 147 90 134 94
156 172 122 150 117 96 142 142 158 127 114 173 166 152 128 161 138 158 162 131 169 168 144 147 127 120 133 122 122 100 135 145 145 138 155 146 149 126 116 141 82 83 148 137 86 87 123 153 155
157 157 146 163 153 158 119 156 142 157 107 114 175 167 133 127 145 135 134 133 169 145 156 173 98 119 97 129 115 146 97 131 137 141 142 144 105 139 154 144 110 145 140 122 137 139 151 149 163
154 166 164 161 162 166 151 159 153 155 162 154 90 119 171 136 177 153 95 131 147 90 115 93 97 131 161 145 130 151 138 131 101 101 109 107 147 140 125 150 144 139 126 140 116 164 165 164 167
158 164 138 146 167 157 164 158 124 167 129 144 145 107 163 124 126 142 98 140 132 89 96 141 112 110 125 127 145 119 141 147 145 130 135 142 137 118 135 143 140 124 142 138 126 147 135 87 130
167 164 165 71 152 156 163 157 164 151 171 159 150 84 107 135 165 131 160 172 94 89 110 96 125 101 138 138 119 129 100 128 137 132 133 142 123 146 114 133 152 121 118 133 95 83 85 114 136
158 168 137 164 165 158 169 153 71 163 149 125 84 103 157 168 133 167 127 94 97 139 114 97 99 93 100 127 94 144 149 119 123 136 100 97 139 132 99 109 101 105 140 123 115 123 122 84 90
137 148 157 147 171 173 181 165 171 197 156 168 130 164 166 115 160 174 173 103 177 94 145 94 96 93 95 80 101 100 111 157 91 89 91 88 87 139 134 89 88 99 149 92 88 85 102 110 86
168 186 154 176 172 111 126 149 177 107 211 217 103 197 203 185 84 231 194 210 120 88 91 90 92 87 81 98 107 93 102 104 93 86 85 88 92 84 87 90 92 116 99 122 81 93 95 99 168
167 191 183 157 198 170 174 167 161 171 173 218 223 211 209 182 201 204 107 150 141 97 96 91 92 94 92 82 93 90 102 91 93 102 104 102 83 86 88 85 86 96 86 89 98 148 101 83 82
191 175 201 202 202 203 188 214 197 124 213 198 77 143 203 200 200 133 114 204 93 116 100 197 96 95 94 84 86 88 94 99 98 84 85 89 90 90 85 93 90 158 86 84 88 128 92 90 181
207 220 209 226 205 95 215 196 194 183 174 168 177 189 84 181 187 190 190 195 122 96 94 93 98 93 95 84 95 94 88 91 93 100 87 91 91 87 111 84 84 87 84 94 148 112 134 153 94
209 219 220 211 213 204 208 208 156 187 170 207 178 177 176 94 181 182 219 186 99 91 93 207 150 119 124 103 93 83 89 91 101 95 109 185 118 116 199 189 150 128 96 167 172 116 109 91 187
213 219 211 210 212 206 186 197 207 182 198 211 176 180 181 189 192 198 166 223 95 97 116 94 90 95 91 92 96 88 97 87 107 216 212 205 130 205 102 102 143 111 108 103 103 116 115 148 134
212 211 206 217 219 208 217 220 204 183 182 188 199 202 205 227 212 160 222 223 228 212 181 97 99 106 102 100 87 99 86 100 101 121 202 158 89 90 207 105 119 101 96 115 118 113 111 86 111
200 217 211 213 212 212 205 190 211 220 200 170 197 192 178 189 212 210 210 95 216 226 185 235 204 200 120 91 93 166 108 112 229 109 124 132 130 173 204 162 83 95 109 107 113 111 89 97 175
187 195 210 207 211 206 206 207 215 206 192 218 197 192 203 185 205 219 208 212 216 91 144 160 229 151 103 199 99 126 185 138 185 96 123 120 123 153 129 90 110 116 106 104 101 114 84 108 108
200 191 225 208 208 212 207 201 189 211 189 177 182 189 209 208 228 219 210 210 210 139 115 226 220 85 214 224 92 192 126 157 189 103 112 125 98 92 124 94 146 110 190 103 101 91 110 107 104
210 211 230 232 206 208 208 206 204 186 204 204 219 207 210 209 222 221 226 223 207 205 205 98 222 259 214 90 90 146 97 91 83 101 99 99 83 84 114 108 199 180 108 108 84 228 221 103 120
213 227 236 230 207 208 206 207 208 205 214 189 194 196 193 188 228 221 229 230 220 210 202 206 226 134 103 101 169 97 223 88 97 104 121 98 105 114 114 110 176 193 200 89 177 104 196 145 202
225 238 234 228 219 212 210 205 210 207 207 211 207 213 210 194 227 239 227 228 230 236 226 202 212 223 184 240 253 240 254 227 204 200 198 178 187 84 152 178 206 192 95 160 213 213 212 182 218
239 234 234 226 227 214 93 212 208 208 208 207 211 214 216 224 222 229 233 230 233 230 235 194 202 207 220 234 244 248 236 255 196 192 99 133 154 146 136 189 172 184 187 197 187 212 220 208 209
236 231 229 226 228 234 223 234 209 210 213 209 216 215 218 220 226 231 235 226 229 157 113 106 239 213 204 105 117 108 121 261 171 83 83 212 188 197 184 183 193 185 185 190 185 206 208 210 205
230 226 224 227 233 235 235 239 88 134 212 214 212 221 226 227 230 237 236 234 237 226 220 234 239 237 227 210 220 209 182 245 246 230 185 224 194 205 191 190 184 187 188 166 196 188 199 178 202
230 229 231 237 243 248 196 252 250 239 254 249 241 237 240 246 240 242 233 232 235 225 219 223 231 237 263 275 224 271 245 228 238 240 226 223 194 194 161 189 187 152 190 171 174 177 173 209 202
239 243 247 254 230 229 231 141 87 104 146 217 273 262 253 247 254 244 241 239 238 232 223 223 225 238 227 226 263 266 252 227 211 100 233 208 94 190 203 191 181 183 186 172 173 173 173 169 203
212 210 223 227 234 230 227 105 124 128 236 121 108 134 155 233 240 239 238 238 241 169 223 221 224 234 225 264 250 257 252 234 220 232 231 228 214 192 202 196 189 165 180 172 175 175 170 203 209
224 226 229 242 291 352 363 346 232 343 160 120 272 113 232 227 239 239 237 236 236 249 238 225 228 229 237 249 253 251 255 242 218 217 234 229 215 202 202 198 191 185 178 174 171 177 170 191 207
142 278 292 303 324 347 340 353 343 110 170 351 357 435 214 255 245 237 226 242 242 254 241 242 233 225 233 249 241 247 244 242 223 214 233 229 216 206 195 199 192 189 181 178 171 179 178 193 205
252 298 284 157 307 299 361 367 328 329 195 84 349 363 449 299 322 297 269 276 256 251 252 235 233 234 244 246 240 242 243 240 229 215 213 229 218 206 200 200 193 185 182 185 179 181 180 197 201

GFSSGP_2pvu_pres_027.txt.gz
Presure
124 152 158 111 156 90 125 155 143 156 142 160 121 156 151 160 148 162 132 136 131 155 133 134 133 135 128 139 143 139 139 135 137 133 139 148 143 142 148 136 132 141 143 131 139 90 97 90 86
133 140 124 160 155 134 134 123 78 136 117 158 147 158 153 138 153 144 166 155 129 140 142 125 127 135 140 155 128 143 148 124 139 140 145 126 126 142 125 149 126 131 118 143 140 134 103 123 132
154 153 170 168 128 123 108 134 114 133 138 158 157 157 166 118 161 144 140 163 131 146 140 164 123 133 123 149 140 108 95 94 139 137 149 142 147 139 101 149 149 125 142 150 137 141 126 143 138
159 161 158 150 108 165 139 105 116 92 94 149 161 157 163 164 135 167 128 161 130 139 119 133 134 177 97 136 97 142 129 94 103 152 146 109 123 101 151 138 148 137 147 142 151 145 155 144 153
155 164 148 159 149 151 154 156 152 161 159 109 156 153 147 124 166 133 160 160 137 154 129 137 141 166 151 159 116 155 105 149 138 133 156 138 132 143 141 145 132 148 139 147 140 139 133 100 83
172 149 170 166 140 162 164 118 166 148 156 160 120 161 155 118 165 141 162 161 120 134 109 99 91 116 122 155 97 139 130 139 139 150 131 132 147 147 143 123 102 139 121 132 142 97 88 122 114
163 162 151 153 165 168 171 169 164 148 161 172 151 104 163 164 145 171 142 179 168 140 106 91 89 154 169 145 143 134 107 129 102 142 104 107 131 117 145 135 106 99 96 95 133 85 89 86 91
159 167 162 156 164 168 163 155 164 162 162 157 150 162 145 164 90 162 167 136 168 143 145 92 151 97 96 104 99 153 102 108 132 165 102 116 97 148 94 132 141 88 94 95 114 122 127 97 139
165 165 151 169 165 61 164 162 130 154 160 164 154 167 168 167 170 173 177 142 177 169 142 95 91 93 109 105 94 135 89 143 180 145 95 90 92 89 88 88 91 92 89 87 82 94 89 93 91
165 150 157 166 164 162 157 163 179 78 165 88 178 147 176 178 183 157 177 224 213 184 129 95 118 97 94 96 96 87 108 91 89 96 93 93 90 159 99 90 87 91 157 91 87 86 94 88 95
180 169 170 156 148 157 159 159 145 155 168 165 170 167 197 167 173 188 144 221 103 238 224 219 233 94 99 92 90 102 98 95 115 112 95 88 89 103 91 93 90 89 89 86 86 151 101 95 98
176 171 199 169 170 181 169 171 183 172 179 188 195 178 189 183 221 151 227 96 156 111 202 201 105 95 95 102 89 94 102 98 99 113 93 96 88 87 94 87 86 85 84 130 85 137 100 126 172
182 190 186 183 183 193 191 193 184 191 189 228 206 213 212 200 82 112 215 210 193 93 195 195 138 98 103 103 103 104 84 92 88 82 92 96 87 130 96 85 108 154 126 183 109 147 191 115 104
194 191 188 194 196 201 199 227 220 219 105 201 216 211 203 195 182 189 189 183 188 191 193 193 111 173 105 100 104 103 96 90 88 86 91 93 91 126 103 105 199 205 88 100 201 207 183 101 106
206 221 225 229 210 223 218 227 211 208 220 217 215 209 205 207 200 198 134 95 119 180 187 183 191 90 106 100 88 155 95 107 91 86 93 90 91 105 103 211 215 209 140 117 153 219 97 102 118
208 218 221 221 236 211 212 213 220 220 215 206 212 205 189 211 194 204 173 83 166 96 197 107 192 101 97 122 129 187 94 96 106 94 101 89 96 107 208 119 140 141 132 132 122 124 103 107 118
203 203 216 216 205 229 215 207 214 214 212 215 211 213 216 214 188 219 191 207 189 210 96 193 222 102 157 103 97 149 103 105 81 87 101 79 195 198 85 117 116 120 127 141 106 97 115 119 103
206 203 211 221 214 216 209 212 216 211 210 211 212 213 208 194 213 210 197 197 185 194 169 224 227 221 199 225 221 192 176 211 89 177 97 108 161 188 188 177 206 96 95 91 116 101 179 160 169
213 209 206 202 214 206 223 206 199 200 208 207 207 209 210 208 203 184 217 218 193 221 211 241 125 163 196 223 214 216 111 111 95 127 133 208 193 191 98 102 92 99 89 90 138 113 113 85 196
210 208 205 208 211 221 196 187 188 202 213 208 204 208 207 207 202 189 208 201 212 220 218 230 232 224 92 189 213 210 94 221 194 84 240 227 96 92 124 98 99 91 100 117 186 110 109 211 199
214 208 206 206 210 214 208 200 197 186 201 218 205 204 209 209 202 186 200 198 197 205 197 224 233 235 235 235 220 182 194 155 190 91 151 251 161 91 100 153 194 185 133 184 145 185 140 199 189
219 210 207 208 205 206 213 213 210 214 239 225 205 206 209 209 201 172 165 172 201 197 136 201 244 230 228 224 232 246 184 210 214 226 241 231 245 236 225 222 160 203 189 160 173 178 185 190 190
218 215 208 208 212 210 204 212 213 228 234 226 84 210 213 215 213 216 217 217 223 212 220 225 236 236 229 235 234 236 211 201 208 211 226 231 241 237 233 229 217 201 215 185 185 184 179 182 188
222 219 212 213 213 215 198 226 89 181 235 229 228 223 220 214 219 208 212 212 215 221 215 220 220 230 237 229 235 233 237 243 217 204 201 236 77 193 121 230 206 191 165 221 194 197 185 180 190
222 220 218 216 219 220 231 249 198 202 127 240 233 199 226 220 211 215 220 224 225 224 215 221 217 229 235 236 208 228 229 246 178 264 203 112 211 206 247 244 228 185 149 222 201 144 199 181 183
216 217 221 226 235 261 261 149 92 114 114 233 236 242 244 241 236 237 239 233 229 226 220 217 225 235 237 243 234 227 220 231 236 235 264 262 250 241 241 244 236 228 224 223 210 195 203 189 170
269 270 268 260 257 256 244 229 98 219 176 209 258 94 271 244 245 201 229 226 227 229 233 225 230 239 231 227 235 227 225 221 239 206 260 268 248 236 219 229 244 235 225 221 213 195 196 198 188
256 247 236 194 218 214 220 229 237 182 303 190 177 134 173 178 133 262 267 264 266 259 253 248 170 237 232 237 231 231 222 219 232 233 259 259 256 147 232 214 220 227 228 224 215 209 195 201 193
214 212 213 219 221 265 315 333 158 98 387 389 370 103 350 357 251 245 246 249 254 272 261 249 247 243 237 227 235 236 217 229 221 216 250 251 252 241 234 226 224 229 232 225 217 207 190 202 196
218 216 266 259 299 293 288 295 300 323 203 377 98 360 342 344 344 167 159 235 223 225 225 228 235 239 237 239 236 237 226 232 225 233 244 240 252 246 235 232 220 221 235 230 219 210 200 197 197

GFSSGP_2pvu_pres_030.txt.gz
Presure
121 111 93 164 165 97 150 103 125 112 119 130 140 158 119 155 121 151 142 132 136 133 154 133 135 133 153 139 120 132 133 133 136 140 134 135 138 139 135 139 128 136 123 126 138 132 148 142 139
163 147 161 160 131 108 82 107 106 84 135 120 113 146 113 150 156 112 157 143 109 145 122 134 137 134 160 148 135 134 128 141 136 141 136 144 119 142 140 141 145 140 144 132 140 114 143 141 86
169 166 163 163 153 138 166 102 84 144 157 100 140 156 115 159 162 168 122 133 153 159 147 124 131 154 141 143 131 132 137 136 136 145 136 127 144 135 138 135 136 141 139 148 146 142 124 145 148
172 91 170 160 164 151 162 172 159 140 160 82 158 155 167 116 119 148 160 159 132 143 154 171 130 156 123 138 143 128 136 140 95 114 142 147 147 139 123 91 131 143 140 149 141 133 148 133 147
162 169 153 137 97 150 174 164 163 143 155 109 111 101 171 124 132 167 157 157 156 143 167 164 148 155 139 147 87 143 150 159 133 134 111 124 142 101 148 146 139 142 149 149 141 125 147 133 147
154 161 161 165 164 154 156 153 164 115 148 133 136 146 151 164 155 154 165 156 163 127 154 134 167 155 126 134 96 135 111 124 160 156 142 150 146 150 119 150 159 134 141 133 134 144 149 132 113
159 161 145 166 161 167 174 152 160 159 156 157 164 154 159 85 158 130 154 157 163 146 129 165 140 136 159 93 131 103 153 107 171 128 146 106 109 136 147 125 145 134 155 149 106 98 102 111 149
166 172 164 155 163 146 170 165 167 152 172 153 159 158 166 155 155 133 161 156 153 148 152 172 152 156 90 101 172 126 96 153 155 139 136 162 162 125 160 166 97 139 99 109 91 94 99 114 80
174 151 164 157 174 156 173 172 152 152 163 170 146 171 172 130 101 167 138 138 121 132 160 170 159 97 99 110 131 133 120 165 135 112 169 166 145 134 102 124 97 166 90 90 90 87 83 89 90
158 174 166 175 172 169 151 166 134 117 137 159 124 161 168 172 165 110 159 140 163 165 159 169 153 154 162 172 190 122 163 105 108 93 123 153 104 126 96 102 93 86 88 97 93 93 88 86 90
176 163 159 178 162 176 178 171 156 169 155 165 174 172 161 147 150 150 169 92 114 161 149 182 187 102 112 167 97 155 105 92 107 103 106 92 103 91 90 94 96 90 89 89 89 88 84 89 88
183 173 162 167 185 168 164 157 172 172 168 169 174 172 157 168 178 147 173 175 175 164 177 166 173 171 213 226 99 97 97 101 96 107 107 100 115 94 85 94 89 91 88 87 87 208 184 124 186
188 180 167 170 187 165 158 170 176 169 160 164 167 159 158 168 164 180 180 173 180 177 203 169 203 225 99 99 101 93 95 93 99 95 96 99 98 93 89 94 94 86 84 108 106 117 126 192 151
182 184 181 212 183 185 193 171 165 172 196 181 175 167 165 170 167 173 118 110 191 195 212 213 192 215 224 162 167 125 96 100 93 104 89 90 87 89 93 96 92 91 220 104 213 159 184 154 124
191 196 197 193 199 196 173 175 200 194 185 184 180 86 176 183 199 119 232 204 205 83 216 207 192 148 196 94 199 199 107 182 103 107 90 101 88 89 89 96 88 95 199 100 221 220 216 215 123
198 196 194 195 200 199 132 192 189 197 191 195 197 202 202 214 229 233 226 226 222 218 210 193 194 165 97 187 115 115 191 127 107 104 105 98 139 94 96 100 94 93 102 137 149 196 211 134 209
191 191 193 193 197 201 202 208 208 196 196 223 217 230 223 218 225 175 222 227 220 216 219 158 199 187 207 188 179 205 160 98 97 94 98 89 94 135 97 101 93 90 139 196 111 145 116 116 99
208 211 206 202 207 215 211 214 208 223 225 223 219 215 218 212 218 197 216 223 228 224 230 191 192 90 168 206 209 182 190 223 96 98 103 129 137 199 175 100 103 93 200 199 180 175 162 160 94
219 214 207 207 215 212 214 213 218 211 222 217 230 217 214 207 211 211 214 216 220 221 209 195 191 164 205 107 199 188 251 98 100 96 208 101 94 136 94 104 98 95 133 113 136 195 101 78 92
209 208 214 221 217 221 219 213 205 202 222 210 226 207 210 202 218 213 210 211 210 222 218 220 219 203 208 219 216 211 226 137 229 208 222 207 170 211 137 118 203 231 224 117 97 96 94 94 104
222 213 215 217 221 221 215 213 213 208 208 210 202 209 212 207 204 205 210 205 210 208 212 214 204 206 184 217 209 217 227 226 226 96 230 150 95 213 158 247 143 217 178 96 91 152 176 204 188
228 233 224 222 220 222 228 186 221 211 199 90 211 216 204 198 190 195 201 218 213 209 205 220 209 226 185 187 194 205 206 245 227 97 127 229 103 177 205 204 123 215 224 102 215 230 212 127 104
226 224 222 229 227 227 219 222 210 210 205 201 206 210 201 205 218 216 215 204 235 217 210 211 214 219 220 218 214 202 240 205 232 229 225 229 112 104 104 105 104 200 227 114 246 235 117 187 193
245 237 236 230 222 225 219 222 73 103 204 177 213 212 214 219 217 218 211 228 247 228 215 214 203 208 216 220 164 200 224 229 218 241 240 233 221 229 218 199 207 211 214 225 203 202 118 117 226
290 284 255 242 240 227 227 224 65 181 190 209 218 218 220 222 220 225 229 236 257 238 226 216 215 199 210 214 211 192 222 223 219 234 237 241 234 248 244 238 238 212 153 220 207 235 227 237 233
258 253 251 250 244 239 234 231 207 114 107 116 124 230 232 226 243 240 245 259 259 249 235 222 216 212 205 201 215 220 222 216 228 227 241 248 235 216 245 247 237 249 271 248 251 229 225 228 244
234 235 233 232 241 241 232 222 219 218 116 82 95 174 184 270 274 278 267 259 217 240 247 233 230 220 205 206 137 223 224 217 222 229 240 229 237 251 209 218 232 269 266 253 140 112 239 242 248
236 233 230 227 219 219 220 224 241 250 267 262 166 228 99 156 274 273 280 281 257 257 248 236 239 222 223 223 230 231 223 218 217 233 230 222 191 233 228 237 243 254 260 264 248 237 211 230 216
255 267 262 219 248 248 241 237 236 96 235 293 295 252 116 116 118 114 118 133 126 223 250 238 139 239 234 235 220 221 224 228 194 227 226 228 241 224 220 233 237 235 240 248 252 250 238 232 224
241 238 232 229 225 221 224 284 267 273 264 95 299 228 307 321 363 391 370 277 354 257 261 135 262 256 244 234 227 239 241 245 232 234 235 223 233 230 224 228 222 250 246 242 249 254 249 237 232

GFSSGP_2pvu_pres_033.txt.gz
Presure
136 163 93 140 139 146 130 93 84 145 131 109 143 133 118 117 122 149 132 151 138 128 139 138 134 133 138 135 149 129 134 139 138 139 139 134 136 140 136 141 119 135 142 142 141 140 125 125 131
136 127 133 136 122 128 152 127 107 108 125 154 135 164 147 140 126 126 101 162 150 154 159 135 121 140 134 133 144 125 131 134 138 137 136 136 139 141 134 135 140 141 132 119 131 145 132 143 146
144 158 132 151 103 130 149 143 81 146 143 133 100 145 107 166 116 114 142 118 140 125 136 131 130 143 141 126 153 125 140 140 161 140 130 138 136 140 146 142 144 134 133 139 143 151 108 148 144
158 159 158 138 150 137 130 105 133 88 67 89 93 129 160 112 133 141 133 144 157 152 162 170 171 114 123 134 111 128 145 143 143 163 133 136 141 140 141 135 141 142 126 147 146 110 136 133 145
167 166 141 162 153 175 115 132 121 159 161 160 151 170 175 129 111 108 112 154 136 132 130 163 161 167 112 162 166 136 131 151 139 160 103 97 144 141 139 125 158 95 147 136 142 137 153 152 160
181 175 167 162 164 127 163 168 158 148 163 165 139 129 152 144 152 159 133 154 152 135 131 132 148 165 160 145 145 158 146 166 142 143 143 121 134 130 148 139 136 152 123 139 136 150 160 146 133
177 176 170 172 169 154 131 157 174 169 113 155 147 163 170 123 121 132 109 172 162 153 144 139 158 158 153 151 132 151 153 89 163 130 162 132 96 132 145 167 132 124 128 137 153 142 141 151 96
170 175 177 166 167 172 183 166 97 155 86 162 172 173 163 127 139 151 148 153 158 158 164 159 136 169 146 155 163 167 147 124 150 117 99 137 131 116 124 106 178 172 164 154 166 152 92 95 80
176 176 174 148 172 173 157 161 172 154 167 161 156 159 83 139 156 159 158 141 139 124 159 156 143 129 136 156 164 147 125 165 108 116 105 171 146 160 139 154 155 181 144 134 147 90 89 85 87
148 158 165 178 174 178 180 167 145 165 151 168 159 169 167 163 161 156 160 135 151 158 109 145 157 159 147 162 156 117 135 98 149 173 143 160 160 101 119 133 146 103 91 87 89 88 93 91 88
169 161 152 157 160 172 176 180 175 165 128 88 169 172 165 173 158 163 174 169 163 123 164 161 147 172 162 172 93 131 92 176 154 132 196 167 110 119 125 103 105 102 103 89 88 86 90 89 86
176 168 168 155 168 158 169 172 176 174 169 166 172 177 167 174 157 131 162 177 171 163 160 84 162 165 164 166 158 131 97 173 206 115 180 113 95 100 100 133 91 90 95 92 93 91 88 87 86
177 177 176 175 176 170 169 175 161 171 179 175 180 170 157 168 161 160 155 165 172 178 172 161 108 173 168 154 158 173 152 197 100 139 99 104 100 103 97 97 94 84 91 90 90 85 84 87 84
178 178 176 179 181 175 175 176 178 182 169 178 177 163 170 167 167 174 175 175 181 179 169 174 150 164 167 171 173 190 110 164 92 131 98 131 101 95 107 95 108 99 87 95 88 85 106 104 142
214 194 184 179 187 179 178 176 191 181 169 165 166 161 173 178 162 180 188 165 168 166 88 162 171 176 184 209 131 132 217 119 203 105 98 99 97 95 112 93 102 105 88 96 89 88 80 190 196
204 207 195 194 196 186 187 182 181 180 202 109 164 172 177 183 175 167 169 176 181 170 175 182 161 144 230 210 225 220 215 207 191 110 102 100 99 92 109 94 93 100 87 92 96 95 93 98 194
199 199 199 199 207 192 205 194 189 189 189 183 184 193 188 178 181 180 169 195 214 211 211 222 239 234 153 224 225 221 165 206 198 229 222 121 130 184 109 93 96 96 105 98 100 96 86 95 203
202 204 205 203 203 198 197 196 198 199 197 199 204 201 182 185 186 194 200 195 169 212 234 233 235 225 230 230 218 215 224 212 183 168 104 135 116 117 120 102 114 95 98 227 101 99 98 90 100
201 196 198 195 197 202 201 201 196 204 205 200 199 201 201 199 203 214 220 220 226 228 225 225 226 186 221 223 224 164 225 193 198 204 173 202 203 129 98 103 158 103 108 87 103 99 94 96 103
202 198 200 203 206 202 199 200 196 200 198 196 199 203 209 220 218 211 213 216 216 221 220 217 223 222 138 220 227 223 218 117 125 215 236 196 230 238 243 184 136 101 101 102 100 98 134 203 204
219 215 206 203 203 205 205 202 202 204 206 212 210 209 215 209 216 215 205 222 217 217 217 219 216 223 218 213 215 211 212 199 221 207 200 221 211 220 90 228 162 155 164 217 213 214 217 247 222
235 225 218 227 215 227 222 215 213 214 215 216 219 218 211 217 219 213 210 216 229 215 214 213 217 213 215 211 216 215 218 203 202 203 207 226 220 214 221 226 233 231 237 246 212 196 105 217 215
228 224 226 230 234 239 238 216 201 211 213 205 220 220 223 218 215 219 220 204 217 205 205 219 210 192 197 204 208 219 220 218 231 205 175 207 197 202 196 217 98 219 105 225 236 203 194 102 219
236 235 237 241 243 241 234 247 158 224 205 179 220 218 217 222 227 229 224 217 213 215 216 210 203 211 214 218 208 231 221 215 212 195 182 168 203 202 223 225 225 248 242 236 243 259 229 200 210
238 242 240 248 248 221 223 228 227 180 94 214 227 230 229 223 222 225 224 222 222 218 214 218 208 204 213 221 210 226 227 220 213 182 220 228 213 218 223 226 220 241 253 249 232 249 247 245 255
233 231 237 244 243 251 253 254 247 102 128 114 107 160 223 229 233 232 219 218 228 227 223 222 225 223 220 217 207 220 228 222 213 214 200 202 210 213 221 219 221 244 236 231 250 236 227 234 241
243 244 249 256 252 259 281 274 266 250 165 148 251 252 240 170 244 113 232 239 238 236 233 232 178 229 232 227 235 222 241 218 219 206 209 200 192 212 222 227 213 232 232 227 243 231 229 227 243
259 271 280 285 268 257 249 241 234 232 233 236 102 139 119 161 255 186 101 113 245 243 248 251 242 241 251 243 249 267 250 229 222 202 203 210 211 213 230 218 225 224 234 235 245 221 231 176 228
254 251 250 245 238 236 233 229 227 230 227 226 231 211 258 261 270 275 228 272 267 173 106 167 285 178 280 182 274 267 241 212 217 219 216 216 225 223 219 228 228 229 232 228 234 232 224 228 234
225 230 225 220 254 250 255 247 250 249 242 241 243 304 79 315 313 301 310 301 303 124 131 129 110 373 248 266 254 251 248 238 234 230 229 225 229 222 226 234 233 226 220 227 226 226 227 227 250

GFSSGP_2pvu_pres_036.txt.gz
Presure
105 147 142 96 131 120 119 150 120 142 143 112 115 127 148 135 146 109 110 131 124 129 123 109 133 134 114 129 125 144 137 136 137 141 140 135 139 126 138 141 148 137 143 109 142 139 146 142 143
151 131 151 143 143 136 142 81 123 127 127 146 94 98 102 130 122 144 138 132 137 134 137 135 132 114 114 129 128 129 136 130 141 133 137 136 139 141 142 138 138 142 137 137 141 133 157 145 131
141 130 134 143 138 146 108 137 83 116 84 113 139 137 112 139 88 102 118 148 148 126 154 133 155 134 136 133 131 125 140 134 126 137 151 142 136 140 123 141 141 134 145 143 142 143 134 136 143
168 130 158 137 130 158 157 98 135 148 137 92 133 117 125 126 116 171 142 156 108 123 151 115 114 160 160 147 142 137 139 143 142 140 155 142 145 140 156 141 140 134 143 141 138 92 139 123 123
151 153 155 123 88 140 144 98 120 96 134 137 156 133 123 129 130 163 104 111 111 140 113 145 144 140 160 133 123 140 123 144 145 142 136 128 152 132 131 155 150 121 138 140 114 122 142 163 139
159 158 151 147 154 155 153 161 139 120 145 105 152 144 84 89 166 159 125 135 122 115 124 149 126 138 149 151 151 162 156 162 133 142 123 168 133 142 145 143 145 159 131 139 144 149 143 137 152
168 166 160 159 157 152 156 151 157 131 158 147 143 128 167 135 161 151 143 101 167 97 134 152 131 128 156 141 149 137 159 160 165 136 163 131 155 144 125 171 107 133 131 142 125 126 122 164 159
166 164 159 160 164 146 165 160 160 157 151 179 178 175 162 136 149 157 159 108 157 170 99 153 112 139 151 164 168 131 121 153 155 162 158 95 140 98 170 100 174 112 130 142 156 165 167 172 123
188 182 174 162 177 183 187 173 171 151 159 157 164 165 167 153 170 160 167 127 163 170 125 120 123 125 121 160 164 151 145 151 145 164 160 148 122 137 103 165 169 159 178 160 147 138 108 111 148
173 164 168 168 176 176 185 185 186 180 172 159 171 168 87 124 140 166 159 168 155 158 156 130 127 155 138 135 163 122 165 168 119 164 167 153 132 124 164 187 158 119 108 180 153 160 177 117 88
175 160 170 160 176 175 178 178 179 176 168 171 154 120 171 160 160 157 160 105 90 102 146 94 150 162 112 159 156 159 160 156 156 165 166 107 145 107 168 158 147 169 124 182 114 93 89 90 89
177 166 176 172 172 175 174 173 167 171 174 179 181 173 173 168 176 161 168 166 162 154 159 166 161 91 160 152 161 158 163 176 180 152 164 149 102 148 174 155 152 109 189 188 141 102 93 91 90
171 168 167 178 177 170 158 154 164 167 170 180 180 154 175 174 154 165 162 174 175 173 166 161 166 162 152 170 175 171 157 167 167 173 101 97 163 176 174 165 152 107 110 142 107 94 93 94 93
175 178 170 168 171 175 174 170 169 157 152 155 157 159 169 174 176 170 173 171 171 166 173 158 177 161 157 167 182 111 90 181 157 157 170 163 124 175 191 201 157 96 106 98 108 96 89 88 88
195 186 168 176 170 169 170 170 170 175 174 164 160 156 155 162 170 174 175 155 165 172 175 155 165 180 172 174 172 181 182 181 171 167 159 183 135 207 103 103 108 129 108 99 92 206 100 99 105
194 200 186 187 172 170 170 160 165 172 177 170 172 172 175 65 166 169 177 173 174 173 164 171 168 164 157 86 167 192 182 179 168 165 178 219 231 202 100 114 103 97 98 105 99 103 108 89 93
209 209 210 189 193 191 177 175 175 176 169 180 181 175 179 163 179 169 177 187 172 179 159 175 174 177 169 173 187 132 128 193 232 225 231 230 216 216 105 196 102 97 96 94 130 95 97 100 95
208 208 216 214 192 203 211 183 175 186 187 178 183 185 181 184 187 184 183 184 174 125 184 198 187 178 200 203 209 212 224 219 218 217 225 221 128 195 229 219 191 102 93 175 158 154 102 106 101
215 216 210 208 210 208 207 206 198 206 204 200 199 195 198 200 202 200 200 192 201 202 202 206 201 209 214 223 222 223 214 212 207 203 206 235 235 202 210 202 103 185 211 176 172 200 104 103 104
209 204 211 208 208 210 208 203 198 197 197 199 197 198 200 197 199 198 202 206 203 203 205 202 202 198 213 121 219 227 223 211 202 214 215 214 212 216 222 201 220 226 225 205 146 134 105 107 98
204 207 201 212 193 205 204 200 199 199 200 203 202 200 195 196 200 202 197 200 202 199 205 210 218 214 221 213 219 214 222 205 214 215 212 212 214 190 197 208 208 221 158 133 172 232 182 171 229
236 215 208 207 207 193 201 198 197 200 197 200 197 195 198 199 200 203 206 207 179 207 214 214 222 216 215 214 202 223 221 202 195 205 205 195 200 201 201 202 199 199 204 217 192 209 120 111 100
217 229 238 199 209 208 202 193 197 194 194 197 197 198 204 201 202 202 203 208 207 210 217 223 220 221 221 219 214 217 221 217 216 192 204 186 214 200 203 208 215 216 194 175 189 169 182 236 242
259 252 232 245 223 210 210 206 195 200 199 199 203 206 207 206 207 213 217 227 231 232 220 228 224 220 216 218 221 213 209 209 218 146 187 203 201 211 216 195 200 199 212 212 218 213 228 228 241
245 243 243 227 230 236 237 242 230 212 213 83 215 217 237 229 235 226 222 224 231 230 223 220 224 228 231 227 220 219 213 208 211 212 207 210 209 204 227 214 214 207 213 227 201 213 219 236 222
239 245 245 245 241 221 221 223 78 130 183 138 113 134 245 247 244 241 235 230 229 230 236 239 239 231 228 228 233 222 217 211 216 213 205 197 202 198 203 222 216 203 209 202 203 203 216 226 219
238 237 238 237 237 236 240 240 240 240 181 252 131 259 252 250 256 256 132 229 223 181 238 241 241 235 234 234 235 235 227 213 207 210 206 212 208 204 214 226 216 214 208 199 208 205 226 219 229
237 234 229 235 243 241 240 237 237 238 248 260 264 275 281 273 269 227 94 205 263 233 99 179 211 252 251 251 251 248 242 238 228 212 209 214 212 212 222 217 226 216 211 202 213 217 221 219 237
245 246 242 244 244 241 236 233 260 281 278 262 255 255 192 203 160 253 252 250 252 186 211 252 256 255 251 247 252 248 246 252 252 233 224 221 214 219 212 235 228 222 216 210 216 223 263 228 233
261 259 260 266 260 258 294 257 255 248 241 239 274 265 260 262 262 270 274 310 310 311 180 261 149 269 125 256 267 130 266 268 259 254 254 253 242 243 242 239 229 213 209 216 221 215 220 232 222

GFSSGP_2pvu_pres_039.txt.gz
Presure
133 141 108 128 89 129 82 107 133 136 98 127 117 141 137 100 148 138 119 149 138 112 134 132 129 127 125 100 136 140 115 134 121 97 135 130 135 138 138 142 138 141 140 153 140 137 143 143 141
133 147 149 144 132 123 89 121 86 132 139 138 118 139 116 134 129 142 133 126 126 150 143 128 141 126 127 120 112 129 135 118 135 133 124 138 131 132 138 138 140 142 144 140 141 117 151 142 124
139 143 155 136 130 148 110 124 81 136 115 118 141 136 111 146 141 119 117 135 148 133 96 129 134 131 137 129 130 147 127 131 131 118 127 126 134 142 145 134 133 141 143 148 142 136 141 142 144
137 136 140 149 133 124 99 126 140 83 85 80 138 149 128 148 98 107 106 142 140 119 139 127 134 130 138 134 136 140 143 129 137 136 121 132 121 98 126 136 144 149 153 139 150 156 142 141 143
154 151 131 139 133 131 148 148 144 137 130 87 84 90 126 108 117 90 117 136 120 138 153 133 155 143 139 134 119 130 122 124 137 146 141 151 135 137 126 145 148 147 128 124 162 156 152 154 125
167 161 140 134 153 136 140 151 144 119 150 147 139 141 90 130 133 132 131 140 122 138 123 126 129 135 129 119 122 148 146 118 129 147 156 118 141 152 144 155 137 134 146 171 153 135 146 140 101
164 161 153 91 145 145 139 151 134 136 143 133 148 117 140 124 141 143 134 136 119 129 130 131 125 120 131 151 161 139 152 146 125 152 160 153 165 169 165 168 160 132 167 126 163 156 133 131 173
169 160 159 155 158 141 155 144 134 146 133 136 141 107 125 114 132 140 144 116 152 141 136 170 162 129 135 134 151 138 132 139 134 138 154 131 131 134 159 162 166 162 137 135 104 181 159 168 134
181 166 164 155 161 168 162 153 160 153 146 148 143 143 137 135 129 146 116 91 92 97 174 145 145 153 158 162 171 143 146 153 162 133 126 172 169 167 143 142 157 164 103 161 116 141 152 142 170
178 177 165 168 166 132 168 165 156 152 146 148 113 153 155 149 118 145 157 156 162 178 161 141 155 152 162 114 177 146 113 140 142 137 152 167 144 167 153 153 147 145 174 130 160 146 149 123 168
164 166 171 180 189 180 174 173 163 159 119 158 158 158 153 158 154 151 141 141 151 162 100 163 169 163 161 161 153 171 113 107 139 169 162 154 146 110 177 154 169 172 165 176 178 180 128 176 112
178 164 170 174 183 192 190 169 167 168 151 152 157 168 181 101 93 173 176 170 174 169 154 168 172 167 156 154 163 171 167 157 168 164 166 173 170 169 161 155 145 182 110 169 142 164 128 186 186
181 171 171 174 182 191 191 187 180 168 161 169 180 178 167 171 179 179 174 171 174 160 176 171 170 145 162 151 164 164 163 159 150 165 163 169 168 168 171 165 167 174 105 173 163 171 107 110 216
194 187 168 162 165 174 183 185 184 178 158 178 180 179 175 171 176 171 169 176 175 177 169 169 168 179 164 159 174 171 170 175 163 117 170 154 154 161 188 146 191 101 149 164 162 158 171 197 95
218 195 181 180 171 166 174 179 171 169 168 176 173 167 171 170 165 71 172 87 179 178 181 175 177 181 179 172 171 172 169 178 178 159 96 179 163 172 179 189 210 105 180 176 210 114 107 206 215
179 217 211 174 180 177 183 169 174 171 171 175 170 167 162 149 144 143 159 160 157 159 154 162 162 166 170 173 172 173 169 178 179 165 184 179 173 209 181 241 203 188 124 123 226 104 103 108 109
184 179 208 214 187 185 179 165 165 173 170 164 171 174 177 167 167 162 160 161 155 160 153 169 167 171 168 124 174 175 177 176 181 142 87 137 211 210 184 211 224 228 229 225 102 99 100 123 103
229 210 175 214 215 161 182 169 171 183 177 175 168 167 170 169 168 170 169 168 174 176 182 178 178 177 179 180 178 170 191 168 201 196 192 217 133 221 226 226 219 215 221 223 217 141 102 96 100
220 221 222 209 210 221 204 197 187 185 178 168 170 170 170 170 171 172 172 170 170 175 179 180 186 183 183 194 214 209 201 205 207 210 202 224 214 212 215 209 215 227 225 107 97 221 202 170 203
206 217 188 187 213 212 210 209 198 200 204 198 187 188 190 184 182 178 181 185 181 193 205 200 199 202 207 203 106 204 206 200 209 206 220 210 207 226 220 209 202 209 216 217 209 207 221 223 219
207 209 205 206 189 205 214 209 206 204 205 204 210 211 197 193 200 200 193 198 207 208 104 209 205 208 205 204 203 198 201 199 199 213 139 154 216 206 221 216 211 210 214 213 214 218 215 219 216
214 208 206 196 219 215 211 210 201 202 198 207 211 205 206 206 207 208 208 206 205 199 198 197 206 206 207 208 207 202 203 208 203 208 219 217 224 213 213 208 193 215 205 196 204 209 214 180 184
218 208 214 213 205 197 197 203 205 210 210 204 205 209 208 207 206 207 208 204 202 204 209 206 202 203 110 205 202 208 206 205 210 222 221 218 215 215 222 202 196 195 192 194 193 214 216 221 210
243 217 222 217 209 196 205 200 191 198 195 204 209 200 190 205 206 208 207 208 210 205 205 206 204 206 206 207 212 212 218 227 224 219 217 219 207 212 217 221 209 209 193 194 206 210 203 222 216
251 251 249 254 237 220 215 211 162 199 197 204 202 211 205 204 201 200 201 204 205 207 209 209 211 211 212 212 213 226 228 214 224 219 223 223 211 197 209 213 202 219 202 207 204 209 205 206 224
252 240 239 240 246 241 245 230 239 225 212 212 209 203 152 206 207 208 209 211 212 214 217 218 221 234 238 239 242 240 241 241 245 238 224 217 215 215 216 219 212 216 215 202 194 203 200 199 219
251 248 238 244 247 243 231 240 255 238 234 238 246 229 221 100 199 218 247 250 250 244 248 250 248 248 231 245 233 229 229 229 230 227 232 232 223 216 221 216 207 201 205 211 206 211 205 208 211
244 245 244 247 241 237 234 247 246 251 182 164 232 159 231 234 232 233 201 255 257 146 239 266 179 140 262 281 281 268 256 249 246 225 239 232 224 221 217 221 219 209 204 204 202 211 213 214 212
238 241 241 249 246 238 241 242 246 249 247 245 247 247 247 152 245 254 286 165 124 211 212 266 180 160 190 267 270 276 231 274 269 261 252 241 241 241 234 229 228 220 213 208 205 206 208 207 214
240 240 244 251 263 243 247 241 243 237 236 243 242 237 243 285 258 257 90 268 139 284 288 283 275 277 275 276 280 203 258 254 176 253 249 245 243 245 230 244 241 238 225 224 217 214 207 223 227

GFSSGP_2pvu_pres_042.txt.gz
Presure
146 138 128 97 89 130 128 106 137 148 112 125 134 131 113 149 137 147 127 145 128 116 132 126 133 128 127 142 119 139 139 144 142 140 112 139 142 140 144 146 137 132 135 151 144 141 134 137 146
152 148 139 134 146 99 104 89 144 142 140 123 117 126 123 139 140 121 124 129 114 135 127 124 149 138 128 132 126 110 101 120 129 136 142 137 128 133 131 130 120 127 135 133 136 135 136 139 145
162 152 141 138 143 88 136 143 86 134 132 139 141 140 127 140 139 127 116 137 139 143 155 131 102 134 117 144 138 128 129 138 139 125 116 129 131 130 138 122 133 140 141 141 132 143 145 144 156
150 138 154 137 144 137 137 92 90 150 147 123 143 140 128 133 84 129 123 126 113 126 132 117 139 142 135 104 147 150 137 135 133 131 147 131 125 141 136 125 127 127 122 150 133 148 151 129 104
141 144 147 149 134 153 117 93 139 97 98 88 130 136 144 115 135 138 140 135 125 143 141 127 141 133 121 142 117 122 115 113 113 123 146 105 133 137 142 140 143 152 125 153 142 138 146 147 145
156 151 138 138 141 147 145 144 90 120 141 140 139 136 142 141 129 134 124 137 121 142 148 134 131 152 137 135 129 123 147 152 114 98 131 133 157 145 135 136 160 154 145 166 160 158 154 147 166
171 168 148 141 143 76 145 144 146 108 137 103 134 96 94 141 135 134 138 136 136 122 118 126 115 144 142 111 140 129 122 141 161 151 147 140 159 134 123 148 149 126 161 126 146 140 164 169 162
175 168 160 150 77 83 112 146 145 131 82 141 141 96 138 99 95 90 85 146 134 133 132 136 109 132 136 133 134 134 139 142 161 132 153 152 126 105 136 138 139 134 161 155 172 134 98 152 160
176 175 168 156 100 159 151 151 140 146 142 143 139 147 133 140 151 149 157 144 118 142 134 126 151 142 96 134 147 124 143 171 166 155 155 153 157 156 97 139 158 159 163 157 174 172 149 163 161
165 169 160 163 167 169 169 161 146 145 137 136 141 140 152 132 93 123 110 134 150 116 100 124 108 116 157 150 123 155 120 158 145 167 112 129 163 144 174 128 145 166 164 172 164 173 164 103 172
182 169 171 162 168 173 173 168 160 152 154 143 143 138 143 139 139 141 142 146 135 150 100 142 156 118 92 100 144 140 164 170 174 139 170 160 170 170 180 176 173 157 161 165 172 175 176 165 163
185 176 175 170 173 176 122 163 161 157 156 157 154 147 147 151 159 150 153 149 154 153 157 153 153 161 161 159 144 168 154 169 88 103 173 168 163 133 170 169 178 165 173 169 172 172 171 181 143
166 186 173 177 177 181 182 176 68 131 165 156 158 161 161 160 155 151 146 156 160 126 106 165 175 182 156 158 177 178 172 159 163 124 88 163 157 168 169 174 170 169 169 171 177 158 165 163 120
156 174 187 182 171 183 174 175 179 171 172 163 158 160 159 158 159 160 159 160 161 145 107 166 169 174 183 183 173 174 162 168 181 164 180 175 89 171 120 183 181 185 177 164 178 190 174 178 131
189 146 166 175 179 170 177 178 162 102 182 177 173 179 175 74 158 156 128 158 163 162 177 183 181 174 179 173 172 183 178 178 181 177 177 180 182 183 90 173 138 164 173 172 177 187 178 141 190
208 185 172 159 168 171 175 172 173 168 169 174 172 177 186 185 86 178 177 178 185 165 181 181 77 177 165 170 174 174 171 173 164 167 168 169 172 176 183 173 179 190 189 215 217 236 244 225 158
184 153 161 181 189 179 178 177 179 185 173 169 163 172 146 183 182 181 181 179 175 171 175 170 118 174 169 165 164 75 115 117 155 163 126 178 150 176 179 190 199 208 207 198 233 219 223 196 221
182 216 195 158 168 156 138 183 177 182 180 169 161 160 163 173 177 172 167 96 173 175 175 173 153 150 157 160 158 169 170 173 173 174 183 184 194 190 203 90 117 186 194 222 219 221 220 213 223
182 197 157 232 169 155 154 184 196 197 195 189 184 178 172 171 171 173 169 170 168 172 177 179 180 178 177 173 173 172 177 180 186 193 204 196 204 217 213 205 205 204 217 212 210 217 216 218 220
196 175 179 200 224 212 228 149 216 214 209 196 182 177 178 172 171 172 170 175 175 171 171 170 176 176 182 174 180 181 186 200 192 206 202 203 205 198 204 195 207 210 211 224 226 218 222 216 215
227 200 194 178 198 166 193 223 182 170 193 210 212 210 187 182 179 178 176 177 180 174 171 176 181 185 195 192 191 198 202 201 211 212 209 202 203 198 201 198 205 205 207 224 223 211 207 213 208
222 208 193 190 166 203 209 218 216 214 185 209 216 212 216 217 192 188 195 198 198 201 200 199 210 210 209 209 212 204 209 210 202 203 207 205 202 212 199 203 204 205 221 214 209 219 207 212 213
224 224 214 202 184 211 198 164 211 222 196 220 216 211 213 212 209 209 213 205 201 208 211 213 213 208 209 214 215 209 204 199 201 203 201 205 204 205 204 204 200 209 195 197 198 206 206 209 218
223 224 222 222 213 211 198 198 200 175 219 220 191 187 212 215 216 215 214 212 211 209 215 214 211 211 213 215 214 213 212 206 200 200 205 205 212 208 207 202 215 231 203 197 206 213 201 198 209
234 223 226 222 219 205 219 205 209 139 144 217 214 216 218 213 211 213 213 209 209 215 211 217 210 206 203 204 204 205 206 208 208 209 209 208 205 210 217 233 230 220 219 220 208 207 213 215 213
238 243 232 221 219 207 205 217 197 213 203 211 214 205 203 212 193 198 196 200 129 204 203 207 204 204 207 208 210 210 213 219 214 213 212 215 217 239 234 238 239 242 232 235 222 217 212 210 210
250 248 246 249 234 238 221 217 222 217 211 186 211 214 213 216 214 213 211 210 214 220 219 220 221 220 220 222 219 220 217 229 247 251 246 239 238 238 234 229 215 218 220 221 226 221 218 208 207
257 255 256 245 247 251 238 251 253 240 236 235 239 236 238 235 237 185 235 233 237 232 176 231 246 202 248 253 255 255 194 248 232 262 257 213 255 247 239 236 235 233 229 229 220 215 211 210 210
255 256 261 250 246 243 245 249 253 252 251 251 205 255 249 266 260 238 258 159 258 257 255 254 255 203 259 261 257 291 287 295 167 290 235 274 271 273 266 255 246 239 237 237 230 226 220 214 208
247 245 249 253 247 246 253 251 255 256 257 252 251 250 253 250 247 250 249 246 241 275 283 108 273 188 296 295 297 295 284 271 221 266 259 144 104 243 134 259 153 255 249 246 243 233 228 222 220

GFSSGP_2pvu_pres_045.txt.gz
Presure
140 147 144 84 99 99 129 148 140 133 138 128 138 147 133 125 136 141 133 119 152 114 106 141 123 135 145 144 139 129 94 138 142 143 141 141 143 133 146 131 123 158 149 128 122 135 144 152 133
134 142 127 138 88 95 135 136 145 133 98 141 129 133 123 137 137 116 133 141 143 124 119 141 118 132 135 110 133 128 135 142 144 116 129 131 130 133 133 134 136 134 142 128 142 137 136 126 132
142 138 149 139 126 142 105 101 140 143 143 140 128 109 121 136 124 142 143 137 151 134 147 132 118 137 138 134 124 117 141 132 132 134 131 133 130 131 132 137 138 142 134 143 113 140 134 140 125
152 151 141 145 139 129 147 95 92 140 144 130 132 137 135 132 115 109 140 123 136 141 133 150 148 135 138 146 143 126 135 122 123 123 134 136 136 133 132 133 126 111 139 132 139 133 128 133 151
151 136 158 143 145 149 148 117 139 134 123 141 127 141 146 126 139 126 86 137 138 147 137 144 131 128 148 132 142 152 153 142 123 124 143 146 140 135 130 118 132 118 125 138 136 145 132 145 162
160 150 146 146 139 141 108 138 136 110 142 94 90 137 137 140 133 129 139 125 138 133 131 131 131 133 123 142 141 140 136 143 144 144 130 121 118 121 134 150 147 140 140 102 142 140 147 141 150
153 153 140 141 85 149 151 144 147 135 139 147 140 140 137 144 138 136 143 145 145 128 132 136 141 141 123 142 138 122 127 155 131 111 129 131 124 123 125 142 126 131 154 149 138 143 144 154 154
168 158 151 143 152 145 143 149 136 148 139 134 139 130 139 103 131 105 106 145 145 143 132 142 138 118 147 133 134 133 133 131 133 143 133 133 134 136 142 121 164 146 151 156 153 146 136 149 153
177 166 153 143 147 150 149 142 152 144 138 139 78 122 138 146 138 121 140 139 136 139 149 88 128 137 147 136 138 136 139 102 141 141 133 140 147 144 150 116 171 164 117 139 153 124 171 173 158
184 174 150 159 154 155 153 147 143 145 143 143 114 135 125 111 135 142 141 140 101 145 147 144 145 137 141 145 149 143 130 120 142 144 151 149 149 151 166 175 163 167 169 154 153 161 169 182 181
188 175 166 150 162 169 160 151 143 143 147 144 143 147 143 140 97 144 142 133 91 95 99 98 155 111 160 130 147 152 98 97 147 146 102 161 126 151 181 113 133 164 171 169 174 170 173 178 183
132 181 178 173 163 168 172 168 158 149 146 145 147 143 141 144 142 150 135 143 132 145 109 102 98 142 98 142 143 144 154 144 149 127 180 84 178 89 178 101 167 167 177 172 158 165 171 175 169
176 138 176 175 180 175 174 172 125 159 164 155 152 149 145 143 143 145 145 141 142 146 143 143 151 160 147 154 150 140 154 164 160 156 181 160 189 182 146 181 169 181 185 178 183 177 164 173 178
164 168 134 177 177 176 178 92 171 117 172 167 164 159 152 147 158 149 155 160 151 154 151 150 150 150 156 157 151 157 162 161 162 178 184 178 180 180 187 184 184 184 181 125 182 184 179 178 179
195 176 160 152 138 178 180 174 145 93 170 158 165 164 167 164 78 162 157 155 157 159 160 161 163 160 158 155 163 167 163 158 84 187 177 182 173 180 179 177 178 176 171 168 165 173 181 174 177
202 180 179 171 164 142 177 180 179 180 177 173 171 170 167 169 168 147 167 165 165 166 167 166 163 162 163 166 161 149 182 190 184 182 176 180 174 174 169 162 159 159 157 164 187 212 203 218 205
212 201 183 179 170 165 184 170 175 184 175 174 173 166 174 176 177 173 175 176 174 172 172 173 168 190 192 189 185 188 184 175 176 177 176 176 160 157 156 166 177 177 181 198 209 210 204 201 203
184 208 186 180 189 171 140 156 177 177 187 184 170 169 170 175 172 169 170 179 181 143 176 177 181 171 191 190 186 179 171 175 177 176 171 174 172 180 176 174 182 190 199 215 84 90 202 198 180
195 179 223 201 165 191 193 186 142 148 162 179 189 180 170 170 172 171 172 169 167 167 169 173 174 174 181 180 174 170 170 173 174 175 172 174 173 174 181 193 195 207 205 207 200 205 200 203 195
224 227 189 186 203 206 182 167 185 189 180 177 177 164 167 174 172 174 175 178 181 177 176 166 167 172 176 180 182 178 177 175 176 178 173 178 188 197 190 202 211 204 209 202 205 197 207 202 207
222 220 208 221 188 179 195 198 152 158 158 168 184 183 182 182 181 180 182 183 186 185 185 179 173 175 173 175 181 179 180 181 183 185 203 201 209 208 209 212 207 209 200 202 197 197 198 203 200
227 223 226 198 197 207 183 169 163 209 207 209 186 158 157 185 177 184 183 192 207 211 198 184 179 178 180 181 181 184 185 198 204 202 201 209 211 208 206 209 207 204 202 204 204 204 204 200 197
224 225 223 218 197 192 220 187 182 182 193 165 216 232 229 200 198 198 214 221 220 217 211 216 214 215 213 200 206 205 212 203 204 209 212 214 211 205 213 211 200 194 198 196 198 208 203 198 199
227 221 214 215 214 213 194 174 183 194 182 190 226 214 184 169 172 225 222 222 199 194 219 222 216 220 216 212 211 214 214 213 206 209 208 205 205 206 203 204 204 209 206 201 209 196 196 205 219
263 224 219 217 216 209 209 210 208 193 195 162 185 175 189 197 190 225 226 229 229 228 225 218 201 209 213 214 212 214 213 207 206 205 206 207 211 207 206 208 208 209 211 200 198 228 217 249 219
268 254 238 223 222 229 224 218 218 208 223 206 186 187 194 218 195 200 201 217 213 223 222 218 218 220 218 208 199 196 201 157 211 212 213 211 213 212 214 209 213 195 210 212 240 219 219 222 232
265 264 257 241 225 221 220 224 227 225 224 220 215 217 214 211 212 213 211 214 215 208 212 217 214 210 209 215 217 155 222 223 216 221 221 221 219 217 221 221 223 217 218 236 231 223 239 235 231
273 267 259 262 242 230 226 225 217 223 223 227 224 225 222 198 206 218 219 222 205 218 218 221 223 224 227 229 226 228 236 231 198 241 177 243 234 220 112 246 243 229 233 237 235 236 233 234 233
273 266 264 257 251 256 239 235 229 224 218 219 221 221 127 222 223 219 227 229 227 238 261 271 176 265 266 267 271 274 276 277 277 274 272 269 242 262 256 248 214 143 239 244 248 247 244 242 240
269 264 255 259 260 257 257 263 258 242 240 240 239 261 220 259 257 257 253 255 263 265 113 264 291 319 316 313 112 101 266 296 287 294 304 310 313 285 267 264 283 290 252 263 256 258 238 252 254

GFSSGP_2pvu_pres_048.txt.gz
Presure
151 136 138 71 81 125 122 142 145 82 80 145 124 115 101 132 149 142 124 111 119 112 103 119 119 142 104 118 141 129 147 90 154 153 154 147 156 158 145 147 151 148 144 143 150 136 139 134 139
141 144 143 144 122 83 132 134 120 141 86 90 126 130 140 137 140 122 140 148 144 117 134 109 112 112 122 123 123 129 149 133 129 138 145 148 149 131 149 146 141 127 133 140 139 119 124 133 132
153 151 135 132 141 135 82 149 143 123 134 146 145 98 137 142 135 143 145 129 150 142 141 147 128 130 135 134 145 129 128 130 134 132 145 143 127 129 130 139 140 140 129 127 118 118 142 136 124
137 151 149 145 153 129 144 83 132 139 148 143 122 86 135 137 133 146 134 116 131 141 134 142 152 107 129 153 136 128 121 130 126 133 149 125 133 128 125 123 142 121 114 130 131 139 132 134 136
148 148 154 147 139 148 146 132 90 124 132 130 139 132 139 109 126 122 136 145 135 130 145 147 121 127 115 113 125 111 136 133 149 144 123 134 131 118 129 147 123 127 121 147 142 113 147 149 157
168 144 150 143 148 144 129 135 120 116 128 142 141 141 133 134 149 105 133 123 126 144 133 137 144 137 144 142 133 136 142 135 134 141 139 138 146 142 136 130 139 125 145 120 147 141 156 151 159
160 164 154 142 145 151 147 129 142 132 102 92 99 135 135 128 146 132 125 128 138 143 126 130 142 125 136 121 133 133 137 134 118 138 141 128 134 139 123 131 147 126 140 141 139 142 145 173 169
166 164 148 161 151 145 152 138 154 141 125 96 130 105 90 91 129 140 137 129 129 140 133 92 136 122 133 93 129 116 93 141 120 132 149 134 132 128 142 142 142 134 140 142 153 173 107 169 124
171 162 155 153 154 148 148 146 146 149 115 111 143 136 98 129 129 138 136 68 135 143 141 140 138 149 141 136 134 135 134 136 138 140 132 137 138 132 130 133 143 148 144 153 154 156 145 130 131
176 170 155 153 158 155 143 143 149 149 147 147 98 156 136 139 134 94 142 135 141 139 148 130 135 137 139 117 137 147 147 136 131 141 143 144 149 141 114 149 151 147 149 176 180 170 184 169 165
140 165 167 166 157 166 154 159 148 139 147 145 145 139 73 146 136 90 80 132 140 136 138 139 105 143 139 141 145 142 147 147 148 145 131 128 95 146 152 96 140 163 109 182 131 191 184 185 177
180 175 166 169 169 160 163 151 160 149 144 146 144 144 145 152 146 146 147 131 86 114 138 136 141 149 144 150 139 133 106 134 138 145 104 144 149 134 146 148 155 165 166 190 182 184 182 176 173
176 185 144 172 170 174 160 157 149 150 152 144 150 143 144 148 151 150 152 142 96 146 145 142 140 139 141 148 141 148 146 145 146 154 141 162 151 145 150 158 169 160 184 187 186 183 182 182 180
178 184 166 133 187 144 174 161 126 158 151 145 142 143 147 146 147 146 147 146 149 148 146 149 149 141 146 144 146 139 142 154 147 119 150 152 156 130 155 169 164 190 188 184 182 173 179 174 167
191 189 187 144 130 187 175 92 153 163 159 150 148 146 144 146 143 148 151 150 151 147 144 143 142 144 142 147 152 156 153 157 155 152 161 160 161 163 168 167 183 105 174 179 179 183 169 158 152
203 163 192 187 155 144 182 176 169 170 151 82 61 159 157 158 159 155 155 155 154 115 146 143 144 143 150 155 159 153 153 154 161 164 169 172 190 195 192 192 183 177 176 178 171 153 168 178 179
206 189 184 190 185 174 169 182 179 179 173 167 163 153 163 165 162 164 163 162 166 164 163 162 161 163 164 165 164 164 168 171 173 174 183 184 188 191 190 187 174 177 176 177 175 174 171 189 210
201 201 185 184 185 180 181 177 166 149 184 182 179 174 173 171 172 172 174 174 170 168 170 172 177 178 179 175 148 174 179 186 183 177 178 178 179 180 179 174 177 178 176 183 182 189 205 210 188
197 212 199 190 185 194 187 172 154 180 187 183 177 179 175 176 176 175 176 177 174 179 180 67 172 171 164 171 169 175 172 170 167 170 165 165 176 177 182 174 185 173 181 185 203 199 208 209 205
220 201 196 204 194 185 184 189 177 173 155 169 170 176 175 172 184 179 174 172 172 174 172 175 174 177 181 173 174 175 180 179 186 186 178 181 177 185 184 178 181 183 189 212 195 203 213 206 203
216 225 210 209 196 195 184 186 157 189 179 185 141 155 170 175 175 171 173 172 181 189 188 160 176 173 174 172 181 182 186 190 189 202 204 198 185 181 184 186 189 203 208 206 212 208 204 205 206
224 216 221 216 200 209 197 182 190 194 155 185 184 177 142 142 167 171 177 167 168 169 174 178 173 173 182 180 181 183 184 194 214 215 207 207 214 212 213 212 205 209 209 203 199 202 201 201 197
250 223 214 216 224 202 213 204 182 187 187 194 155 190 185 189 187 187 184 184 185 187 183 180 176 168 156 186 187 196 205 222 221 213 205 215 216 217 211 205 212 211 203 203 204 195 199 206 207
230 251 243 220 218 228 205 201 193 189 151 202 192 152 153 166 171 190 194 196 195 196 175 219 215 198 208 206 228 228 224 222 216 210 220 216 212 208 208 207 211 208 206 203 201 196 202 200 205
271 229 253 248 239 227 229 227 194 196 189 183 210 214 179 188 170 197 183 197 199 195 223 234 232 230 227 186 204 230 228 225 223 222 216 210 207 212 213 209 204 198 190 209 204 205 203 204 201
283 254 240 230 255 238 229 222 235 226 216 229 219 214 204 205 205 186 187 188 193 189 184 225 218 217 229 204 194 210 213 205 207 208 211 209 207 210 206 208 212 212 209 207 204 200 209 212 207
290 269 254 223 227 245 238 227 228 228 217 218 218 189 183 188 194 197 178 180 189 192 192 188 191 216 216 221 229 225 224 223 221 219 220 221 219 221 221 222 171 221 214 218 216 215 211 211 211
290 282 276 252 251 218 235 231 221 230 236 229 223 220 215 215 184 205 228 221 216 231 223 219 226 217 204 216 222 225 229 234 237 238 236 241 250 252 252 188 165 181 182 196 235 236 132 236 235
265 259 277 282 256 227 253 233 227 224 218 215 218 217 219 222 227 226 220 231 232 227 224 226 225 225 235 245 272 165 289 286 285 293 310 311 302 277 269 265 260 255 251 250 246 242 241 239 237
301 285 289 272 270 269 239 251 229 219 216 217 215 215 219 223 201 221 226 224 223 216 221 230 239 264 303 293 279 277 281 302 304 302 302 297 296 295 297 303 306 261 248 243 240 238 236 237 237

GFSSGP_2pvu_pres_051.txt.gz
Presure
136 153 113 141 156 94 149 101 143 133 88 142 137 148 128 143 131 135 138 97 149 138 115 109 105 116 162 126 125 144 118 127 166 174 174 148 143 144 158 159 160 133 144 158 131 149 132 144 130
140 135 152 135 141 87 138 77 98 129 132 137 148 134 141 136 133 134 142 98 119 97 131 141 150 107 116 122 124 109 124 125 122 112 132 122 113 139 151 119 151 137 125 148 139 135 125 126 119
152 161 140 154 122 139 149 93 82 146 134 131 145 142 122 143 139 130 138 135 155 149 140 145 141 119 112 107 118 124 134 134 126 140 141 134 114 138 101 122 145 125 141 140 141 139 134 123 143
141 144 153 152 140 143 100 93 83 84 118 120 120 108 90 138 149 136 138 140 126 139 126 127 148 144 143 140 147 129 128 133 134 123 117 128 132 134 158 158 158 139 145 138 144 147 150 113 139
158 164 155 138 149 141 148 114 145 115 134 111 147 124 91 98 132 145 144 89 140 141 118 142 149 125 149 124 138 117 125 135 120 140 145 143 121 126 137 151 149 151 155 121 140 144 141 117 122
172 155 150 149 144 144 153 135 139 142 129 144 145 140 133 124 138 126 138 134 136 133 138 144 120 136 132 144 140 133 142 141 138 136 138 140 150 139 126 142 146 137 141 137 122 140 130 130 135
174 170 142 134 137 156 149 143 137 144 138 138 102 139 135 142 128 145 140 131 127 123 141 142 124 122 127 120 136 133 126 143 140 133 131 127 141 140 140 136 140 144 116 131 134 128 130 141 144
165 179 158 166 155 133 151 60 150 139 131 119 131 131 111 142 148 126 100 78 88 111 86 139 131 133 139 149 141 112 88 143 98 119 141 130 133 138 137 142 142 135 140 142 143 143 127 120 131
155 167 165 150 164 157 138 145 148 146 141 139 133 114 122 78 108 128 132 125 123 135 143 84 122 131 123 135 138 144 139 144 129 128 134 140 141 125 141 133 140 141 143 141 115 151 155 143 144
169 178 164 160 166 156 152 142 150 148 143 147 139 136 121 132 111 111 90 110 131 139 123 140 144 138 136 134 147 134 132 135 130 143 121 148 123 142 146 143 144 126 95 145 157 142 142 150 145
171 173 169 175 161 169 150 151 137 151 140 148 149 144 140 138 131 133 101 153 134 138 142 126 148 135 136 134 143 138 142 137 141 143 147 137 148 138 148 146 133 102 135 143 158 147 147 156 152
180 176 179 168 176 166 166 149 150 155 113 151 134 146 140 143 145 142 139 152 96 89 84 132 131 147 142 135 136 136 90 140 95 143 151 145 142 136 152 147 140 145 150 116 153 150 157 152 169
162 183 185 141 138 176 171 165 150 146 150 143 148 142 145 143 142 144 146 138 140 120 106 104 138 85 118 144 145 141 138 139 139 134 148 150 142 152 142 136 148 152 151 151 159 165 161 194 190
208 169 176 173 178 135 178 150 170 155 155 149 143 145 147 144 148 145 147 148 150 146 138 142 139 121 141 143 141 144 146 144 149 150 78 143 144 149 152 157 158 166 158 151 168 178 195 195 196
194 201 184 173 184 59 176 177 161 155 168 159 151 143 142 143 146 145 144 148 147 139 141 139 140 143 145 141 149 144 82 156 150 142 150 153 150 108 158 156 158 161 161 177 188 180 183 183 180
200 197 169 175 179 180 179 127 168 172 109 157 150 151 151 151 157 155 151 145 145 144 141 142 143 143 143 145 146 151 152 149 110 154 158 154 153 148 163 165 162 181 193 183 172 178 174 173 172
204 188 206 193 177 190 175 181 151 180 173 165 155 103 78 156 154 159 154 152 151 150 150 149 151 151 149 152 151 152 155 157 156 161 162 164 168 176 178 182 183 178 170 169 176 176 172 174 190
206 196 179 204 190 183 192 175 152 166 147 180 174 164 161 158 152 158 152 150 150 150 150 150 151 152 156 157 158 155 164 168 170 169 176 180 178 179 172 178 178 179 176 181 185 206 206 196 189
216 208 192 168 197 184 184 184 186 180 165 176 172 170 169 163 158 158 160 158 159 157 157 160 160 64 167 166 163 169 176 174 172 178 170 174 178 186 180 178 180 182 189 191 216 207 206 212 205
229 202 201 208 207 196 181 187 187 189 186 171 152 132 172 172 170 168 163 162 162 163 166 166 162 169 171 171 158 172 175 183 187 180 177 172 176 184 178 176 183 181 192 213 222 220 204 204 205
231 221 211 216 202 206 191 188 186 178 186 132 180 188 187 177 171 169 165 165 167 171 171 171 175 180 182 180 182 185 178 180 183 190 190 183 182 180 186 188 180 197 228 221 220 195 211 211 211
232 226 214 218 206 213 205 190 193 178 191 177 186 186 180 184 183 178 171 172 173 172 177 179 174 175 172 177 183 179 178 181 182 185 159 195 195 168 196 209 223 224 227 224 220 223 213 209 204
254 223 208 219 218 218 208 206 179 190 180 185 193 180 187 188 185 149 136 143 146 179 179 146 145 147 180 177 178 183 158 152 172 150 202 215 244 238 241 232 186 233 226 223 224 220 209 211 208
304 246 222 208 215 214 221 210 196 114 166 190 183 186 195 195 176 186 185 171 170 171 177 180 178 176 178 172 155 163 191 195 189 210 210 208 194 204 202 206 216 210 215 211 204 211 210 203 199
307 283 243 224 220 211 214 224 211 199 155 191 189 189 185 184 184 182 168 191 170 178 167 157 180 188 158 192 198 196 184 195 208 180 184 187 204 200 203 205 220 222 222 222 220 209 208 208 204
318 293 267 239 219 224 221 217 215 219 192 196 194 195 193 191 190 186 171 185 184 189 189 148 179 169 153 177 172 180 229 166 171 162 185 187 193 218 220 209 220 220 222 224 225 222 216 212 211
306 309 279 282 251 245 226 226 222 219 223 200 197 198 200 195 195 195 183 186 182 177 182 187 196 200 187 194 211 163 173 184 191 191 228 227 229 231 233 234 238 249 251 234 159 218 235 168 222
304 293 303 279 263 245 249 250 232 220 218 214 218 212 198 193 191 194 203 206 199 193 192 192 209 229 217 209 186 192 234 232 225 228 225 237 271 298 301 305 294 275 273 278 267 270 261 260 252
320 291 290 284 280 260 249 255 253 247 223 218 218 217 216 216 220 226 228 216 192 221 211 220 220 219 209 178 228 233 235 235 234 245 291 279 269 290 280 288 285 284 293 297 295 258 261 261 250
290 302 306 281 258 259 252 250 227 231 247 246 246 229 232 249 247 252 253 248 248 245 244 236 222 158 229 229 236 235 238 241 286 290 268 264 278 371 386 373 362 355 354 371 306 269 296 264 250

GFSSGP_2pvu_pres_054.txt.gz
Presure
150 154 130 91 88 92 77 165 83 83 92 151 145 146 143 152 132 143 149 134 134 153 111 149 110 103 136 121 109 117 117 127 121 120 158 134 125 124 132 96 92 127 140 158 157 152 115 156 118
150 159 148 132 93 86 84 99 189 118 82 92 144 106 145 138 138 130 129 122 124 135 137 120 123 150 110 104 134 137 139 137 106 122 122 144 171 169 142 102 160 132 161 144 147 148 132 144 142
161 147 160 149 138 105 118 151 126 133 81 132 151 136 143 146 132 139 123 138 140 113 128 133 153 99 144 142 105 123 135 117 126 130 138 142 121 98 107 103 142 109 104 131 139 134 140 133 132
176 161 154 151 145 137 148 87 142 72 83 83 124 110 139 77 144 133 134 140 133 137 139 140 143 106 142 146 133 120 112 146 147 119 134 141 143 140 146 134 139 143 138 122 126 151 134 137 156
171 157 157 153 158 152 147 149 172 137 112 101 104 123 133 143 141 83 146 132 142 141 134 143 147 139 142 143 145 143 134 127 146 128 132 144 138 151 120 151 131 131 135 127 139 116 127 135 125
171 173 161 144 140 151 132 150 119 151 155 136 83 138 150 131 132 131 131 141 115 120 128 133 129 141 137 149 135 123 121 135 133 130 130 137 140 129 129 129 117 101 133 134 132 140 143 128 141
183 176 161 146 155 151 156 136 148 150 145 139 144 103 132 97 144 130 101 139 142 140 147 143 148 137 139 134 145 127 127 121 133 130 107 144 144 147 144 150 131 125 129 141 135 128 143 140 141
180 171 172 158 154 140 65 149 135 152 148 154 129 147 127 130 149 145 149 126 128 141 128 81 131 138 145 128 115 135 134 100 135 150 145 148 135 100 124 135 135 137 135 128 144 147 148 147 100
176 182 170 164 163 146 149 121 153 155 144 138 142 125 141 133 128 139 148 136 146 112 122 78 149 144 135 140 128 128 129 132 132 133 138 135 129 102 132 135 134 152 133 136 136 142 141 132 127
187 168 184 161 159 157 152 155 149 146 148 142 146 144 132 131 112 88 148 98 125 129 129 100 128 113 132 134 142 134 132 137 134 136 138 95 144 120 151 129 141 143 152 154 137 131 111 116 93
161 176 171 158 177 168 155 146 151 150 146 162 147 150 141 136 143 129 92 96 138 134 132 134 144 130 128 128 135 140 137 138 135 134 137 138 139 145 141 142 146 149 140 152 139 140 142 143 153
198 180 170 186 156 168 166 145 149 156 158 141 136 154 143 142 141 124 120 123 126 109 125 127 139 136 134 141 134 129 128 122 88 147 151 86 149 145 140 97 132 152 152 141 142 153 151 150 159
202 188 182 179 182 140 179 167 150 148 156 158 139 138 146 145 151 145 139 136 130 132 131 130 119 113 100 157 141 156 148 110 144 143 136 136 143 143 140 152 147 152 143 145 152 153 152 155 115
193 199 192 186 172 185 171 169 165 157 148 145 148 143 143 144 148 145 143 144 144 120 136 135 137 144 152 143 131 138 139 139 141 85 145 145 149 150 144 145 144 151 153 154 158 157 160 161 174
208 209 200 184 169 90 187 172 171 159 158 146 154 155 145 141 145 151 147 143 129 137 142 147 145 141 142 143 143 148 147 146 142 142 145 148 150 151 151 154 153 158 160 163 163 168 175 181 179
219 194 205 186 184 180 132 180 179 179 160 167 156 151 147 147 153 147 149 144 147 142 140 144 147 146 144 142 137 144 142 143 144 145 147 102 151 153 152 160 160 164 157 169 174 179 178 171 195
242 209 195 166 126 187 186 175 187 156 176 158 62 159 153 146 144 145 155 154 152 149 143 141 142 150 145 145 148 149 145 151 154 153 152 153 155 130 164 162 165 168 176 173 183 175 174 193 181
245 213 190 193 166 179 162 173 179 187 177 174 167 162 162 150 152 151 154 158 147 144 150 150 153 152 151 153 154 152 153 153 153 156 155 163 163 162 169 172 178 177 184 178 186 176 180 176 178
240 218 202 193 197 178 193 184 189 184 189 183 124 132 164 161 164 164 153 149 151 152 150 151 151 152 149 150 153 153 155 149 154 164 164 154 169 170 177 174 186 190 173 168 181 176 198 197 235
240 236 240 199 186 191 195 192 186 187 186 192 181 178 137 142 168 163 161 164 169 164 155 153 153 153 152 152 153 163 162 166 166 160 170 171 175 176 185 179 179 183 182 189 195 200 219 239 220
246 244 228 205 198 194 186 198 194 184 184 188 183 185 180 176 178 170 169 167 147 159 160 160 161 161 162 161 162 162 165 164 165 174 172 180 190 189 185 183 183 180 193 196 194 150 198 216 201
298 229 246 235 204 202 202 184 188 195 189 169 183 188 184 183 136 163 164 179 176 174 173 170 170 170 169 170 170 170 169 172 175 180 184 159 167 182 189 161 154 150 164 208 183 194 194 193 191
372 275 233 237 229 216 201 184 184 182 194 187 188 179 179 188 180 175 173 172 167 154 164 170 172 170 172 175 179 181 180 175 143 141 188 186 193 156 189 156 204 178 192 194 182 183 195 209 196
359 354 262 228 238 234 229 204 191 190 184 192 193 190 172 173 177 186 186 180 178 174 176 178 169 157 159 143 141 190 142 144 174 181 163 157 186 179 183 175 189 213 173 215 217 217 237 233 229
343 372 274 259 234 230 229 230 204 200 188 186 199 194 194 187 184 179 175 178 184 180 156 168 170 178 183 173 186 182 187 173 176 190 189 199 163 200 187 201 225 223 204 224 227 234 240 243 245
323 343 347 261 268 235 232 226 221 202 202 194 186 191 197 195 188 187 187 182 172 170 173 179 187 191 190 184 186 172 178 167 152 183 174 184 183 185 200 229 197 225 232 237 242 259 267 290 286
336 340 349 323 253 255 240 229 232 225 215 201 201 213 190 191 195 192 183 182 184 182 185 186 185 183 176 181 174 185 187 184 177 193 185 183 190 218 246 198 231 227 245 264 289 299 290 294 304
313 320 336 342 312 252 277 257 236 225 227 218 206 205 213 212 197 193 195 191 171 180 178 182 186 188 182 186 168 189 192 197 197 193 185 199 225 240 215 229 236 264 272 195 284 280 262 254 280
323 314 312 323 314 302 279 264 250 228 223 227 226 209 217 213 202 213 208 199 197 194 186 188 192 191 194 194 187 188 191 187 235 235 236 238 243 220 235 238 268 276 272 275 251 251 399 365 349
314 299 297 303 309 291 293 267 256 249 235 222 218 215 212 207 208 209 206 209 213 211 208 190 172 195 198 200 227 216 257 252 249 237 236 239 232 228 277 274 268 258 254 252 236 351 379 368 348

GFSSGP_2pvu_pres_057.txt.gz
Presure
159 160 96 90 102 82 81 145 102 84 149 145 144 144 155 135 115 148 139 117 116 132 151 178 132 128 115 118 152 110 165 161 167 140 149 122 125 133 127 149 145 124 96 122 130 148 120 160 141
173 147 161 135 119 89 91 82 71 140 153 102 113 152 141 123 135 144 143 140 120 141 140 146 102 127 152 169 109 133 121 109 140 129 151 110 120 128 150 159 128 116 102 129 134 152 132 133 129
174 160 156 166 143 146 107 91 86 132 91 153 84 166 109 154 119 146 143 135 137 132 133 136 135 128 100 140 131 147 103 105 142 132 144 145 128 139 125 158 152 119 105 136 135 123 144 147 134
180 167 156 149 157 158 160 103 126 84 80 73 73 87 136 150 141 151 139 141 134 139 143 139 139 118 152 122 151 104 111 144 129 145 156 157 158 129 133 145 143 139 127 141 122 128 132 141 124
163 145 167 145 156 160 160 128 97 136 75 84 165 149 119 146 145 143 145 147 131 106 139 107 133 124 134 140 132 141 113 125 103 147 133 117 142 134 133 111 144 147 144 131 113 121 129 134 135
168 185 170 157 151 159 159 149 125 96 129 167 148 104 154 146 112 147 135 82 145 140 136 144 137 115 146 128 139 139 132 150 144 136 124 138 131 122 120 143 133 128 125 132 127 124 115 135 130
178 190 154 164 156 164 153 158 135 136 149 161 142 161 82 82 122 146 137 96 143 139 142 136 132 144 131 126 135 149 148 121 139 136 127 124 139 146 127 148 140 136 132 127 133 134 136 137 135
192 154 175 152 173 168 157 159 151 151 137 154 128 154 132 149 83 146 122 147 134 77 89 158 145 125 137 149 106 135 118 136 129 124 135 130 117 128 131 124 133 142 140 102 140 110 137 132 155
188 158 150 178 175 167 104 156 141 151 158 140 157 140 154 134 152 82 132 143 146 146 140 132 82 131 135 145 141 92 144 146 144 137 111 137 133 141 137 134 133 130 129 136 135 138 140 143 131
193 197 183 180 143 169 165 157 155 141 149 153 137 169 162 150 146 107 113 122 131 132 150 144 121 122 133 137 142 138 137 128 141 141 130 141 141 139 135 98 136 136 140 131 110 148 141 146 138
183 141 186 168 181 177 170 148 160 130 111 156 143 153 144 157 149 157 129 120 120 124 92 138 135 139 125 135 135 128 128 126 127 126 143 139 132 90 131 135 117 143 140 140 91 140 147 136 142
194 191 192 181 184 176 180 159 83 151 144 160 153 149 159 146 152 151 129 134 141 150 91 78 132 141 133 144 129 118 121 137 134 138 131 133 146 131 137 138 146 141 150 140 149 145 151 152 151
204 180 169 190 181 188 179 173 159 150 150 156 154 139 146 149 158 150 145 144 148 122 134 111 117 119 128 129 114 130 133 104 132 92 131 144 151 143 141 142 139 142 143 145 132 121 151 152 159
205 197 163 155 164 192 185 171 168 158 161 159 150 145 142 146 145 145 148 150 147 144 137 136 138 134 129 121 113 131 78 139 141 142 120 132 139 144 144 145 146 143 153 125 152 152 158 162 152
164 206 213 164 195 178 186 177 149 167 145 154 148 151 154 153 146 150 142 141 143 145 147 149 149 145 143 144 146 139 144 153 150 140 142 139 136 138 144 147 143 154 153 156 161 159 167 165 161
220 214 208 158 179 190 179 159 177 180 169 144 153 138 146 152 152 153 149 147 152 146 140 143 147 151 143 141 137 141 141 143 144 141 141 147 151 155 151 152 152 152 153 161 163 166 164 157 170
248 214 213 212 134 174 187 182 172 179 170 168 157 140 148 153 145 149 153 151 152 143 141 143 143 144 147 147 145 145 143 142 139 144 151 150 152 151 154 158 159 155 161 167 160 170 168 172 183
238 239 225 220 206 168 189 186 186 181 192 114 109 163 156 160 159 148 150 150 150 145 144 143 143 148 147 145 149 148 150 151 153 153 152 155 152 159 156 162 162 165 165 169 170 172 177 188 189
240 238 241 219 203 208 187 156 67 67 126 178 181 176 163 161 159 138 153 154 150 150 152 151 148 148 150 151 151 151 153 156 152 96 69 156 155 161 161 158 163 172 174 171 183 177 190 189 152
245 241 240 248 227 199 191 192 191 183 173 183 177 185 176 170 162 126 156 149 149 150 154 153 151 150 151 148 152 152 154 153 152 154 162 161 160 159 163 165 157 170 181 182 171 185 187 192 184
230 240 236 244 233 227 197 199 197 186 184 172 188 175 187 172 166 120 127 161 165 165 162 159 158 158 157 157 160 162 160 159 161 164 167 168 170 153 167 173 180 181 162 152 170 192 170 190 151
249 246 248 238 243 211 224 188 201 199 192 185 158 167 179 175 172 173 171 163 134 133 131 161 161 161 161 159 160 161 160 134 165 164 163 169 176 181 183 182 151 144 165 184 193 164 154 159 177
249 252 250 243 244 247 214 209 184 192 194 186 189 168 170 184 178 175 179 178 176 174 175 175 171 173 174 173 173 174 172 169 170 169 173 181 181 143 145 180 195 191 166 189 181 178 200 203 210
311 268 264 239 243 246 244 228 234 189 196 182 190 192 170 163 183 186 179 180 181 180 150 144 143 154 155 156 166 181 179 168 158 186 146 155 167 177 176 190 194 191 161 190 193 198 201 213 206
314 317 296 320 250 240 247 248 232 197 191 177 192 192 186 186 176 171 180 174 176 181 187 187 181 181 181 180 183 182 179 182 144 174 186 185 161 152 182 162 186 188 191 201 208 190 236 235 245
274 292 318 341 317 336 234 241 236 228 213 189 186 197 182 177 180 186 188 186 174 170 170 167 163 166 167 169 170 172 172 169 171 175 174 177 187 187 184 189 178 195 198 208 192 236 249 245 243
267 290 273 301 373 357 357 260 241 235 220 223 191 192 202 192 186 178 178 177 186 186 185 183 183 184 182 177 172 171 178 179 176 181 185 189 182 187 169 183 199 195 208 249 241 121 238 259 288
312 270 336 290 358 364 345 341 264 250 241 220 216 236 197 196 190 190 187 185 185 183 182 187 188 187 187 187 186 184 181 178 179 179 171 181 183 195 188 189 199 255 248 232 227 242 284 265 274
322 322 334 321 341 345 341 331 298 252 245 235 238 212 231 223 204 197 182 187 183 174 167 174 176 182 183 184 185 189 189 189 191 191 192 195 185 188 203 216 242 246 229 237 257 258 273 267 288
310 310 296 308 317 335 336 318 310 299 275 244 235 226 229 230 230 229 228 199 193 193 192 192 199 198 194 190 190 187 183 197 200 195 205 200 207 224 252 241 240 238 242 270 263 266 264 251 252

GFSSGP_2pvu_pres_060.txt.gz
Presure
184 175 140 79 81 76 76 156 87 137 82 144 142 118 141 134 116 140 124 128 144 128 99 109 113 136 98 101 118 130 101 113 174 176 141 151 121 134 126 127 126 130 157 131 138 158 148 163 109
188 167 165 150 89 92 75 78 145 112 80 155 121 147 132 97 124 120 142 129 113 130 127 104 148 115 150 137 101 100 119 105 104 118 151 156 132 148 136 133 152 137 142 145 140 113 97 135 121
125 173 179 166 143 145 83 85 83 156 114 80 136 131 145 77 120 133 126 125 110 128 133 138 149 169 141 110 136 147 138 138 118 125 106 129 115 146 144 113 138 129 145 118 151 128 126 127 121
131 130 170 158 161 154 140 90 90 147 155 119 154 154 157 137 151 151 147 129 128 148 148 124 139 132 129 129 133 133 109 106 127 118 105 131 131 157 114 156 162 129 132 137 142 135 122 131 140
176 188 143 166 154 168 155 161 89 89 94 73 71 123 80 76 129 109 115 150 159 143 143 131 134 135 155 136 129 118 144 139 110 108 110 145 103 133 134 127 139 141 144 128 145 135 138 140 129
204 181 178 149 168 157 161 148 163 140 92 73 74 74 121 128 151 160 119 83 154 113 139 141 134 136 89 138 127 119 118 102 139 144 142 148 152 130 132 131 138 131 131 126 135 142 116 132 141
209 175 182 176 183 163 173 146 163 160 157 101 89 87 88 167 151 137 84 148 149 145 143 139 148 127 134 140 121 114 102 120 136 145 99 136 134 142 135 109 131 131 139 129 140 131 134 134 134
210 195 186 165 186 171 175 159 147 163 154 117 98 95 115 158 147 103 132 159 145 149 145 140 143 141 141 142 133 140 139 141 150 127 94 133 135 147 128 143 129 143 138 136 107 138 138 135 88
176 198 194 144 189 184 169 153 154 153 160 86 95 88 98 151 143 82 133 84 146 134 141 84 126 140 141 138 96 120 102 136 140 133 139 148 144 117 147 127 140 138 128 129 133 135 134 133 141
224 196 192 184 148 179 179 151 151 151 147 162 149 160 141 138 168 142 160 159 95 80 144 133 118 136 109 114 124 120 112 145 137 148 133 126 139 118 132 91 133 104 140 135 138 136 126 146 137
208 125 158 177 182 192 179 165 158 156 154 168 147 157 159 145 143 135 139 120 115 83 83 93 89 142 137 142 135 123 135 148 129 132 133 132 128 133 139 127 91 91 144 150 141 137 141 147 115
195 211 159 167 187 183 142 180 167 164 157 153 154 150 154 155 133 172 149 158 147 139 131 118 141 84 132 139 140 142 134 150 146 111 128 133 129 126 128 147 118 149 136 139 141 143 144 140 140
245 148 175 155 167 187 186 144 177 176 161 157 105 146 147 152 153 141 162 150 151 144 125 124 125 124 99 130 104 125 138 127 130 129 128 127 133 140 138 136 149 137 138 119 137 143 144 154 154
244 222 165 169 199 158 191 176 195 178 153 159 150 124 157 151 146 154 143 141 143 158 152 144 143 139 140 138 133 134 136 129 129 118 127 135 135 136 88 144 141 138 145 153 153 150 155 146 162
241 241 182 160 193 189 186 191 148 189 156 169 155 158 100 154 157 152 155 146 142 147 153 150 148 142 140 127 130 135 133 134 139 144 145 142 140 143 145 144 137 155 153 151 154 154 153 161 152
247 247 211 194 179 199 168 192 188 174 175 170 164 155 146 156 153 155 155 152 135 157 150 141 141 144 145 144 147 146 148 146 149 151 147 144 147 143 145 140 151 155 153 159 147 157 158 159 162
248 232 240 179 206 196 206 197 189 174 188 168 161 161 164 162 141 146 142 153 145 156 142 140 144 145 140 143 143 143 143 143 142 143 144 145 147 143 146 153 153 149 154 154 162 155 153 167 167
246 244 240 219 172 204 191 188 205 195 170 179 159 155 164 156 155 157 152 148 146 157 151 152 153 151 149 146 141 144 149 145 143 143 145 149 151 152 152 145 145 154 160 148 155 163 164 158 172
243 242 238 234 218 161 207 189 155 205 158 190 176 168 150 161 119 118 157 150 150 146 149 149 141 152 153 158 156 145 158 157 119 150 149 150 152 145 145 154 160 161 161 157 168 161 141 173 182
246 244 235 236 236 225 199 213 191 161 189 180 184 150 168 167 166 151 150 166 158 148 147 147 157 158 152 150 148 147 147 148 152 152 150 151 147 159 160 160 159 155 169 157 140 172 180 163 165
249 243 243 239 239 234 221 206 214 79 67 75 176 184 180 173 168 166 160 160 156 146 139 143 156 154 157 157 151 151 150 149 150 155 160 161 159 156 157 150 159 162 171 168 178 179 164 151 185
309 246 243 244 243 240 234 217 211 209 175 169 175 185 177 183 168 169 167 165 167 166 154 126 157 153 151 148 152 156 160 161 160 159 160 160 154 157 167 141 167 171 174 175 159 146 179 179 168
317 238 242 245 243 246 247 247 239 216 208 184 177 177 183 184 178 168 167 177 171 171 139 126 163 161 126 162 130 147 158 157 160 162 160 155 172 174 179 180 180 178 173 146 168 185 159 188 187
308 318 236 240 245 247 248 252 250 229 206 171 173 184 179 180 184 171 177 178 185 167 176 179 174 171 168 165 166 166 166 168 166 159 170 175 175 144 179 182 189 168 168 175 177 183 188 188 189
272 306 311 234 246 247 244 246 245 257 246 203 199 203 190 183 178 179 171 159 166 177 182 181 179 179 176 171 170 175 178 180 178 177 178 181 183 183 164 167 171 149 181 184 192 187 194 201 203
304 247 264 264 270 237 243 243 231 239 242 244 241 193 199 197 185 178 177 175 177 172 150 175 176 178 177 177 175 169 182 186 186 181 171 162 180 187 181 182 156 186 191 193 197 192 197 204 256
309 305 313 304 241 260 232 248 243 235 247 239 236 246 193 186 190 190 187 186 179 174 184 184 164 161 162 171 174 175 172 171 174 182 180 175 176 179 183 187 189 194 192 192 191 201 227 236 242
247 297 308 318 298 263 303 240 228 224 242 240 240 235 238 211 211 191 187 185 189 189 184 182 186 183 176 178 176 174 176 172 176 182 182 185 185 188 190 191 185 192 185 203 212 235 226 248 246
283 328 303 269 269 277 288 321 324 237 243 242 239 238 248 249 202 233 201 189 183 186 188 186 188 187 186 180 178 180 180 180 180 181 176 185 184 186 190 197 201 201 196 203 213 249 246 243 286
303 331 331 335 345 325 254 363 283 336 362 267 249 254 245 231 229 234 236 233 232 191 189 189 189 192 195 195 192 156 190 189 184 184 186 188 188 191 192 197 219 195 212 221 249 242 258 290 266

GFSSGP_2pvu_pres_063.txt.gz
Presure
206 176 79 79 81 78 90 144 112 152 149 160 148 101 123 134 138 132 129 136 138 119 124 126 131 144 126 101 113 122 131 151 119 111 118 104 172 170 167 116 137 126 132 119 160 129 123 166 158
210 183 135 94 122 80 76 77 113 68 82 76 84 153 124 148 136 119 114 96 132 141 129 131 133 133 114 117 131 135 101 118 125 103 130 150 128 162 147 166 141 120 110 139 130 135 106 141 144
185 154 184 178 142 87 80 80 87 165 120 78 79 126 156 138 114 145 121 132 144 127 128 120 136 102 105 132 149 147 122 113 105 113 130 114 114 112 110 157 135 151 109 150 123 139 125 142 133
176 178 199 187 164 159 85 85 84 82 147 151 145 113 84 141 145 133 135 132 138 134 125 124 135 137 118 144 117 133 154 151 128 143 110 104 140 119 105 106 105 129 114 141 142 147 134 138 138
196 173 167 188 160 169 154 100 76 75 82 103 88 82 115 95 75 130 143 80 104 149 148 136 140 131 132 146 137 156 133 140 132 137 109 114 132 152 106 152 113 109 104 125 137 137 138 119 138
184 192 180 171 182 173 169 159 167 89 86 86 138 139 76 107 159 79 84 112 92 122 114 101 120 148 156 131 122 119 136 126 123 132 125 102 124 125 143 102 149 143 128 139 135 119 139 130 126
163 186 170 160 186 155 177 157 159 169 135 123 87 123 148 81 77 148 152 107 77 148 128 149 110 150 146 136 130 145 140 142 115 104 104 110 139 146 99 122 141 122 142 141 140 141 125 131 135
257 208 183 173 197 193 152 171 155 163 165 133 123 86 77 77 82 155 141 87 133 88 114 81 161 161 143 129 136 95 139 136 139 150 137 98 146 89 138 151 85 84 146 123 148 132 127 135 150
211 217 176 185 181 124 190 166 167 156 161 157 140 154 146 91 90 78 80 77 158 156 136 162 160 153 84 143 133 115 87 86 101 122 92 141 133 133 151 143 142 133 116 132 133 98 127 150 146
217 223 216 188 178 192 194 152 134 167 155 162 150 67 155 75 98 131 150 81 137 83 127 152 157 145 125 147 145 145 78 137 138 135 102 136 141 92 142 136 129 129 126 135 127 143 144 144 124
211 209 191 222 170 202 161 195 160 145 160 150 153 135 151 159 120 155 144 131 146 145 156 157 81 148 142 150 148 137 141 127 130 133 149 130 139 150 137 131 134 128 136 141 131 134 149 145 129
279 221 213 239 140 198 203 197 176 169 164 91 146 149 147 163 156 149 152 150 139 163 101 77 160 125 89 82 134 144 84 147 142 144 144 140 137 143 133 130 125 144 123 132 136 91 147 139 144
259 222 215 208 193 191 187 198 189 184 171 169 152 156 142 147 163 146 154 124 150 141 154 136 140 122 136 150 148 140 136 141 142 136 128 118 135 124 128 131 136 117 140 142 100 147 145 156 141
311 246 169 187 233 189 190 194 197 140 184 171 159 160 151 140 146 156 153 159 159 156 133 148 141 137 153 140 140 127 131 129 130 131 127 126 129 115 128 145 146 145 142 149 147 142 154 139 156
313 229 222 214 203 193 167 204 200 181 182 181 171 166 163 145 143 147 157 143 139 156 142 139 150 151 146 149 125 125 125 125 139 147 136 129 85 151 148 148 145 143 143 148 153 152 140 153 155
264 275 229 224 199 244 190 201 130 192 150 155 181 170 165 155 154 148 149 147 144 142 147 147 141 145 141 142 148 153 152 149 146 147 147 141 145 146 143 142 141 140 149 149 153 140 150 156 154
293 353 256 227 218 238 208 183 184 133 190 168 183 181 180 163 160 157 142 142 145 145 146 147 144 164 150 143 146 145 144 143 144 145 143 145 142 140 147 151 129 151 147 148 154 156 158 157 158
289 410 251 236 227 215 235 195 184 169 181 191 180 159 95 151 161 158 154 147 149 151 150 156 155 153 153 121 139 137 135 140 141 142 146 150 149 148 150 150 157 152 147 162 154 156 151 155 152
348 309 244 240 238 216 224 215 190 182 161 127 187 147 180 179 154 165 155 67 143 150 152 153 153 145 150 155 151 162 159 151 148 150 150 141 142 155 156 148 149 149 159 146 154 153 147 146 169
332 260 254 247 245 243 216 234 206 142 183 166 185 178 157 182 178 163 168 160 161 163 155 154 151 151 151 151 146 147 146 137 140 142 146 147 153 157 154 147 158 144 147 154 159 138 166 164 171
319 275 253 241 245 245 230 236 223 195 204 211 176 175 177 152 169 176 164 148 126 134 162 154 158 152 151 157 150 146 144 153 158 160 159 148 143 150 154 150 141 156 148 142 151 166 171 170 173
256 247 198 247 242 242 241 205 231 224 172 187 207 192 177 179 174 175 178 166 165 153 151 123 133 158 152 150 153 153 149 143 142 139 136 137 142 144 153 157 159 152 157 152 167 172 169 181 176
249 253 255 246 227 246 246 246 212 247 182 84 205 116 74 168 177 173 180 176 173 164 165 162 83 161 128 124 125 125 155 153 156 155 156 158 159 157 157 156 161 164 166 171 168 169 178 171 181
288 317 260 245 244 255 249 247 241 240 243 240 209 209 152 194 185 180 176 176 180 176 172 170 166 161 160 160 159 159 141 138 139 137 144 162 163 164 170 167 167 173 163 164 175 167 163 181 180
253 244 249 287 245 243 244 247 235 245 248 247 246 185 193 191 158 183 182 174 171 179 180 177 170 167 167 167 165 167 167 165 165 165 167 171 171 169 173 176 156 168 177 163 173 179 182 182 194
289 293 302 282 243 245 244 247 234 243 246 250 246 250 209 184 192 178 172 186 173 169 164 177 179 174 168 165 164 167 170 173 178 177 176 177 175 170 162 173 169 174 175 182 180 182 177 190 189
302 291 288 309 294 245 249 250 238 244 244 245 244 250 252 249 198 190 196 177 180 183 172 170 168 171 177 179 176 160 156 159 159 162 155 152 158 164 146 160 174 172 176 180 179 184 190 190 192
277 290 298 312 308 285 250 241 238 239 239 243 245 248 246 252 261 227 187 187 146 191 185 182 179 179 178 176 175 178 179 175 170 171 171 176 181 179 176 177 178 183 174 156 190 190 187 184 201
283 287 283 293 301 308 251 297 236 234 243 242 244 247 250 246 253 260 261 237 194 184 190 195 187 187 186 183 176 177 176 180 180 180 182 183 184 179 186 169 165 192 193 192 185 193 201 226 237
281 274 271 270 271 287 280 258 309 239 170 228 231 261 239 235 249 256 254 246 247 196 194 193 192 193 193 192 191 191 189 187 188 191 187 190 189 187 190 191 191 190 191 193 190 224 237 242 258

GFSSGP_2pvu_pres_066.txt.gz
Presure
106 80 78 81 77 84 71 73 78 142 159 112 75 144 81 116 95 129 127 114 108 121 103 127 113 124 127 127 122 97 100 118 128 125 122 103 110 125 107 159 162 166 125 138 116 111 123 149 130
121 186 104 190 120 109 79 71 78 128 107 78 150 160 156 154 107 132 131 134 130 119 128 125 143 130 121 132 128 123 112 108 122 120 143 138 108 109 116 126 141 152 143 116 179 135 107 126 121
211 136 182 151 155 82 73 75 98 83 141 75 74 68 102 156 131 88 128 124 125 145 139 139 132 125 122 136 139 124 119 116 119 142 129 120 133 121 112 119 114 150 107 103 156 156 141 138 109
202 186 182 170 191 161 71 73 80 78 73 85 78 78 81 164 87 131 77 126 132 131 131 135 146 142 149 127 138 106 107 119 148 151 122 129 139 155 105 106 147 152 104 125 119 107 133 147 128
198 197 126 196 181 174 168 76 165 81 76 77 85 130 150 140 158 81 148 135 133 88 118 131 144 126 126 127 148 145 105 145 150 188 179 122 133 141 105 107 136 147 101 139 138 97 112 141 122
205 210 205 153 140 188 174 167 73 82 82 146 89 68 72 81 111 76 74 109 82 87 135 129 95 135 131 125 135 109 131 151 141 142 134 126 125 123 135 102 123 146 142 133 146 152 135 129 148
223 196 195 175 196 121 187 178 167 165 155 78 82 77 85 139 156 146 88 156 135 85 99 83 126 121 149 140 142 132 123 142 130 105 125 135 133 111 96 90 148 140 133 96 92 135 143 116 143
163 173 161 216 169 193 213 193 177 166 170 159 146 91 83 96 98 153 83 79 160 147 83 146 101 141 80 122 125 126 163 144 141 144 140 144 129 137 90 147 91 129 150 106 134 136 84 138 132
128 116 138 119 187 193 190 200 176 176 165 160 158 142 133 111 91 151 97 80 106 125 154 151 150 132 145 136 147 107 146 145 140 129 138 103 94 141 146 137 146 134 130 143 142 130 123 130 131
156 168 176 203 201 183 184 206 194 175 168 165 158 163 140 143 149 155 87 80 108 78 85 78 151 160 155 151 161 165 157 150 101 142 137 87 143 83 137 151 134 138 153 134 132 133 131 127 133
170 171 149 182 199 182 202 180 201 190 130 164 163 159 162 140 133 78 105 97 110 145 152 84 84 89 103 151 152 82 144 148 117 137 133 138 143 144 144 146 141 121 140 132 129 133 123 83 135
208 151 213 172 181 213 187 206 170 196 183 147 153 160 155 163 134 135 142 141 82 113 128 124 99 100 142 154 140 153 159 83 137 154 143 137 134 143 143 142 136 140 146 126 128 129 85 143 143
202 187 200 134 209 189 200 183 184 169 183 170 124 122 152 158 163 143 134 149 155 153 147 143 139 132 140 105 146 159 163 144 107 141 145 140 140 141 143 137 126 89 106 123 143 146 140 141 148
206 209 170 204 157 151 208 198 180 188 186 192 173 154 154 151 156 164 148 142 156 152 151 148 149 144 146 135 125 138 137 125 151 140 121 134 134 134 142 142 129 107 113 138 147 141 149 152 147
214 212 221 186 122 146 202 212 199 187 172 194 189 158 135 168 154 156 159 136 145 144 159 155 144 151 154 153 140 143 149 122 155 155 126 147 126 132 124 133 147 140 146 142 141 150 153 147 142
226 218 226 153 180 232 207 213 202 184 173 182 193 191 151 156 163 159 155 157 150 143 148 164 141 139 152 153 153 146 141 149 156 136 149 127 154 153 150 148 149 144 141 148 149 146 145 149 137
248 226 222 217 161 209 197 211 207 209 188 171 194 188 191 169 166 165 161 155 155 136 136 146 141 139 134 136 147 153 158 157 144 145 149 149 148 142 142 141 147 154 153 146 145 154 150 144 157
273 249 88 221 169 190 245 218 210 202 194 174 182 193 194 188 179 168 164 167 155 155 138 141 143 145 144 152 146 143 142 143 142 150 157 140 137 148 156 158 149 140 140 150 161 148 150 152 148
268 263 252 228 217 209 226 230 62 210 163 222 176 195 196 194 179 153 171 166 159 153 156 143 143 141 141 144 150 145 145 151 152 166 168 169 172 168 143 139 136 150 161 156 143 151 143 158 160
266 265 259 241 224 220 209 254 225 215 208 234 196 146 171 176 193 174 155 178 175 156 159 153 152 147 145 153 153 151 148 151 148 151 151 150 151 143 139 149 157 143 143 140 149 156 155 159 158
307 266 256 246 228 245 217 259 256 216 212 186 238 190 188 169 182 167 177 156 175 166 165 154 155 157 160 152 145 146 152 152 149 142 139 146 148 152 154 152 156 149 134 152 156 152 158 162 169
273 315 274 266 237 222 212 253 260 230 215 209 183 157 185 188 194 193 185 178 178 180 169 171 152 157 156 153 152 156 158 162 163 159 158 156 149 141 146 149 153 158 159 131 158 161 168 168 163
278 311 298 250 245 233 246 268 254 255 213 214 197 135 237 183 203 169 180 182 178 143 170 172 171 159 118 122 163 160 151 159 151 145 148 136 148 159 160 159 156 127 160 160 161 158 167 172 177
285 288 317 312 334 272 320 262 263 252 251 209 219 212 232 244 172 192 142 184 179 178 180 180 176 173 170 163 159 159 134 158 157 138 157 160 135 157 147 158 160 161 162 162 172 175 174 164 161
291 278 307 315 282 327 258 291 256 254 250 247 216 236 213 221 144 162 164 178 174 168 169 171 174 170 174 177 172 168 164 164 162 160 162 162 148 160 162 165 158 163 168 170 167 170 155 164 178
282 282 289 315 278 240 260 350 260 256 255 247 246 241 240 224 224 251 199 186 167 177 180 176 172 176 175 175 172 177 171 169 169 167 165 166 168 167 164 165 169 175 171 155 154 162 174 180 182
272 286 279 267 315 249 314 246 264 255 249 251 245 245 239 240 244 216 254 200 173 186 166 183 184 180 178 177 176 164 163 163 174 175 172 176 176 174 170 173 178 172 173 176 177 179 180 184 183
304 284 283 294 236 253 273 249 323 256 251 247 241 251 243 246 248 224 179 202 242 194 188 187 178 181 187 178 179 179 179 176 170 163 167 166 165 168 175 174 172 168 170 156 180 183 182 165 186
279 283 266 276 294 268 241 266 308 289 246 239 246 247 246 245 250 231 257 215 253 250 216 188 191 161 161 152 155 171 170 167 182 177 177 176 176 177 177 177 176 179 179 183 186 183 183 189 188
307 284 285 300 283 271 262 229 291 306 237 236 240 239 243 252 256 252 254 256 251 249 258 247 223 182 182 175 179 146 146 146 171 184 184 182 180 184 179 184 186 189 189 183 189 187 192 198 154

GFSSGP_2pvu_pres_069.txt.gz
Presure
183 173 124 72 169 129 141 71 109 84 81 89 142 133 106 107 106 145 124 102 95 144 96 140 144 151 134 103 132 137 128 96 115 112 119 133 124 123 117 106 121 122 158 170 171 122 166 139 117
187 112 76 150 81 79 113 116 144 97 76 116 164 113 122 97 140 126 150 120 127 120 114 102 119 117 146 145 130 126 134 133 103 104 116 137 111 114 130 116 105 114 136 117 110 103 134 100 137
204 192 188 157 108 175 83 80 73 76 79 116 73 77 83 82 113 124 149 124 129 106 136 96 144 116 127 136 120 119 129 132 135 123 92 119 122 114 114 128 132 142 126 116 143 188 171 130 97
197 142 198 168 160 187 79 79 78 82 128 138 77 119 159 156 154 158 132 113 106 140 130 149 123 144 117 146 117 122 123 134 143 129 121 114 119 118 118 131 147 153 131 105 140 128 105 108 141
195 154 188 189 170 157 83 99 182 80 165 94 72 92 92 76 88 133 157 134 104 126 134 124 143 143 133 144 133 106 135 133 110 115 133 147 151 121 117 117 136 101 146 95 129 120 103 131 152
189 158 185 183 141 183 167 139 168 80 106 113 110 76 77 72 84 88 122 120 131 116 138 104 104 130 111 117 123 139 138 131 132 144 126 132 149 154 101 137 135 132 123 119 100 124 91 135 139
176 160 205 194 179 159 160 179 148 169 77 98 73 76 80 71 122 81 78 73 77 110 80 123 130 132 126 129 140 127 127 133 122 120 154 137 133 148 116 135 115 125 91 131 140 134 134 136 145
121 112 164 198 182 201 187 146 201 186 77 86 158 132 152 71 75 77 75 82 72 79 157 157 78 112 132 81 124 130 129 133 128 144 145 129 142 126 87 85 110 128 89 139 148 127 137 133 135
137 146 106 188 187 185 202 170 186 190 168 158 152 79 78 72 93 80 88 83 125 74 77 154 142 127 150 102 91 105 142 147 118 147 126 153 143 134 127 139 141 130 148 144 137 140 151 143 134
172 133 171 209 192 197 189 202 169 185 186 165 154 157 150 145 158 126 123 86 126 127 79 73 89 157 134 142 140 123 152 139 136 134 129 129 137 140 121 124 138 121 136 143 150 142 140 146 134
201 188 204 181 205 193 197 184 212 186 172 172 160 165 157 146 155 134 132 155 149 85 100 143 84 125 82 143 153 78 160 160 130 133 168 161 156 142 139 147 138 140 131 138 133 143 132 84 129
203 172 134 192 208 183 109 171 192 203 204 191 168 163 160 153 148 117 141 132 145 156 156 143 127 121 148 87 78 90 89 149 155 141 150 151 140 150 146 148 142 142 134 146 142 135 134 114 135
211 190 177 199 164 144 121 185 124 175 167 163 181 164 163 153 158 155 150 143 134 149 151 136 144 145 146 99 150 141 98 109 107 151 145 162 162 152 143 145 146 136 143 140 151 148 136 123 129
234 197 164 186 208 160 194 164 198 190 191 154 199 181 161 159 154 162 153 152 151 139 144 154 151 138 119 143 138 133 119 147 141 132 144 169 149 152 149 143 143 137 133 129 146 121 130 145 143
242 223 199 200 189 139 164 160 210 173 137 184 172 203 200 129 159 153 164 153 157 149 133 142 142 144 157 165 153 146 141 152 139 154 118 149 154 124 148 153 139 150 124 149 148 145 144 155 152
251 236 204 198 190 193 147 161 164 212 183 196 178 192 199 182 177 163 151 157 158 156 145 140 138 153 150 148 149 144 144 144 146 144 147 136 135 138 147 125 143 150 143 142 143 155 156 142 136
263 245 222 202 198 194 140 174 177 180 201 179 196 177 180 196 177 184 156 152 158 157 156 156 158 140 138 136 134 141 159 145 146 147 144 147 149 149 141 137 140 155 153 147 153 143 140 141 160
272 257 235 206 94 193 120 91 227 147 186 202 195 187 182 179 198 196 181 169 155 164 156 151 155 156 138 143 138 137 139 148 141 143 142 149 145 143 147 145 157 151 156 144 142 154 148 150 155
267 254 237 224 201 187 202 201 109 226 135 229 194 202 170 177 180 180 191 196 156 177 163 153 152 146 148 143 138 143 147 143 141 136 150 152 142 149 150 154 152 154 142 156 138 148 149 150 145
264 259 250 236 220 208 199 202 199 192 160 182 206 192 191 171 182 173 181 194 184 177 175 167 162 154 148 145 146 145 145 147 149 147 148 147 143 153 149 150 141 139 143 150 159 155 153 149 153
274 261 256 245 233 218 210 207 205 205 195 207 216 187 199 194 171 180 174 171 193 189 183 167 159 160 155 152 151 148 150 145 147 148 144 148 146 142 149 155 157 160 166 167 152 152 156 161 161
274 268 262 255 244 232 223 212 209 213 183 171 176 207 189 211 197 196 183 172 156 191 185 190 185 175 162 154 156 155 151 151 157 157 160 158 152 145 145 152 153 156 151 144 153 161 160 160 157
271 275 271 269 255 243 228 223 212 214 217 210 181 231 207 199 218 208 160 183 136 151 194 187 191 139 179 180 173 166 162 157 156 152 147 147 149 150 159 157 143 145 156 159 126 160 159 168 158
269 273 283 281 267 259 251 242 227 224 221 218 212 191 225 211 201 202 200 131 191 179 178 192 195 192 187 145 177 177 174 175 165 121 124 136 160 126 123 116 133 160 140 166 170 163 159 169 168
273 286 268 268 270 261 265 265 251 240 235 233 227 211 195 252 218 206 206 194 190 214 150 128 192 186 185 188 181 149 173 174 173 171 170 172 171 170 157 170 170 170 168 167 166 170 172 171 176
261 263 258 297 257 274 266 107 259 250 243 240 237 226 205 204 255 243 208 134 95 146 219 181 186 152 149 185 187 182 177 171 171 179 180 179 179 178 177 177 172 175 172 169 174 172 171 167 170
279 288 298 297 261 285 312 322 299 247 245 239 235 231 219 202 256 256 266 148 203 126 126 174 204 174 185 155 156 182 169 169 168 167 167 166 167 169 169 170 161 164 174 175 177 175 170 173 183
304 292 269 272 291 272 281 318 275 270 246 238 278 251 240 205 263 248 262 256 212 180 203 189 214 214 170 157 159 172 168 169 169 174 176 175 170 169 170 177 176 177 179 180 179 181 183 180 184
291 305 283 269 266 289 268 279 314 297 257 298 270 254 257 232 267 222 252 251 242 211 211 205 176 169 221 197 182 177 173 148 129 129 174 173 180 178 141 139 180 176 164 173 174 172 184 190 188
271 272 283 300 280 274 284 279 245 301 265 253 301 106 102 264 276 268 266 261 253 126 265 124 242 146 150 235 208 188 186 186 186 185 162 176 184 187 160 178 183 174 167 186 184 186 191 182 193

GFSSGP_2pvu_pres_072.txt.gz
Presure
123 135 73 177 185 117 127 85 99 111 106 99 94 96 91 96 96 97 96 125 133 103 111 130 88 148 129 116 121 123 97 122 129 147 121 106 111 116 147 131 126 138 106 106 124 140 115 148 116
178 230 191 123 187 124 72 73 139 112 83 109 94 107 101 92 103 105 90 90 124 122 104 126 142 113 144 151 133 153 125 113 104 130 128 101 98 108 119 127 115 114 139 125 134 115 107 130 132
170 185 207 195 176 158 76 77 102 158 115 140 109 114 84 103 105 134 104 103 126 121 129 96 134 127 111 136 117 126 130 141 136 141 133 129 118 129 119 103 123 149 125 120 124 120 151 105 127
186 109 182 207 79 145 134 176 79 130 112 137 77 113 134 105 111 132 137 111 124 151 118 139 144 150 104 141 94 144 138 136 118 132 132 130 134 134 120 118 129 129 124 101 96 108 144 122 107
95 102 202 190 175 159 99 170 81 88 100 73 136 123 81 76 77 77 103 158 89 109 113 124 138 141 143 105 114 117 118 133 131 109 105 135 145 113 109 110 112 154 134 104 134 135 108 139 139
262 108 182 201 188 173 187 157 180 168 96 91 91 94 72 81 115 91 127 111 155 76 162 114 107 130 122 144 129 136 98 142 127 127 134 135 128 146 141 127 135 120 139 139 133 132 115 144 136
163 201 213 212 193 186 173 182 181 174 115 115 90 84 115 131 75 77 77 106 83 108 116 126 94 115 141 138 147 144 134 142 147 131 142 131 119 116 129 123 142 152 133 142 115 134 86 137 138
258 191 230 198 159 199 168 190 159 155 84 78 137 112 126 71 78 75 80 152 74 153 82 81 86 127 78 110 85 97 118 120 136 135 126 128 132 142 135 152 139 140 88 144 80 142 134 118 138
210 185 161 128 201 170 193 175 180 183 185 177 108 71 72 71 76 82 77 88 77 76 72 78 117 130 117 80 126 98 131 95 83 108 130 115 149 132 104 126 130 144 148 134 122 142 138 132 149
216 228 235 194 181 197 137 185 171 155 177 186 177 147 119 131 80 118 86 71 76 82 79 77 131 97 103 101 155 123 115 131 138 128 124 130 134 130 132 136 167 136 136 136 137 145 133 139 142
204 230 201 185 202 203 217 183 200 164 161 181 193 172 156 156 147 83 159 146 77 76 73 83 94 86 73 78 81 89 84 83 143 139 145 146 87 130 130 165 83 157 153 145 142 143 138 147 146
199 241 194 186 113 158 173 200 191 182 176 151 186 187 162 154 156 158 143 152 135 150 143 145 90 93 130 78 99 149 79 160 87 88 151 93 151 150 147 157 163 153 150 149 153 138 142 141 139
212 189 244 99 199 122 132 154 193 193 175 172 157 185 160 158 159 166 154 149 141 153 160 154 157 148 152 116 108 86 116 144 94 149 79 134 136 116 128 141 165 159 160 157 149 154 148 151 123
224 204 195 160 246 136 144 132 207 197 183 202 137 144 184 167 162 157 157 155 158 156 145 155 148 151 155 136 147 149 154 119 147 148 148 144 140 124 134 143 125 151 158 150 129 154 151 125 148
234 219 205 239 179 226 140 178 215 203 173 179 188 158 149 129 162 166 151 153 157 150 155 156 135 152 144 151 157 137 145 147 141 141 135 131 119 141 143 145 133 123 154 148 149 142 127 146 155
246 237 221 230 199 184 177 172 170 215 156 114 184 180 184 211 184 171 161 157 164 157 148 142 147 142 133 154 144 149 152 139 130 150 156 131 139 140 141 142 143 131 132 138 127 139 139 150 169
261 245 241 214 247 192 182 179 152 183 211 158 167 138 179 154 193 183 168 160 162 163 155 156 157 156 153 147 135 141 145 142 144 145 146 144 144 156 153 145 142 139 143 143 143 148 151 152 148
285 125 249 207 231 178 188 177 180 226 200 157 199 187 200 178 182 198 185 168 171 164 161 135 162 168 161 159 136 135 133 137 145 144 145 145 140 148 139 137 144 148 137 151 149 151 152 141 158
291 262 252 243 74 227 255 187 71 183 192 159 195 179 185 179 169 165 183 191 173 167 168 166 157 159 162 166 159 145 159 155 144 147 144 141 137 146 145 147 143 148 143 149 151 141 158 149 146
294 287 261 249 237 234 234 192 189 176 187 228 153 152 195 173 181 203 171 181 196 185 172 166 166 142 142 144 109 153 152 146 152 151 145 143 141 146 148 146 143 147 152 148 148 150 152 148 150
294 301 272 258 245 237 235 239 190 187 196 192 175 156 149 196 182 182 203 185 173 191 208 202 176 170 170 154 162 157 157 151 148 145 147 146 143 143 143 144 153 148 144 159 148 150 150 151 157
283 317 278 266 257 241 239 228 196 197 190 202 183 199 140 144 219 187 178 200 199 177 175 200 193 179 176 180 178 173 166 167 166 163 148 151 150 150 150 149 151 154 154 150 151 150 155 147 160
275 281 281 272 265 250 238 230 224 234 194 188 190 174 182 205 150 181 193 194 196 178 187 186 177 194 190 136 180 182 183 172 180 162 163 149 153 152 144 153 155 153 146 144 155 162 129 147 161
275 275 276 277 272 266 250 238 230 222 207 191 188 196 196 188 213 150 155 217 189 186 197 198 168 172 177 160 151 186 148 188 180 175 171 166 164 163 163 167 166 126 126 170 166 161 170 169 173
265 268 276 283 273 265 259 253 237 233 230 231 199 193 198 159 189 183 189 184 190 184 200 193 193 187 177 189 156 171 177 192 155 178 187 183 179 154 171 172 172 172 173 175 175 178 179 166 160
280 266 281 270 264 256 256 259 248 243 239 227 229 199 197 192 194 195 192 179 178 206 202 191 192 127 188 192 135 187 188 165 183 184 185 185 183 174 179 174 162 167 171 168 169 164 166 167 170
292 199 259 301 263 263 261 258 260 254 245 239 229 223 204 199 193 189 196 195 192 178 204 202 198 199 210 120 207 178 126 123 150 179 176 190 188 180 182 181 179 172 166 167 169 171 168 170 175
280 291 307 257 255 260 267 284 280 263 259 255 244 234 231 223 209 202 200 203 201 197 188 198 212 167 202 196 194 200 198 183 166 160 162 147 169 172 153 155 161 164 125 160 166 158 169 176 178
216 286 286 261 267 253 267 289 296 273 277 270 262 256 247 239 232 226 220 210 206 208 204 197 189 200 138 178 173 203 198 195 146 202 184 171 150 136 161 164 161 168 151 161 148 172 177 174 185
277 286 284 278 274 270 274 252 287 281 278 294 300 309 261 262 256 255 254 241 234 224 219 212 197 184 236 123 214 172 136 187 179 196 132 211 182 153 160 156 138 163 181 165 154 187 137 187 170

GFSSGP_2pvu_pres_075.txt.gz
Presure
217 210 201 182 170 160 127 107 121 90 96 132 90 107 93 95 95 88 82 121 107 163 148 105 143 100 97 134 126 132 120 123 115 95 130 132 131 99 97 123 125 123 122 130 111 111 139 116 125
138 177 211 199 168 138 138 147 78 95 94 100 102 110 88 93 91 92 95 98 97 105 117 112 119 134 94 150 142 138 151 115 117 141 104 104 133 126 122 115 114 114 110 146 125 142 127 108 105
197 125 112 127 170 154 92 180 158 105 72 102 100 96 114 98 97 96 93 98 102 97 96 95 164 127 100 133 134 104 128 150 125 122 122 127 124 129 128 126 134 118 119 129 120 142 131 132 138
197 200 242 180 204 183 169 161 169 133 108 77 74 154 121 129 83 103 134 105 103 103 102 100 125 136 132 135 148 120 151 146 113 150 129 135 136 138 126 130 122 112 146 113 109 101 96 117 92
220 200 227 194 160 159 123 158 181 76 78 74 119 135 85 159 107 107 108 104 106 97 89 92 114 126 128 140 145 111 133 102 126 151 121 138 131 114 111 131 138 143 111 117 138 92 125 139 105
240 214 179 201 211 149 183 117 117 113 179 82 75 118 122 120 72 136 93 108 111 83 117 109 111 137 116 122 144 140 144 144 126 113 127 126 127 121 121 122 124 141 140 152 122 150 129 127 140
214 221 174 229 153 147 186 182 167 81 145 166 152 133 125 155 91 133 75 76 86 94 164 114 160 117 125 90 121 138 147 147 141 145 137 123 129 120 130 141 131 125 127 137 136 139 143 136 92
226 195 234 163 234 204 100 183 167 167 137 181 181 113 140 88 82 76 77 75 101 103 82 78 73 159 77 89 81 121 122 78 109 149 138 132 141 140 125 129 128 134 130 121 83 125 141 133 143
196 213 190 213 164 153 210 191 180 172 160 116 180 172 108 87 85 86 99 80 78 95 76 73 87 100 78 80 104 126 126 136 91 87 114 126 124 111 133 115 112 123 142 138 134 166 147 137 140
208 181 177 202 245 184 155 199 190 167 165 182 175 181 76 164 76 87 109 79 82 78 80 75 82 93 84 124 76 109 79 128 126 124 120 122 128 127 128 127 124 123 135 142 139 159 165 155 140
233 184 211 175 160 225 184 208 186 179 179 153 168 180 163 75 78 70 74 83 118 85 81 76 84 109 79 78 102 73 89 85 126 123 83 82 89 95 98 147 113 161 160 141 154 163 151 149 147
230 211 198 201 179 180 225 223 184 186 167 172 174 178 169 181 166 146 128 76 132 144 98 74 73 77 80 81 79 78 77 106 79 85 79 86 128 101 135 81 149 158 157 154 139 144 174 163 160
241 233 207 185 172 171 232 211 212 159 190 182 170 172 169 183 159 173 143 146 117 81 147 123 142 143 137 142 137 114 87 84 87 155 153 96 161 155 91 152 146 144 141 134 142 141 134 147 153
237 221 230 228 185 183 156 188 133 209 172 202 169 190 177 179 173 170 162 161 155 142 113 148 141 144 128 141 143 145 146 151 145 150 149 142 137 141 140 136 143 138 111 126 123 126 142 141 128
251 239 230 225 196 206 189 176 200 173 200 187 206 173 171 178 176 171 163 166 160 168 157 150 156 154 158 155 135 140 145 149 142 148 144 143 149 148 147 142 141 143 142 145 145 145 148 148 152
264 239 231 248 200 191 199 177 228 117 163 167 180 184 173 167 179 177 174 172 164 163 160 158 147 142 142 142 154 158 159 154 152 144 135 152 144 145 138 139 143 142 136 141 157 156 149 149 142
268 267 238 224 211 195 166 128 215 158 181 208 192 178 180 166 168 154 176 177 174 163 158 157 162 156 152 152 152 157 159 146 152 136 147 142 144 147 142 141 143 142 147 149 151 142 139 140 150
272 270 249 242 235 195 145 202 205 159 124 122 185 202 183 177 170 169 157 142 179 132 162 161 163 167 158 159 160 154 151 148 141 134 146 134 145 144 141 146 146 145 147 142 137 143 148 148 152
265 263 262 235 240 218 198 70 220 181 132 127 136 204 191 189 180 163 167 160 182 184 183 172 161 167 162 159 158 156 159 155 143 144 152 145 135 131 130 134 143 139 142 144 147 142 149 152 149
299 270 267 253 231 235 198 191 189 240 161 139 184 164 201 195 186 161 158 180 162 176 182 183 172 168 169 133 157 162 168 164 160 160 161 159 147 141 150 157 153 148 148 147 145 144 144 153 150
304 277 263 261 245 164 213 201 196 222 225 180 175 178 158 195 195 171 144 180 181 168 165 193 199 172 169 170 166 168 125 143 166 160 158 146 148 148 150 149 147 145 142 145 148 150 153 152 153
277 319 276 260 257 240 236 208 206 213 227 196 168 113 179 161 212 195 185 181 178 170 197 154 179 189 182 177 162 163 167 165 159 167 165 165 167 168 167 153 159 159 160 157 159 156 151 152 160
270 287 291 275 259 254 243 233 213 207 246 245 201 178 174 155 154 176 200 185 197 183 182 174 162 183 195 192 181 174 165 171 172 170 170 170 171 174 173 173 172 166 159 166 169 165 159 163 167
276 268 294 296 284 260 251 240 232 223 212 240 233 197 180 177 179 149 152 139 175 174 179 185 184 180 182 172 189 191 186 181 178 183 187 136 180 179 179 179 178 177 182 172 171 172 174 175 174
314 268 284 297 294 278 258 251 235 234 233 232 233 244 195 204 181 176 178 189 147 190 186 144 174 175 180 194 202 176 177 180 178 192 191 189 189 136 185 187 148 154 181 180 168 179 180 140 180
296 269 266 273 294 291 283 259 243 237 240 236 237 230 247 194 183 179 180 178 118 149 156 194 149 147 150 155 185 184 195 167 142 168 170 162 164 170 176 146 134 149 159 185 185 182 182 182 173
278 258 266 270 280 282 291 276 263 246 244 241 239 239 226 231 196 185 182 185 181 179 178 178 185 196 153 152 174 182 184 183 180 180 181 172 135 134 172 190 189 135 181 158 178 170 168 157 174
285 283 300 274 268 272 277 279 273 265 256 247 242 240 239 224 219 237 205 187 186 186 187 190 187 186 191 206 195 207 192 192 191 181 193 191 191 135 189 185 184 177 191 138 136 144 188 168 156
300 299 315 264 257 266 268 286 276 273 269 261 250 246 243 238 228 216 209 219 191 191 187 186 190 192 191 190 190 185 178 141 188 203 195 194 189 160 191 144 199 150 185 175 133 183 158 158 177
291 296 297 288 292 289 273 262 266 277 270 268 266 263 255 251 244 235 226 216 221 207 192 192 189 192 196 196 197 199 197 195 191 186 181 206 163 197 136 130 200 123 195 184 164 171 199 145 131

GFSSGP_2pvu_pres_078.txt.gz
Presure
120 155 172 206 222 193 164 164 101 90 93 100 128 93 95 97 98 95 92 99 148 113 118 111 105 131 100 118 114 107 133 121 119 110 122 117 100 120 120 127 141 130 111 119 123 119 117 142 105
206 185 192 222 213 191 158 161 177 103 97 108 121 121 82 93 95 99 90 84 97 153 159 125 123 87 122 108 109 129 120 103 118 109 125 118 120 132 114 124 130 132 130 127 129 117 124 113 107
201 248 200 169 217 197 158 159 161 117 99 105 99 107 122 92 114 92 98 97 100 96 92 87 93 131 133 108 133 140 112 121 99 139 135 133 126 123 125 121 117 131 125 132 120 108 112 150 89
215 207 201 91 186 66 63 171 64 177 177 180 158 104 94 102 97 97 97 91 92 83 102 104 94 95 87 150 167 158 110 118 137 105 103 99 108 132 119 118 127 110 118 122 98 150 138 139 133
218 200 215 205 180 201 76 166 152 113 175 161 161 158 122 88 94 87 117 95 104 93 94 96 105 97 97 102 153 117 130 130 99 144 150 94 123 119 129 121 135 132 126 123 128 134 141 143 133
214 187 212 205 174 196 151 134 121 180 83 155 185 116 96 77 116 92 145 105 130 104 109 107 89 109 104 141 103 119 125 141 139 117 100 144 131 151 144 111 124 115 122 117 139 133 127 121 137
208 178 192 207 94 153 133 119 137 166 170 168 186 77 74 119 80 126 167 102 125 123 101 140 111 103 111 115 99 109 87 125 134 145 141 130 145 135 128 119 125 146 130 92 131 122 135 141 133
244 203 178 197 206 209 186 166 198 129 159 164 167 116 79 118 79 117 148 166 77 114 106 87 94 97 84 77 155 134 108 104 97 86 82 84 148 140 136 112 134 140 106 124 133 130 124 139 138
225 213 181 212 196 167 182 178 157 200 138 166 165 143 130 132 73 114 145 114 76 74 151 83 105 93 76 78 122 103 162 81 81 78 121 121 122 104 144 148 138 124 123 125 130 128 138 135 126
252 230 206 174 203 165 160 183 171 207 166 167 158 176 103 122 178 161 133 139 121 81 72 80 79 73 93 82 157 79 82 127 77 133 133 115 125 78 127 83 98 104 130 89 133 133 115 168 141
297 263 239 186 197 225 198 174 231 213 141 109 165 161 117 169 169 167 160 84 84 80 72 77 77 76 73 79 74 80 79 81 91 78 127 87 134 80 82 88 126 83 87 139 84 91 133 160 155
289 287 251 202 184 209 218 186 197 206 187 181 116 152 168 179 90 183 77 89 78 103 102 81 124 79 83 78 77 76 79 77 80 79 82 104 155 142 88 135 137 100 134 121 103 157 141 146 142
287 280 262 251 179 194 216 201 198 234 213 219 181 188 159 178 181 171 179 82 80 79 75 82 115 116 154 104 108 86 143 153 109 154 89 115 84 149 107 158 130 154 160 159 149 146 146 133 148
297 280 271 252 250 182 206 208 205 201 217 203 180 181 166 161 180 153 176 182 165 158 125 131 123 96 122 74 90 159 90 152 152 149 146 149 149 153 152 150 149 151 148 143 142 144 147 152 152
287 278 270 252 252 237 261 189 151 199 204 235 205 186 181 166 167 175 171 178 179 165 178 133 137 132 128 136 131 142 140 144 140 139 140 144 147 148 151 144 151 150 149 150 150 152 144 137 146
290 267 300 261 240 212 179 157 179 180 198 197 174 190 191 172 179 167 152 169 172 177 164 165 151 157 156 164 157 151 148 140 137 143 144 141 138 143 149 146 151 146 135 135 143 144 142 146 147
298 279 270 264 248 230 190 175 216 204 200 184 223 209 186 186 175 169 157 166 181 180 178 171 175 157 163 150 162 158 149 149 151 155 156 154 152 152 158 151 149 139 149 145 148 147 142 147 147
293 283 277 262 249 236 225 196 177 176 197 203 223 231 134 146 188 176 171 166 174 168 181 140 170 167 162 158 157 161 166 148 146 142 139 141 140 154 158 153 150 137 139 138 135 133 132 143 155
285 280 268 252 247 234 231 246 185 194 192 167 199 231 233 203 177 187 177 176 170 172 181 172 177 174 168 162 159 162 160 158 159 157 148 155 160 145 144 138 141 144 146 147 147 144 141 151 148
285 286 264 261 249 246 235 232 254 180 173 173 171 222 177 232 196 185 198 183 176 187 181 177 176 160 163 175 170 144 150 159 160 163 165 159 123 162 160 159 155 160 155 161 156 153 145 146 151
325 292 273 261 252 227 235 244 235 201 202 182 210 174 192 188 162 179 185 197 180 177 170 167 177 183 173 169 177 174 169 162 160 159 162 166 159 156 159 156 163 162 161 161 156 159 165 162 159
313 291 268 263 255 250 250 244 236 210 200 179 173 245 212 220 215 135 127 192 176 178 180 177 170 170 173 172 159 183 181 171 170 169 167 159 170 169 167 170 171 168 169 169 170 133 167 171 173
351 290 277 266 256 254 259 255 239 226 192 189 192 180 246 165 137 130 172 154 191 187 177 183 177 149 163 169 184 171 183 183 183 182 176 164 153 137 165 167 170 170 162 167 168 178 180 182 180
342 292 289 264 265 266 265 259 253 246 229 199 195 187 186 217 176 149 148 153 180 191 190 174 179 164 190 177 168 180 176 169 166 171 184 183 182 183 182 181 178 130 158 173 169 186 193 159 136
278 303 290 294 285 266 262 263 250 252 223 235 200 192 187 186 209 235 179 227 209 158 172 192 185 182 177 169 172 154 180 169 169 168 153 165 191 186 181 185 184 185 184 154 183 158 179 137 164
325 276 280 288 290 256 254 254 255 254 243 230 228 201 198 193 190 189 178 165 160 165 168 153 162 197 190 148 161 181 171 176 178 200 184 197 201 197 182 177 171 153 146 169 149 172 163 135 131
320 318 308 273 282 290 303 270 253 254 252 244 231 226 206 203 198 193 201 191 162 164 163 170 178 185 151 150 149 149 150 140 137 168 177 179 177 179 194 190 196 194 127 189 153 164 179 174 185
279 306 306 319 274 281 311 294 303 249 255 253 244 231 224 214 208 204 205 241 241 199 170 164 168 169 169 195 195 195 162 179 176 165 144 145 149 153 189 187 185 176 177 180 180 130 183 183 134
295 281 282 294 269 275 274 306 306 307 277 257 253 251 240 233 230 220 215 224 232 231 222 192 181 188 184 175 178 176 169 168 180 201 187 180 177 147 179 170 205 153 200 188 193 121 170 140 181
303 302 307 263 315 309 269 266 274 292 290 303 274 256 251 243 238 235 233 225 217 215 216 235 225 193 187 181 181 181 190 192 184 184 181 183 195 203 200 176 198 193 173 168 132 178 182 172 210

GFSSGP_2pvu_pres_081.txt.gz
Presure
218 223 193 181 96 176 183 188 192 164 136 92 85 99 128 107 89 96 92 89 138 148 88 146 134 129 124 117 124 103 142 144 103 103 127 117 127 112 114 114 127 104 115 130 130 133 131 149 117
134 225 218 159 189 164 134 188 168 150 139 97 90 99 93 90 100 98 91 93 91 102 138 132 139 129 120 97 87 113 156 115 104 119 101 116 134 125 124 103 109 123 128 127 119 128 136 118 124
246 233 230 201 181 155 183 163 189 168 166 107 83 95 99 98 90 96 96 96 96 92 131 145 161 155 139 117 110 123 156 127 126 109 115 125 130 98 130 117 149 119 119 120 133 131 91 123 127
255 132 191 207 195 166 208 193 195 160 161 176 138 121 83 79 130 105 129 136 89 97 97 87 90 101 108 93 96 94 99 104 117 131 109 104 135 125 93 112 111 133 143 118 124 130 123 121 130
255 224 251 208 188 173 179 211 184 83 153 72 175 182 95 105 101 142 153 98 107 90 96 91 96 94 92 127 95 101 99 127 135 114 128 128 152 102 141 150 150 124 132 130 139 123 119 129 129
251 221 211 217 196 189 182 106 135 210 143 146 120 168 180 116 96 115 98 132 118 125 103 101 94 93 104 110 101 102 105 111 101 118 141 110 139 136 142 148 120 154 151 117 84 99 138 141 128
264 238 173 177 169 194 200 178 178 199 146 167 159 157 181 157 82 75 77 77 98 97 88 97 132 105 107 87 110 102 90 111 146 99 138 87 80 137 143 137 134 141 100 136 138 126 97 133 120
273 249 169 221 176 198 72 184 200 205 196 165 158 81 183 94 76 109 95 89 124 77 106 103 125 102 90 105 98 101 109 145 128 93 83 83 102 123 89 131 151 147 84 127 122 144 136 108 128
272 254 174 194 190 191 199 212 180 207 188 197 164 167 176 171 107 100 80 155 122 113 115 163 108 87 155 76 78 99 96 105 114 109 77 95 94 134 123 111 112 112 119 141 122 86 121 121 83
295 271 218 199 197 159 67 212 178 189 201 191 157 165 160 174 120 143 157 145 129 121 77 75 120 86 113 74 133 95 153 99 75 78 142 165 77 105 83 112 127 122 81 131 110 126 123 126 93
308 281 179 183 203 204 205 199 190 196 146 188 137 166 134 161 95 181 156 143 77 151 127 113 80 100 78 73 75 79 82 78 114 80 77 78 82 83 141 92 142 131 130 135 130 128 133 138 134
299 272 224 208 193 201 170 193 226 181 134 204 189 153 168 168 148 159 83 169 98 91 170 185 112 81 81 75 72 78 72 88 138 79 91 157 84 93 97 88 90 96 160 133 156 150 140 156 162
299 287 214 231 233 202 175 170 197 206 186 118 197 192 176 167 165 152 141 82 148 165 175 172 84 77 150 77 109 79 82 87 88 82 82 133 161 140 150 154 161 161 161 162 161 159 146 145 149
298 307 165 168 231 234 194 167 181 196 199 182 204 180 193 183 139 148 168 162 185 167 162 135 85 81 72 85 81 81 127 99 79 83 153 151 106 150 152 157 153 150 152 153 151 151 145 151 147
295 301 271 227 264 214 219 188 172 197 202 184 187 179 193 197 172 164 171 154 179 165 173 166 169 155 141 135 137 137 126 162 153 143 128 157 153 153 152 150 147 134 128 148 143 146 144 148 141
319 290 293 267 282 230 158 203 177 193 201 201 181 181 192 195 199 171 162 161 165 167 168 204 183 171 169 161 153 133 137 127 131 127 131 146 136 135 135 134 136 140 149 143 135 151 150 148 133
301 284 277 296 283 267 257 207 135 181 196 218 198 180 181 195 201 183 170 170 168 174 185 166 178 190 173 198 162 161 156 137 144 136 136 150 147 148 146 148 145 145 157 151 147 155 150 152 149
295 284 293 275 269 268 255 250 223 116 201 199 223 193 189 198 216 200 193 174 167 168 160 182 181 155 175 174 170 162 162 163 146 155 147 168 166 157 137 148 140 145 138 139 144 148 149 143 141
288 283 282 273 272 276 276 269 260 188 65 206 164 209 170 186 200 192 201 209 178 164 175 164 166 169 178 205 172 168 161 166 162 161 166 157 143 145 158 161 145 154 155 154 160 159 157 160 163
286 291 278 279 277 277 270 265 261 105 179 194 174 227 200 190 213 230 154 210 171 179 179 167 175 162 193 160 186 174 170 169 170 141 161 163 148 158 164 166 161 159 161 166 163 159 159 159 161
288 279 284 286 271 262 274 270 267 263 247 181 219 175 208 203 206 199 211 196 188 178 157 181 175 169 166 177 158 183 168 149 160 172 169 132 167 166 167 160 154 160 141 160 163 165 171 171 135
292 281 282 269 268 272 288 264 273 273 256 238 179 225 162 192 186 200 202 216 203 187 176 156 172 166 187 170 173 165 192 178 181 171 156 167 174 173 170 170 171 170 169 168 169 169 161 169 161
286 284 288 296 275 293 275 270 274 275 271 259 188 174 162 169 192 166 198 205 214 195 192 178 174 169 172 171 167 171 177 164 186 179 180 186 178 179 178 179 179 158 171 171 180 180 177 180 180
310 166 287 276 279 276 287 263 272 266 271 263 221 187 202 187 154 161 194 187 196 220 180 198 169 174 181 184 181 171 171 182 170 164 160 157 150 171 171 172 180 182 187 183 169 162 177 187 160
330 311 285 267 279 280 280 269 271 273 264 256 248 212 190 176 173 172 190 191 165 184 196 160 184 179 166 176 171 172 164 171 175 165 171 187 176 176 162 165 170 175 175 171 173 172 188 198 176
314 287 299 274 276 299 273 274 263 265 259 254 259 269 211 224 189 182 177 187 197 185 208 206 215 138 137 143 165 183 182 177 165 179 178 175 177 160 170 171 172 188 186 169 180 176 173 195 177
328 287 294 287 355 286 281 292 260 258 273 262 256 249 249 220 203 200 211 178 168 203 233 184 222 216 158 150 164 186 191 209 222 216 181 180 182 148 181 172 134 147 179 141 162 153 152 149 148
312 336 290 352 323 307 285 286 269 259 263 258 254 256 259 236 218 214 195 183 183 176 173 190 192 167 193 221 175 178 161 159 154 149 131 174 138 174 140 170 189 181 142 155 160 149 161 184 182
301 325 324 276 312 299 304 305 302 260 286 263 259 259 257 256 253 213 219 200 193 189 183 182 177 176 211 172 181 202 187 228 153 168 191 194 201 201 204 206 208 185 198 193 181 181 190 145 181
296 298 293 324 343 280 298 278 284 293 289 292 265 262 256 254 250 251 245 224 218 201 201 197 190 185 184 192 225 172 169 168 171 173 171 162 172 171 177 174 172 170 171 168 171 174 179 210 210

GFSSGP_2pvu_pres_084.txt.gz
Presure
169 123 130 163 197 176 171 163 178 135 173 87 152 102 91 102 92 87 89 93 131 151 150 126 155 123 89 142 116 123 113 140 134 150 99 143 126 104 136 120 107 141 119 123 122 127 132 116 127
153 205 128 194 159 178 162 162 170 156 132 166 94 93 88 91 98 98 91 120 113 147 159 159 95 129 91 119 146 133 120 100 101 119 127 108 106 128 124 97 116 132 102 126 131 117 126 125 128
178 202 241 239 163 176 173 180 147 116 172 163 109 95 96 89 85 86 95 98 95 96 87 86 116 131 122 105 108 88 91 156 112 129 138 122 120 115 111 140 137 130 139 119 138 128 124 125 125
100 224 167 194 214 147 189 188 96 127 143 173 169 137 167 96 100 97 98 96 96 95 94 96 139 87 142 93 133 89 96 104 99 129 100 108 101 99 92 100 142 140 156 155 160 113 159 152 83
220 224 271 137 192 128 196 186 176 216 166 149 188 169 90 96 86 96 86 95 91 115 91 99 93 88 96 98 96 93 101 94 100 105 106 90 127 123 147 133 128 148 139 146 151 157 158 149 132
178 314 276 116 211 130 71 175 193 168 199 151 137 179 170 121 151 96 98 101 131 82 112 93 122 99 100 96 93 153 155 100 119 112 107 116 114 127 121 128 128 130 112 145 118 110 140 137 139
189 320 291 205 206 213 199 204 197 178 152 183 156 184 79 159 165 136 98 106 102 122 139 108 94 111 104 92 99 103 110 102 129 136 110 96 110 159 84 150 90 114 117 121 120 84 148 142 143
304 326 314 240 167 223 195 221 186 178 176 189 184 173 177 71 151 117 166 93 107 125 96 101 92 98 142 130 109 97 102 105 105 105 105 101 78 78 83 95 106 121 136 132 79 129 124 79 140
312 336 317 237 254 233 87 185 185 184 146 153 94 184 177 172 99 112 128 117 114 90 96 97 92 104 104 104 113 81 119 100 82 101 93 113 78 80 80 86 126 110 135 120 133 117 84 110 132
326 350 310 281 222 243 223 219 182 187 173 157 173 162 188 178 146 155 144 163 138 123 94 107 104 131 141 134 76 101 81 78 85 108 93 121 78 81 81 92 107 87 87 130 90 79 142 138 135
334 346 303 317 224 239 227 217 214 82 180 157 202 187 182 172 95 147 82 149 104 150 78 126 166 135 84 82 100 83 75 130 77 75 86 149 153 83 115 86 91 89 151 160 101 142 135 136 159
326 343 306 303 239 239 234 126 184 200 183 177 208 200 203 205 195 92 151 150 123 85 129 147 162 157 113 83 120 80 74 77 72 82 82 86 112 80 83 84 155 163 156 158 162 160 151 151 152
328 314 309 290 295 258 237 176 204 215 184 184 170 181 203 193 196 164 156 153 126 123 123 79 104 117 177 140 91 77 74 78 81 103 82 81 80 83 83 100 162 161 157 134 144 143 151 155 146
321 306 317 288 304 266 243 229 187 208 201 181 177 177 201 211 198 187 154 128 151 137 157 80 133 183 174 171 113 75 82 78 80 84 114 116 86 131 153 122 152 135 144 139 151 157 153 141 139
328 304 299 279 281 310 247 218 167 203 206 188 181 184 189 197 215 177 174 138 152 144 151 155 155 158 165 165 150 140 84 83 142 103 85 95 160 159 154 150 159 134 158 153 153 151 148 129 128
318 288 303 279 271 299 256 209 149 192 218 198 192 203 173 127 210 177 162 163 169 159 166 151 164 152 162 156 183 179 182 164 96 157 132 133 128 156 128 128 132 131 142 156 153 144 144 147 149
314 292 293 289 293 257 294 234 164 178 197 200 185 184 185 188 201 197 174 177 158 163 165 150 165 148 152 187 159 170 160 165 162 164 164 154 150 134 138 135 140 150 147 145 156 147 145 146 145
315 299 285 276 284 274 290 266 161 209 89 200 191 191 176 166 182 191 203 172 167 161 167 174 160 176 160 151 160 172 205 192 187 168 162 158 166 158 180 163 140 150 127 141 147 149 154 160 160
312 301 281 287 296 271 270 272 163 194 215 193 189 195 190 200 176 186 218 178 167 145 168 163 164 167 184 163 158 157 158 170 200 172 203 170 179 184 170 159 162 163 153 154 160 161 163 163 168
309 306 286 266 272 299 266 247 201 193 200 200 191 180 188 128 200 178 180 166 168 182 173 128 168 165 153 159 162 167 161 160 151 145 134 189 172 170 176 174 127 172 163 161 164 168 163 165 165
366 289 300 280 271 281 282 262 203 209 116 199 79 191 175 185 184 193 187 165 185 179 188 187 188 176 181 166 164 162 175 174 174 181 184 160 173 179 171 160 171 172 171 170 172 171 165 165 167
322 276 275 275 287 266 263 273 177 264 242 232 190 196 113 157 186 188 179 174 159 174 166 186 190 191 188 190 189 184 155 159 155 166 172 158 179 160 188 183 168 176 177 173 171 171 171 161 179
311 289 280 283 274 276 267 288 266 286 261 237 212 194 194 175 196 184 186 175 177 186 177 186 180 185 193 147 191 181 181 181 180 168 193 169 162 165 174 162 152 155 181 183 179 162 128 153 174
294 323 294 289 285 278 269 287 291 272 273 283 236 203 204 188 180 196 193 212 199 166 159 173 184 174 191 193 201 201 200 156 168 169 163 175 173 176 175 175 166 193 172 172 144 173 174 149 168
305 299 286 287 296 294 279 290 269 282 276 273 280 279 207 204 198 197 190 195 208 208 180 176 180 190 193 177 217 206 199 176 141 165 204 166 167 167 172 177 173 170 167 164 178 171 168 176 142
294 291 289 283 288 281 275 277 283 290 272 272 286 282 292 281 238 220 190 189 188 186 209 184 182 190 193 194 198 199 199 157 195 127 166 163 167 197 180 181 161 169 176 183 165 161 184 180 140
290 301 280 282 283 297 288 289 292 288 288 287 291 293 283 270 283 253 229 214 198 173 159 172 178 189 182 213 204 167 202 209 179 208 133 139 140 158 190 181 183 183 181 105 182 182 137 119 137
302 336 285 277 276 281 277 268 273 271 274 274 279 299 275 278 291 214 254 187 184 197 172 171 168 194 193 193 192 185 198 199 206 207 170 177 150 150 150 151 190 185 148 190 193 204 198 134 181
331 332 339 307 283 283 283 277 269 278 299 292 272 282 281 267 274 280 267 254 202 182 205 218 186 181 176 192 188 188 168 184 170 214 203 178 217 213 188 129 177 159 171 161 161 174 161 164 174
303 323 322 333 346 298 288 286 285 275 277 281 279 281 285 267 271 273 253 250 202 201 193 241 183 181 183 178 170 179 194 201 190 176 210 162 160 214 206 215 216 216 232 228 167 161 162 163 164

GFSSGP_2pvu_pres_087.txt.gz
Presure
152 149 131 150 259 178 157 149 120 165 88 98 90 86 96 77 150 88 154 91 161 144 114 88 100 166 163 149 92 100 86 152 110 140 114 110 98 116 106 115 125 126 106 120 129 141 145 119 122
99 140 142 165 169 198 119 185 163 160 186 95 95 148 83 99 95 95 86 78 88 96 96 89 128 160 161 150 150 152 126 98 100 116 99 101 123 123 127 133 115 106 119 137 142 132 158 129 161
96 142 159 164 168 256 156 119 147 96 177 168 111 165 93 90 87 90 79 91 94 118 96 168 136 83 101 118 109 96 137 106 87 130 107 118 127 132 96 96 110 139 134 103 138 122 127 147 157
116 124 107 182 318 167 197 131 136 142 126 198 162 129 110 166 93 96 95 94 94 95 92 96 91 88 152 161 147 89 160 90 90 97 147 161 153 121 129 129 133 131 108 105 130 109 147 114 119
139 151 112 219 353 165 170 221 149 161 161 103 88 164 156 172 156 97 94 84 94 90 95 96 93 92 100 123 109 147 104 93 99 94 101 112 108 91 120 102 120 132 113 127 113 107 129 107 97
137 165 165 164 73 286 171 237 223 137 161 124 89 148 121 177 167 133 98 153 102 93 96 90 94 100 101 85 142 127 100 92 99 147 120 152 126 128 101 90 94 126 125 119 145 135 116 134 128
170 133 183 156 340 115 119 76 81 199 132 176 177 143 148 140 171 178 110 86 87 93 90 91 104 103 89 90 96 103 97 91 154 96 103 160 152 153 100 104 111 84 98 140 114 128 136 134 133
396 320 364 276 96 315 145 184 220 215 187 170 167 133 157 127 92 161 187 90 171 100 103 99 111 111 139 92 98 103 96 96 103 101 102 102 76 141 108 77 79 82 152 137 110 79 143 135 144
364 351 336 359 328 226 197 228 229 213 191 131 177 154 170 160 129 118 95 176 152 139 103 101 131 103 125 131 112 96 149 155 96 146 103 125 109 77 94 98 115 84 153 108 143 92 100 94 112
361 369 334 224 325 312 242 62 234 221 204 165 174 193 171 170 79 154 147 184 161 88 109 95 109 105 111 78 94 101 90 74 73 101 127 70 136 104 88 79 116 79 80 104 84 88 131 96 167
360 372 313 306 290 304 267 232 221 220 207 184 179 185 166 189 116 121 141 144 75 126 150 93 127 178 96 140 130 141 119 78 122 77 77 73 86 98 90 148 87 83 84 84 84 144 157 154 154
141 347 244 258 307 330 285 232 243 224 212 185 180 136 172 188 189 151 162 169 167 168 146 153 151 123 163 129 94 110 100 124 107 79 77 80 145 72 82 72 83 92 84 88 139 123 158 155 137
410 310 276 150 329 323 295 237 222 222 222 190 167 185 175 165 152 179 161 158 151 152 163 78 92 171 179 75 146 181 167 180 148 73 82 80 78 87 133 125 127 87 126 128 151 143 122 151 150
351 296 276 298 314 331 302 268 233 219 234 190 184 175 171 172 161 169 175 170 162 157 168 105 151 142 78 170 162 108 145 118 77 97 78 77 100 88 83 84 108 145 125 144 158 141 143 135 131
300 295 280 314 313 309 293 268 203 207 214 189 199 184 208 174 164 173 140 160 172 184 75 152 156 137 122 113 112 86 99 172 172 115 178 146 116 86 90 103 132 138 133 130 162 165 163 133 144
300 288 282 279 299 297 298 316 257 211 226 223 191 176 167 179 163 154 159 167 129 151 155 156 150 154 139 161 83 116 150 161 177 184 168 171 90 158 183 178 147 148 128 128 134 131 129 135 139
299 288 284 323 309 292 298 268 227 231 213 225 199 190 172 152 169 173 150 173 164 156 151 151 165 153 170 150 157 168 154 187 190 172 151 168 179 174 184 165 166 167 164 166 162 162 150 167 159
310 296 279 266 313 277 296 284 300 213 217 212 211 198 174 179 162 173 222 179 185 180 161 168 172 146 146 149 161 185 171 169 176 154 152 157 179 183 166 170 181 175 176 168 175 159 169 163 154
316 287 284 283 257 273 291 299 256 207 219 211 221 191 180 177 179 179 167 150 184 193 189 190 167 180 167 166 160 164 156 163 166 176 158 161 150 154 159 171 169 174 148 187 168 176 154 181 182
310 297 292 279 275 258 272 293 302 259 225 207 203 163 202 174 178 183 177 168 199 181 183 183 182 155 154 186 163 169 160 160 155 156 161 179 167 153 156 152 166 159 169 176 172 199 168 179 175
299 289 310 289 281 283 262 265 281 284 213 223 208 185 82 168 176 202 184 170 183 194 174 188 177 169 153 158 157 164 146 158 170 215 169 179 161 160 169 162 159 167 143 160 196 173 164 163 141
292 283 281 289 274 286 290 276 262 289 290 292 215 199 153 206 101 177 184 154 141 187 181 189 179 175 164 158 166 171 170 165 151 171 178 156 160 163 160 164 161 164 161 171 157 157 169 160 170
286 295 295 275 268 262 267 260 287 298 280 240 212 225 232 165 208 185 180 183 207 173 202 192 183 168 146 172 174 160 150 165 167 169 168 160 167 167 149 167 161 172 170 173 171 188 177 168 176
294 282 271 281 281 280 272 279 262 267 284 295 216 160 172 214 217 194 117 173 183 189 174 185 153 171 189 181 174 171 159 168 168 178 177 176 186 178 175 184 161 172 177 181 178 175 171 179 164
304 289 268 268 265 276 289 278 296 285 273 272 281 231 178 159 189 205 201 174 177 186 179 203 180 186 180 200 181 157 170 177 179 157 184 183 184 189 191 197 200 188 184 166 172 151 164 170 198
292 287 287 271 272 274 276 284 283 279 271 270 278 276 206 190 187 190 216 187 199 178 178 187 182 199 198 204 166 154 139 168 172 176 182 176 154 193 193 210 125 179 136 162 134 142 166 173 161
347 281 270 289 276 274 269 269 279 278 279 288 282 285 208 208 199 189 182 191 183 181 205 173 172 188 194 190 189 170 167 170 170 165 170 186 189 184 208 201 203 208 227 206 216 153 158 151 203
325 268 279 286 292 287 279 271 269 279 282 276 281 286 284 254 232 215 204 192 190 193 197 179 177 177 178 176 184 177 178 192 153 182 178 173 181 192 188 168 194 171 139 206 206 207 211 185 211
317 320 330 278 273 289 290 283 275 272 279 287 294 279 281 285 291 207 202 210 152 192 184 190 188 176 171 172 148 189 198 205 166 188 189 210 188 171 166 185 153 174 169 212 141 202 211 170 179
346 303 301 317 279 282 283 295 291 292 284 296 297 304 299 294 285 283 291 281 203 203 204 192 199 204 198 191 184 193 185 183 186 192 198 168 178 182 179 181 180 194 172 195 193 174 176 210 172

GFSSGP_2pvu_pres_090.txt.gz
Presure
125 127 143 132 115 109 140 110 111 168 117 148 88 90 91 90 79 90 114 156 100 148 141 95 142 135 153 93 126 155 136 113 165 96 102 152 112 101 105 102 105 131 153 110 120 117 116 140 136
137 128 123 127 134 106 122 156 139 176 158 157 153 106 85 85 96 91 91 149 128 154 167 97 91 119 116 119 147 164 162 90 118 147 127 130 99 105 122 120 115 98 113 128 129 124 141 119 120
119 143 100 134 113 120 138 115 140 152 183 127 158 83 84 106 92 139 93 89 88 81 87 159 152 150 139 139 152 92 162 154 90 135 148 138 144 153 114 107 97 123 130 108 116 131 108 108 96
134 222 117 108 105 128 133 148 153 151 185 190 133 163 146 167 103 86 166 94 97 90 143 89 97 96 146 85 155 145 159 146 96 90 90 110 125 102 94 157 98 96 116 100 122 132 131 83 122
127 135 109 124 139 121 150 102 155 156 209 174 109 148 157 173 92 95 107 87 87 91 94 94 131 92 162 162 165 149 133 88 157 89 95 95 91 149 103 95 104 85 97 93 73 144 108 161 110
103 187 138 152 147 110 120 151 153 132 175 204 159 172 177 145 142 120 137 92 94 95 94 128 98 119 126 88 95 143 98 88 125 91 148 90 105 101 131 135 155 99 95 82 99 95 159 126 119
119 146 129 170 125 120 65 156 152 157 239 172 194 161 171 147 132 188 145 175 167 91 92 98 91 101 96 86 100 102 89 107 125 96 90 102 109 116 103 104 102 101 148 93 81 158 120 87 137
138 130 128 163 80 145 130 156 82 75 82 235 218 160 189 130 164 105 151 150 183 168 104 105 101 104 102 108 104 87 94 95 102 93 93 104 100 104 77 74 103 104 100 127 81 81 82 78 91
164 158 162 171 167 156 139 152 166 147 233 246 210 191 65 129 163 152 151 166 148 182 131 89 105 132 102 120 109 118 98 107 103 88 95 105 120 103 83 101 125 90 102 75 86 82 82 82 87
157 151 153 202 297 307 285 270 211 208 216 229 213 183 179 159 158 149 164 172 143 150 158 162 177 95 104 103 98 102 129 155 141 94 119 136 86 72 111 118 77 109 97 133 110 79 118 87 90
146 400 370 359 335 372 335 321 306 248 176 231 161 185 221 192 166 140 160 165 157 137 153 178 143 103 155 108 155 110 112 113 103 75 72 75 76 74 83 75 79 136 83 83 83 124 87 102 128
438 443 382 272 346 349 348 313 322 277 255 233 211 163 195 201 133 145 139 150 83 126 90 156 187 132 176 104 137 85 96 165 106 140 138 132 78 78 77 79 78 88 91 76 156 158 151 125 161
427 443 378 329 184 327 300 306 314 228 253 238 219 204 179 188 132 176 133 156 140 149 125 129 163 116 182 119 122 134 193 189 118 133 118 78 138 190 78 81 112 144 83 138 90 169 134 153 123
410 445 344 324 298 142 139 279 311 205 250 239 250 177 192 180 182 163 133 146 169 110 164 118 74 138 154 162 158 142 94 144 143 162 164 140 159 106 112 87 83 124 84 87 125 144 125 135 131
408 383 198 293 290 109 293 345 313 256 245 253 240 203 191 211 194 155 155 153 181 184 157 166 130 144 149 81 80 153 85 160 180 156 126 153 191 184 191 178 157 90 164 142 143 166 173 173 154
425 316 301 306 283 275 291 334 316 141 240 229 187 245 185 174 175 141 166 146 177 155 185 82 164 153 159 157 79 176 83 120 104 103 135 176 127 131 144 171 173 198 198 183 179 184 167 163 170
349 295 289 282 287 260 282 298 301 287 248 220 210 235 202 201 183 156 164 193 161 160 175 165 169 72 106 165 166 162 159 154 76 160 162 147 150 176 173 161 181 145 168 166 160 192 173 167 166
309 297 286 291 273 266 270 303 314 294 242 240 223 226 191 214 185 171 163 171 171 159 164 146 170 170 162 161 169 178 157 186 164 176 162 161 161 157 172 195 176 183 153 152 184 146 174 159 152
300 281 299 288 289 262 278 292 308 321 241 235 248 213 201 176 219 179 174 172 187 164 154 151 160 166 151 158 171 172 181 174 177 142 166 125 159 179 148 167 157 164 157 166 197 154 171 164 178
289 284 272 270 276 294 256 276 298 336 265 234 222 210 201 204 108 198 171 156 184 170 163 176 170 154 154 170 147 145 132 156 148 160 166 156 159 170 170 156 167 166 167 176 180 150 181 150 163
285 274 272 276 281 259 266 270 283 309 279 233 229 231 212 202 196 182 130 173 174 155 175 167 178 178 134 164 161 147 158 160 156 158 175 178 188 168 154 166 150 166 169 178 169 195 170 165 175
293 278 286 286 265 256 266 293 300 307 275 255 223 226 228 205 207 187 179 180 172 169 169 205 165 167 172 171 165 159 162 161 156 167 169 150 160 182 177 170 201 174 184 185 180 184 186 173 177
275 290 270 319 293 280 273 292 274 263 290 244 241 217 219 220 196 165 186 192 180 161 188 185 155 187 187 179 172 168 169 162 165 130 173 191 178 170 191 175 183 181 168 169 174 177 148 182 175
281 271 276 270 306 270 280 278 288 262 263 272 235 241 218 220 218 203 191 192 182 175 173 198 180 180 180 161 154 178 179 176 162 160 178 166 173 144 168 170 183 179 159 168 178 177 186 175 175
282 276 268 279 276 269 276 276 268 290 276 267 212 222 215 209 204 213 201 188 164 162 160 178 166 172 178 187 158 160 184 147 171 167 181 175 175 176 180 154 169 177 164 178 142 150 153 122 171
300 277 286 262 262 263 262 258 263 274 296 295 273 270 232 217 207 209 207 208 166 159 157 176 164 179 183 169 165 164 170 169 172 176 152 178 164 165 161 179 181 164 159 167 157 166 180 161 189
311 285 286 277 273 270 268 262 267 256 259 274 290 305 227 196 188 218 214 203 207 208 133 181 166 167 214 173 175 189 172 176 171 170 159 182 172 180 180 155 171 143 190 170 164 172 178 157 188
291 279 294 276 284 278 279 287 284 282 281 279 279 289 306 287 200 212 223 200 208 201 193 220 203 188 188 179 177 197 185 180 158 175 151 173 160 165 179 182 160 164 165 148 180 169 179 173 175
284 279 282 285 267 276 270 267 277 264 265 269 268 272 286 297 211 211 201 237 213 199 208 209 187 193 204 198 194 182 183 173 175 172 184 176 170 184 179 186 192 212 170 182 163 188 196 180 159
322 294 296 278 259 268 272 277 275 272 273 271 273 281 281 284 285 250 254 212 223 222 217 185 200 199 194 178 175 192 205 203 193 156 198 146 190 145 170 154 162 184 182 194 208 201 192 210 191

GFSSGP_2pvu_pres_093.txt.gz
Presure
126 119 130 135 126 140 117 115 121 115 149 142 90 83 92 90 90 110 145 179 104 169 148 177 161 161 138 123 157 139 140 149 140 104 118 109 175 116 111 101 113 123 123 100 138 111 154 133 134
121 119 127 125 118 135 112 132 123 128 122 152 165 167 89 89 93 89 85 94 95 157 162 162 163 173 143 137 134 137 146 138 147 88 155 170 169 97 149 125 137 142 129 96 156 130 118 120 127
131 107 108 120 130 128 123 107 140 136 115 113 148 162 174 137 87 106 96 90 101 118 154 166 108 91 106 143 133 106 140 141 143 151 95 89 152 152 152 148 124 97 96 96 159 122 101 159 146
110 97 131 118 86 77 95 105 129 144 127 141 119 148 150 159 104 90 85 96 89 87 118 164 156 162 172 91 96 141 154 96 147 155 163 90 91 151 148 99 124 94 96 152 108 99 85 110 92
114 96 124 139 103 222 139 116 164 118 129 148 110 133 161 170 100 102 94 85 86 89 95 89 90 90 155 176 128 88 159 137 152 153 106 90 95 96 92 101 116 100 154 105 97 81 79 109 155
110 100 134 134 125 140 130 118 133 132 142 149 152 145 144 164 125 142 101 142 93 95 93 99 92 96 93 135 167 134 128 160 125 134 145 140 93 113 88 117 102 121 126 122 100 160 152 87 150
166 152 215 177 176 133 111 130 130 154 130 137 145 151 150 137 120 147 195 129 163 104 92 83 97 101 98 103 130 115 106 119 160 153 132 105 93 94 102 96 128 72 106 124 102 98 80 80 82
176 174 104 126 146 114 75 82 64 136 94 103 150 128 153 143 175 151 182 163 167 118 178 96 111 94 90 97 102 91 92 101 100 90 94 133 124 90 104 155 106 109 98 108 77 147 103 79 145
89 119 142 124 119 162 87 139 160 143 136 140 141 147 146 143 183 138 174 149 181 155 172 145 166 124 135 122 93 87 98 103 91 83 102 99 99 96 100 108 108 85 106 126 95 77 82 111 142
114 166 140 150 141 129 130 124 142 127 102 141 77 73 79 138 212 177 143 144 176 135 106 168 158 140 88 97 101 96 99 96 139 124 128 111 125 94 96 143 80 118 83 79 111 118 78 77 87
101 130 137 103 131 146 126 73 134 139 103 146 143 146 148 140 158 159 149 142 162 172 187 165 137 161 179 167 100 97 92 88 116 102 104 168 138 97 77 101 106 73 79 72 122 117 86 81 124
93 131 131 133 156 148 160 152 148 134 138 146 158 150 150 149 144 172 159 158 168 124 184 142 147 80 113 160 172 168 136 101 104 106 159 103 108 77 123 95 129 121 72 141 78 166 81 84 87
147 141 139 143 150 162 146 79 164 145 248 194 156 164 148 150 147 186 180 163 167 162 181 157 150 102 158 167 189 162 169 178 102 95 93 90 171 122 75 77 132 116 154 80 82 160 139 131 149
135 137 167 300 410 356 341 365 337 353 347 311 286 198 170 149 181 163 160 190 173 160 116 133 150 132 76 126 131 158 123 83 129 101 156 141 145 146 194 186 73 178 182 189 191 153 182 128 168
147 437 427 449 407 355 332 357 338 346 330 297 250 249 230 212 198 158 176 189 155 196 190 156 136 171 116 148 140 138 140 161 182 187 179 162 177 163 84 85 186 176 144 165 191 169 168 179 169
400 414 425 163 345 340 361 365 337 324 333 282 250 261 231 218 204 219 67 145 166 167 164 158 141 181 146 148 150 118 88 136 145 157 157 152 125 94 96 159 123 153 127 121 140 152 148 140 146
421 436 369 332 305 309 310 360 327 326 333 165 139 248 257 238 186 206 225 127 122 194 177 164 161 174 144 176 164 178 133 121 153 105 155 131 95 140 127 138 163 154 185 151 152 159 195 166 170
423 356 334 311 300 301 292 283 327 321 323 250 247 241 208 152 177 187 182 180 147 172 176 174 162 192 159 162 178 142 160 175 119 154 163 157 155 162 171 156 154 185 157 158 158 165 162 155 166
361 322 303 286 275 297 290 271 299 337 299 267 244 227 204 213 199 190 173 175 162 161 165 165 171 149 142 168 173 180 174 175 169 157 167 161 159 162 172 182 163 119 112 159 190 174 205 171 169
326 307 298 290 287 272 271 270 300 333 199 256 226 229 225 176 195 184 190 162 188 179 181 171 179 166 171 156 164 163 162 147 156 158 137 149 138 125 170 189 179 148 143 174 209 145 181 162 176
295 298 289 277 272 264 283 255 289 323 272 254 222 222 234 207 205 193 186 60 188 194 186 166 178 161 163 168 170 167 162 153 157 177 163 141 162 138 170 168 166 152 186 194 185 156 182 180 182
294 286 286 278 276 262 279 279 280 311 284 244 241 214 223 230 196 200 201 165 181 210 208 178 184 176 143 162 187 162 169 182 176 174 164 162 174 152 195 157 198 169 179 181 188 170 180 144 185
289 289 288 271 287 264 261 272 292 313 299 240 233 244 218 231 211 214 199 203 196 198 200 181 172 181 176 167 187 169 180 166 159 174 159 156 187 174 168 162 177 152 159 146 176 132 189 211 160
281 278 271 281 274 267 260 290 278 290 308 236 238 227 222 128 221 231 195 179 208 217 209 190 178 160 163 176 152 158 155 165 153 156 168 163 153 143 164 168 162 169 195 160 197 179 148 202 191
290 271 271 267 273 266 267 284 276 281 307 303 233 226 226 217 209 198 227 245 205 197 196 160 149 166 172 161 177 158 168 180 180 186 158 155 169 175 178 176 171 187 170 182 172 190 161 172 161
277 289 288 274 293 279 274 283 274 269 302 319 232 253 225 235 221 217 208 220 233 220 186 183 182 190 187 185 116 154 154 156 156 164 188 170 172 171 178 164 161 190 157 180 181 139 193 148 183
275 270 269 259 261 264 258 257 258 302 317 298 250 231 239 241 224 223 220 208 208 202 137 163 177 178 177 151 166 202 187 181 157 153 174 170 171 168 159 172 169 168 155 165 178 171 144 173 181
281 279 270 273 260 260 270 279 268 270 284 279 289 241 232 231 235 228 228 222 220 206 205 186 211 232 177 175 199 168 143 150 166 165 170 170 166 163 163 169 171 170 171 172 176 167 177 172 182
302 277 288 290 278 269 263 276 271 278 274 270 282 279 238 243 233 242 231 218 215 230 195 181 214 186 195 185 177 140 151 163 161 160 158 173 171 157 159 171 160 166 177 177 168 180 163 175 171
143 281 275 271 272 271 286 284 275 271 280 270 264 278 291 237 229 239 234 243 225 209 219 203 213 232 222 191 179 174 184 187 168 179 168 172 172 169 197 175 177 170 176 138 182 181 167 150 176

GFSSGP_2pvu_pres_096.txt.gz
Presure
127 140 169 111 120 124 118 120 130 124 147 148 149 119 121 85 84 85 83 141 157 159 170 163 95 166 157 99 141 95 139 138 91 104 100 89 145 115 118 138 97 112 104 137 97 99 157 141 135
124 111 120 129 90 125 128 127 108 114 94 118 149 147 153 132 85 85 89 90 128 160 125 126 159 161 165 164 149 148 130 132 151 139 87 148 150 150 161 141 153 152 145 146 95 129 141 160 120
125 120 108 119 113 107 126 128 123 144 135 138 106 138 145 150 134 85 93 84 95 83 142 146 176 176 162 163 165 160 171 138 133 132 131 91 143 154 164 163 153 152 152 97 88 95 74 83 85
113 112 107 113 109 116 118 138 133 133 144 142 95 109 149 142 151 176 147 83 93 89 84 96 113 179 87 95 92 161 94 103 146 138 149 135 143 90 93 160 152 114 149 93 80 144 99 85 103
115 117 115 120 115 113 131 153 138 100 138 150 98 115 131 148 168 166 177 161 84 85 93 91 94 135 152 178 166 97 90 172 168 142 151 152 120 91 92 90 92 109 102 95 129 106 128 87 123
116 147 108 111 101 118 115 90 111 120 155 147 148 146 139 149 143 141 147 194 78 89 83 90 90 105 125 88 179 145 159 127 93 165 132 90 114 153 92 94 123 91 101 100 107 107 104 98 104
127 121 92 183 118 95 111 130 155 111 182 124 149 116 144 141 139 147 145 147 159 171 93 87 88 91 98 95 121 161 109 161 88 131 151 155 93 96 99 93 89 112 112 102 102 89 101 107 103
155 243 164 136 162 176 130 119 147 146 129 132 152 137 144 127 123 143 151 147 164 131 199 100 98 110 157 96 88 136 157 99 95 153 166 130 91 92 103 151 80 100 97 99 87 91 107 145 122
137 100 117 139 104 115 100 178 132 101 76 76 89 148 152 141 139 137 140 156 161 134 166 183 105 98 121 96 92 92 93 100 116 90 94 97 123 96 102 99 100 80 102 78 118 121 97 111 120
126 94 115 118 227 114 139 131 77 124 117 121 134 147 141 127 133 118 148 240 179 144 149 197 163 150 145 94 154 107 150 100 89 89 96 93 91 117 129 130 143 78 112 138 76 91 76 79 80
95 175 166 203 100 90 248 117 139 118 129 128 94 158 123 137 145 99 130 132 165 179 197 146 128 133 127 145 192 129 99 92 87 102 92 93 132 111 93 111 139 123 76 97 72 80 130 108 81
166 175 187 302 97 136 120 78 142 148 126 155 132 151 141 147 148 136 91 77 97 144 150 194 139 121 186 106 85 161 187 181 99 103 136 98 91 107 161 95 105 83 87 97 134 76 75 100 149
174 132 244 197 144 110 160 131 141 145 147 142 114 144 124 136 136 146 152 132 72 123 163 176 143 151 145 205 154 121 142 122 140 151 122 119 124 90 104 102 111 100 82 94 75 104 86 182 164
201 173 166 167 150 147 133 129 134 129 126 121 109 135 134 139 135 141 139 138 147 90 141 143 156 137 135 138 177 161 153 166 160 120 160 173 79 170 123 87 148 121 103 147 160 80 139 171 189
242 151 203 149 151 143 173 143 131 140 154 157 153 127 135 132 145 137 141 145 132 140 147 142 152 183 179 161 146 143 186 118 132 126 132 83 80 97 162 152 157 155 161 151 179 164 168 167 132
146 187 148 149 151 148 136 142 145 158 150 148 167 153 161 140 141 139 147 137 144 139 143 147 147 151 171 160 100 91 141 144 159 133 120 134 140 143 165 163 98 181 93 123 83 169 153 144 134
169 154 264 150 161 156 151 352 274 360 342 281 182 173 161 151 152 152 145 208 146 142 155 151 150 141 179 165 184 159 146 146 128 162 176 136 159 170 161 157 139 154 185 174 163 108 176 151 163
171 329 296 400 429 384 378 379 377 340 335 351 321 325 226 189 210 206 205 231 192 97 179 164 132 176 180 179 176 170 158 138 146 119 147 182 163 136 157 151 117 165 140 170 137 136 140 158 116
370 360 381 381 410 345 347 341 327 327 327 346 301 286 270 246 237 256 203 196 191 145 199 153 183 171 188 181 180 174 168 134 162 171 143 158 187 143 131 154 166 131 189 156 180 173 179 177 172
404 330 358 350 337 333 320 306 313 329 339 329 304 274 249 230 226 229 199 200 189 201 197 177 188 164 176 171 182 167 166 181 178 169 174 159 158 138 136 142 130 183 136 171 148 186 172 178 135
333 325 319 155 317 302 299 326 324 325 350 317 271 248 232 245 241 217 184 198 188 185 182 177 185 171 159 161 161 187 174 173 122 148 160 159 156 157 173 167 171 162 151 142 178 169 125 168 183
311 303 279 295 285 281 287 289 299 320 328 302 270 256 238 225 208 201 188 195 62 182 195 186 179 143 176 185 151 168 180 165 173 166 158 178 163 147 167 139 164 156 178 141 154 172 159 177 136
299 291 291 287 289 275 283 276 275 319 319 295 258 234 221 227 237 201 197 188 187 185 189 198 176 187 181 190 164 190 184 187 170 175 146 167 177 164 173 180 160 140 156 187 134 187 204 164 166
298 282 279 285 280 282 277 271 282 298 320 277 257 233 218 217 230 219 202 208 202 204 199 152 198 182 215 182 175 163 162 181 178 162 148 151 159 174 174 172 179 139 174 140 143 188 168 197 150
293 282 269 269 267 271 294 263 282 292 325 267 247 231 228 223 207 209 200 204 186 209 189 189 204 193 196 206 190 164 177 178 181 186 187 178 163 165 173 154 145 187 189 179 170 186 173 193 189
281 281 271 272 271 267 275 281 286 333 305 281 247 244 245 222 219 218 220 199 203 186 189 192 192 205 222 204 192 180 182 175 164 161 163 190 154 166 178 187 176 163 196 189 175 194 176 191 169
278 275 269 283 280 267 284 286 274 304 322 263 256 228 230 236 222 228 200 197 215 207 202 181 188 185 195 192 188 176 173 177 187 162 163 188 169 162 173 181 156 147 180 200 205 177 192 168 180
293 284 265 272 281 266 290 270 272 314 322 263 251 235 238 243 225 221 214 210 206 204 209 202 202 200 192 183 190 200 189 189 186 198 182 159 159 166 170 192 183 199 173 160 173 171 166 188 189
283 268 278 275 282 266 272 276 272 292 315 279 264 235 233 242 214 221 207 210 209 207 201 206 193 200 195 192 199 194 180 191 201 179 167 178 182 171 167 160 177 171 170 173 161 176 179 190 192
263 274 278 265 272 270 267 279 251 244 294 312 257 257 232 236 251 217 220 207 214 222 216 213 183 194 197 202 204 200 198 190 187 196 167 162 171 164 163 168 177 161 156 168 178 160 195 187 158

GFSSGP_2pvu_pres_099.txt.gz
Presure
193 92 91 117 123 120 112 129 73 130 135 117 155 141 116 99 85 88 121 77 99 119 175 166 156 156 161 158 113 95 126 111 131 118 107 101 104 141 117 131 93 121 101 164 172 144 89 105 137
142 119 220 119 121 89 105 115 117 126 116 127 127 143 138 116 112 84 77 88 85 85 90 170 176 172 120 150 159 168 127 117 147 158 134 100 88 121 141 118 149 138 163 159 163 100 74 139 107
133 141 145 123 188 115 98 139 99 114 129 141 116 117 140 134 134 85 82 84 124 85 87 152 136 107 162 162 164 164 166 158 146 151 132 130 96 123 143 147 97 155 144 136 143 82 79 134 120
137 138 117 120 136 152 124 129 123 126 123 136 134 127 165 147 118 159 137 154 162 90 83 91 100 161 151 179 174 165 164 163 158 154 104 142 138 107 145 108 141 93 95 118 157 110 101 141 103
107 135 107 133 146 128 124 101 114 119 127 135 142 137 136 135 132 142 142 154 152 84 125 107 91 85 96 131 91 103 169 163 161 116 96 164 131 148 92 94 91 96 109 99 101 99 100 102 97
190 217 142 128 110 234 166 130 119 112 112 131 103 138 155 115 136 105 136 136 153 158 111 171 117 94 91 94 163 136 176 166 116 98 160 167 154 159 145 90 97 122 90 96 148 98 93 81 77
172 146 173 131 123 132 120 122 120 125 113 94 151 145 97 143 139 146 141 128 144 149 161 125 173 83 104 88 104 102 97 119 177 163 93 93 139 169 95 91 101 144 102 73 142 141 96 150 75
148 157 132 197 237 166 125 136 124 124 129 89 137 124 151 151 145 124 93 121 146 150 135 145 156 183 86 88 87 94 91 97 150 95 158 90 158 167 145 88 99 94 73 157 92 104 95 78 93
102 134 141 141 150 86 90 124 82 113 121 211 106 129 109 134 116 149 131 131 131 152 181 163 150 157 178 109 89 94 120 84 86 92 95 122 91 91 94 90 130 109 98 96 139 124 88 96 97
121 165 192 151 167 117 139 118 124 112 241 156 242 141 106 145 123 122 128 141 134 127 157 172 168 162 130 167 128 87 112 90 89 97 92 94 100 90 126 119 105 142 76 97 146 76 81 95 72
114 201 117 106 105 236 157 168 144 186 178 170 85 86 143 146 93 127 131 143 134 142 148 157 145 146 163 130 186 145 154 94 92 164 96 92 92 91 94 132 128 146 90 121 138 165 151 75 100
139 149 158 98 168 96 118 197 125 152 80 199 137 133 155 150 93 122 122 124 77 128 158 144 137 163 192 107 172 124 131 178 187 127 100 90 125 90 102 97 85 105 139 168 84 95 92 92 93
123 93 101 133 152 117 158 129 107 198 88 111 274 134 132 145 175 121 103 127 132 133 123 128 108 132 155 149 144 116 114 126 178 156 158 130 153 157 128 97 96 100 93 100 98 90 103 80 140
144 145 165 154 163 184 155 94 188 204 211 271 134 162 133 135 144 132 114 129 71 126 141 93 116 150 137 181 138 131 190 143 141 162 202 189 146 117 125 159 110 76 174 163 116 157 164 86 120
145 305 144 159 172 201 195 154 206 261 267 269 150 147 150 125 150 104 111 126 130 117 90 131 134 103 143 139 144 143 143 172 186 153 175 131 187 169 177 132 108 147 153 170 137 172 165 164 104
154 124 143 235 183 227 267 246 225 178 188 141 146 132 158 166 159 155 157 128 133 141 93 137 132 140 142 149 146 138 152 138 157 140 159 139 120 157 124 128 147 85 135 169 74 71 160 161 150
147 153 175 187 275 323 217 141 195 167 154 158 158 132 147 136 127 125 135 147 139 116 140 138 141 142 150 146 159 166 142 149 146 149 113 156 142 135 124 172 86 72 107 157 143 177 180 171 156
178 259 305 237 184 160 157 163 167 143 141 140 115 144 138 134 144 134 127 135 135 137 133 135 135 135 141 150 143 147 151 144 136 144 177 174 144 178 147 141 126 171 144 167 145 165 127 152 163
127 141 183 161 157 180 164 164 146 154 154 142 146 157 139 133 136 139 141 129 130 141 135 134 133 141 141 136 180 147 150 158 135 172 170 164 158 169 158 156 152 138 168 159 153 168 174 157 179
184 173 161 272 196 184 319 168 169 190 160 391 213 154 149 150 157 157 138 139 139 142 137 140 143 148 148 181 163 166 150 153 184 172 168 154 151 172 193 168 158 185 145 173 137 189 173 123 162
174 155 199 284 259 364 358 374 364 381 358 369 254 259 210 161 155 164 148 160 161 155 150 151 134 152 152 152 163 179 167 149 182 173 148 153 190 179 153 166 158 179 140 162 156 174 156 159 164
141 147 150 315 321 311 324 327 356 328 326 330 341 353 283 253 229 236 188 165 178 204 202 154 138 159 177 188 173 190 190 200 182 155 151 155 174 151 176 164 163 168 190 161 142 167 151 156 155
338 321 313 309 306 307 316 194 164 315 315 321 361 322 251 234 223 213 205 200 172 168 162 183 175 177 127 205 171 165 186 192 176 178 164 152 164 172 163 177 166 194 168 152 166 138 168 180 172
320 307 298 292 293 292 311 323 308 310 322 327 354 268 246 241 227 229 201 210 206 198 189 172 175 192 178 176 182 169 168 191 191 180 179 180 178 183 174 172 170 167 132 144 163 153 178 136 161
303 293 294 278 290 282 305 341 314 292 303 335 339 261 244 249 222 215 218 212 205 188 213 200 201 200 200 181 160 180 188 154 165 191 167 166 178 158 161 161 191 183 174 185 192 163 163 179 175
291 286 282 280 279 287 275 291 278 288 275 326 329 234 248 218 211 205 209 200 202 204 186 212 201 194 184 201 182 179 178 177 184 190 184 192 158 181 154 184 194 178 195 179 179 161 175 144 164
263 277 262 288 276 281 278 274 263 279 300 303 246 241 239 216 218 214 209 213 209 197 199 201 191 181 201 195 199 170 167 201 186 181 191 186 181 160 163 194 160 167 189 188 181 178 149 174 156
262 265 270 278 282 267 278 274 278 280 306 269 253 248 242 240 227 224 220 219 220 210 195 190 197 193 190 187 208 197 200 186 192 176 173 175 180 184 193 189 185 183 197 196 184 150 161 168 183
251 264 278 272 260 282 259 269 281 280 294 254 243 242 245 242 240 239 222 211 213 208 229 204 205 181 190 199 186 199 203 179 185 173 186 171 195 158 185 185 173 169 179 178 184 181 175 168 159
271 268 270 263 273 272 281 269 268 295 306 263 239 254 225 235 234 237 221 221 230 219 220 215 198 208 202 204 200 170 211 201 187 195 188 218 209 203 200 154 193 191 189 174 174 186 190 187 153

GFSSGP_2pvu_pres_102.txt.gz
Presure
128 128 135 208 151 110 128 126 143 126 130 130 128 126 96 101 82 103 81 90 93 126 172 172 163 165 161 167 170 136 152 113 153 160 151 133 127 106 102 118 118 111 103 144 158 158 102 73 136
156 209 172 176 130 125 114 114 127 132 135 127 128 116 141 148 86 110 97 81 80 83 81 97 124 178 180 154 142 160 165 136 110 136 121 130 155 119 88 121 135 150 123 147 100 159 154 75 128
138 119 136 196 154 135 114 129 132 90 124 117 107 128 117 148 126 126 124 82 84 140 90 89 116 157 149 152 168 159 162 158 151 150 150 143 133 105 132 99 130 138 144 104 108 156 159 97 129
177 155 159 118 153 195 146 144 117 124 126 84 144 122 135 113 90 112 145 80 83 82 109 82 85 90 159 135 175 99 162 163 162 164 156 150 150 152 159 144 140 137 94 94 116 102 149 96 92
148 156 170 129 145 160 140 138 139 220 128 117 129 130 133 117 118 140 126 146 149 157 126 143 146 86 83 87 149 171 169 142 119 162 163 89 89 154 164 163 136 104 98 100 91 77 94 123 94
155 169 168 142 102 199 141 143 132 129 121 122 112 110 122 132 120 139 154 121 141 132 147 110 108 162 149 135 91 91 86 142 111 173 165 135 111 92 159 110 139 117 91 96 107 158 83 93 88
183 140 189 179 165 193 150 184 158 129 113 107 134 106 105 112 124 126 125 158 126 110 105 123 169 109 98 169 100 128 87 91 157 113 172 158 162 107 89 121 164 150 148 104 101 91 138 82 98
139 184 135 174 146 189 164 155 148 134 129 114 102 118 100 114 97 138 102 101 107 140 146 141 113 140 165 162 168 89 88 93 89 92 99 95 163 99 93 90 150 159 93 168 150 133 93 133 73
167 191 139 186 183 138 177 145 124 129 157 100 143 119 102 127 121 127 122 142 144 122 143 116 145 130 168 152 152 162 92 88 96 93 87 84 89 91 90 93 113 91 93 96 103 93 91 115 114
157 148 141 142 140 162 191 160 123 143 90 146 148 154 141 100 123 104 131 136 129 138 125 156 147 135 127 151 148 150 153 130 145 89 130 90 93 92 89 90 92 97 91 95 126 100 73 99 135
137 139 203 136 190 154 143 137 150 128 179 108 132 139 211 128 129 135 209 130 130 120 126 140 143 143 123 115 154 171 190 151 147 148 126 86 90 104 156 92 87 145 89 99 115 81 87 91 89
151 139 166 141 143 132 138 110 102 95 149 87 163 145 176 96 73 157 120 107 77 127 132 116 131 137 166 132 149 143 164 148 141 156 164 194 169 157 124 90 149 162 101 103 94 93 101 93 105
122 141 132 141 140 126 122 138 140 152 116 139 129 222 135 115 164 152 186 169 193 120 71 138 102 145 139 152 142 141 161 157 195 182 108 164 123 193 156 195 153 118 150 123 150 128 163 166 177
111 163 132 122 150 167 99 118 159 152 135 69 127 176 185 127 144 117 148 132 119 112 151 129 141 95 122 140 167 150 160 142 134 143 140 157 127 119 104 142 138 179 182 132 153 170 102 152 163
156 163 134 124 122 139 119 145 95 149 276 162 152 209 157 168 154 170 124 135 162 184 73 119 149 148 121 96 176 163 161 157 130 138 144 134 144 158 165 149 148 174 172 177 146 122 124 126 146
161 142 164 140 125 150 137 189 159 157 156 162 180 158 185 194 272 167 170 170 135 106 185 135 163 119 156 169 151 140 130 128 134 137 135 151 151 139 85 158 148 130 147 180 138 134 120 72 131
97 179 126 129 154 145 133 222 121 126 150 183 168 286 175 179 155 197 172 147 145 182 125 123 133 114 136 133 179 128 131 136 143 147 144 141 151 147 136 147 145 151 166 148 122 118 124 173 143
279 191 137 133 135 151 251 152 152 152 170 172 208 253 215 267 259 259 155 189 154 193 217 135 127 153 148 152 133 148 140 142 135 134 146 129 137 153 137 151 156 112 177 158 151 131 139 162 159
135 150 155 140 158 139 155 154 159 243 362 277 274 258 220 135 198 251 133 120 146 138 213 74 136 135 170 146 141 142 146 137 133 135 159 134 151 149 176 140 160 153 186 180 152 154 186 155 171
158 162 143 149 149 157 246 428 239 186 171 168 170 211 194 202 229 180 140 125 145 137 138 138 144 136 137 147 143 141 143 143 143 141 144 141 152 169 149 172 154 163 136 140 160 174 168 169 167
146 149 162 158 256 368 217 171 155 162 164 158 150 162 159 162 146 156 140 133 133 132 132 138 145 139 148 136 141 144 146 142 147 143 144 140 154 160 154 187 156 166 193 180 160 155 167 171 170
143 137 152 185 179 177 181 143 143 174 268 320 168 160 154 150 171 143 163 133 161 142 140 155 133 143 143 141 136 140 125 145 145 142 142 155 159 166 183 160 171 169 182 158 159 189 165 172 175
160 182 177 173 158 282 245 163 156 351 372 385 364 167 143 147 143 147 143 146 136 187 136 143 140 143 139 145 76 140 145 146 145 157 160 159 172 142 168 166 167 170 208 163 159 157 154 170 179
149 227 312 321 310 327 330 353 339 340 314 363 362 385 314 281 232 187 170 152 151 144 143 140 144 144 144 145 147 149 152 154 152 164 154 151 159 181 110 148 132 194 161 174 153 169 170 157 190
312 310 300 295 294 305 352 309 306 306 310 335 327 348 273 263 229 259 196 187 159 153 148 149 151 152 154 155 156 186 189 167 169 146 160 182 186 157 151 166 160 183 202 143 182 155 155 172 170
311 297 289 283 282 303 292 288 295 290 306 309 331 256 235 250 244 238 238 225 221 184 181 162 181 176 189 171 168 167 167 172 172 173 173 150 181 174 170 195 179 172 168 188 188 194 179 190 176
302 145 287 280 280 312 288 282 290 308 297 322 312 249 236 230 237 228 222 212 209 203 197 189 207 198 181 194 197 175 167 167 180 182 209 199 183 179 174 208 181 131 193 199 197 190 186 181 197
131 139 289 276 286 294 278 274 264 273 317 311 308 236 231 241 234 229 213 211 216 195 210 195 197 216 176 179 195 189 189 193 167 198 197 188 165 183 178 211 199 182 187 192 194 203 183 182 177
283 125 276 286 265 270 270 271 269 270 280 310 261 232 222 235 225 226 213 211 214 208 200 221 216 191 181 204 202 205 202 207 214 202 192 192 197 206 207 189 185 185 181 190 183 189 190 187 179
269 271 282 255 263 266 258 264 282 267 277 260 248 241 224 235 222 210 219 233 209 213 206 214 207 202 198 198 188 182 206 185 188 192 204 201 193 181 180 185 183 146 193 189 190 203 194 194 177

GFSSGP_2pvu_pres_105.txt.gz
Presure
141 117 128 157 122 139 148 132 161 105 152 84 99 81 84 84 90 90 83 90 167 137 194 168 155 159 168 167 166 170 161 118 150 160 111 98 155 155 151 95 157 86 130 144 146 148 158 158 156
161 143 154 144 154 118 131 139 138 138 137 132 146 150 138 122 84 112 85 113 78 87 127 82 90 97 184 194 182 162 185 167 165 156 102 123 114 123 150 131 105 133 110 140 135 145 99 158 161
166 143 175 149 149 160 122 133 149 105 98 128 138 134 114 120 123 147 99 117 126 98 84 85 86 147 126 139 148 148 163 164 133 162 166 155 154 152 149 150 115 125 104 130 90 98 92 82 95
150 133 169 146 192 167 204 206 142 141 127 118 143 118 98 116 119 117 150 125 114 119 82 90 90 111 90 159 122 145 188 176 175 111 165 162 166 152 151 149 127 152 163 144 95 139 92 91 83
158 123 147 150 111 172 166 171 119 123 102 136 126 119 110 101 115 121 132 126 128 129 149 83 121 107 112 82 134 154 93 127 178 147 162 160 165 165 165 91 161 144 163 152 129 95 94 167 82
136 158 148 165 124 132 140 129 182 154 124 121 126 143 102 126 126 133 123 129 126 136 150 149 146 100 152 135 123 127 112 91 92 95 83 158 163 156 157 152 93 127 161 152 116 102 172 89 163
136 145 129 146 161 192 137 174 110 133 94 131 124 111 118 102 115 123 129 128 116 114 108 137 115 133 142 111 143 99 110 140 137 91 96 93 172 103 106 124 151 90 90 142 165 171 164 76 153
153 141 139 135 142 163 144 144 143 166 117 119 127 111 82 116 105 111 115 109 126 130 138 98 118 101 136 209 169 121 100 132 83 132 167 92 94 95 95 95 110 148 158 93 94 95 128 160 138
162 137 171 176 169 145 166 145 148 90 154 130 125 126 119 110 108 111 131 125 122 115 128 105 137 115 131 134 169 160 146 173 105 154 117 92 93 90 90 89 90 90 93 96 141 160 162 102 92
119 159 139 154 143 158 170 149 182 186 177 156 204 123 120 107 126 109 150 97 124 142 127 176 130 143 148 110 143 144 143 137 154 157 165 103 145 93 90 95 96 94 91 105 84 100 98 91 95
125 134 138 150 158 176 146 148 150 174 154 137 101 98 151 143 166 107 82 124 197 117 149 148 121 128 124 141 110 133 139 148 134 153 149 147 153 167 102 94 92 137 89 91 103 144 97 97 92
132 125 82 89 159 141 159 153 211 192 209 125 162 122 92 133 150 103 108 129 229 115 150 201 150 137 144 127 134 132 137 133 135 138 158 194 135 135 162 163 177 156 127 156 155 180 133 141 168
132 131 127 144 153 149 138 141 158 182 146 135 119 99 124 126 115 152 130 78 120 166 105 92 156 139 107 134 120 134 130 124 133 166 195 153 136 161 162 145 206 200 165 134 115 168 175 143 144
124 128 133 155 142 141 144 190 207 185 129 169 99 112 151 145 140 133 153 144 125 164 135 141 102 168 154 141 109 151 145 125 139 137 101 179 131 135 116 135 94 147 168 191 186 162 146 173 182
128 143 137 133 146 154 166 144 155 141 121 135 146 162 150 100 84 196 146 150 87 124 108 173 81 158 137 216 112 135 125 161 144 130 140 133 147 127 138 140 152 133 136 139 167 177 149 158 129
142 127 141 142 135 113 152 174 137 106 126 105 140 168 136 152 122 129 177 85 157 124 120 159 79 90 119 120 212 149 83 168 130 135 126 135 125 141 154 138 141 145 145 136 131 137 150 154 160
130 123 131 127 118 148 141 104 136 131 136 116 150 124 144 148 143 152 161 165 240 148 180 79 234 131 122 140 138 119 134 106 145 155 113 138 126 132 132 143 136 133 143 150 141 147 150 141 151
135 131 125 145 122 133 150 151 129 145 146 151 148 145 163 154 154 160 154 110 147 149 163 186 158 209 230 189 214 131 191 181 126 150 122 133 141 130 135 134 144 120 126 150 155 200 150 166 149
148 160 153 117 136 340 143 108 129 134 148 138 142 142 360 150 142 144 152 153 190 210 152 147 160 159 117 112 159 142 135 133 148 151 146 140 135 134 140 119 137 142 140 151 148 141 200 176 194
139 121 134 182 184 193 153 148 139 141 125 151 140 350 157 147 150 152 180 180 199 192 189 237 222 156 158 155 153 143 133 155 149 131 169 147 137 143 141 135 140 140 135 149 135 156 152 181 177
142 123 163 139 160 140 143 153 140 144 153 281 230 146 141 144 149 185 176 192 125 227 213 155 191 151 160 131 144 133 177 139 144 138 143 142 140 142 142 134 140 134 136 154 157 140 181 183 172
140 128 223 149 144 145 142 164 146 147 148 153 149 151 154 155 279 262 262 135 142 220 269 159 222 208 206 138 201 150 153 139 169 140 154 143 145 143 149 133 147 154 147 153 127 163 150 172 162
149 155 150 155 155 160 141 127 164 144 165 167 196 184 132 137 172 177 156 153 131 233 237 153 247 211 206 153 168 145 144 140 169 145 140 151 143 161 142 154 152 160 159 174 157 164 194 127 137
169 163 160 158 166 148 159 173 186 188 182 180 180 168 159 153 147 178 175 202 158 166 224 266 193 184 181 139 178 158 160 144 154 135 147 151 156 142 152 151 154 161 165 167 169 148 174 180 137
164 141 163 161 176 185 181 178 168 168 231 160 382 253 199 161 160 188 153 154 149 151 150 142 156 157 144 162 144 165 162 145 163 144 140 144 154 152 170 164 163 170 180 166 171 165 174 163 185
184 187 305 296 283 272 299 304 332 330 317 281 293 277 269 267 241 241 280 272 161 172 152 148 157 149 155 195 150 162 192 162 173 178 154 169 176 182 158 176 178 161 166 174 187 182 148 169 161
283 314 324 288 161 146 306 305 309 317 307 268 260 257 253 259 249 260 265 257 223 193 183 162 164 159 157 161 163 150 154 161 151 168 166 157 175 163 168 171 178 193 194 173 178 143 171 162 194
286 304 311 124 146 277 276 286 307 287 264 251 244 248 257 239 251 241 238 262 234 243 196 182 179 179 161 182 164 180 159 184 162 179 182 182 176 196 190 182 187 187 181 176 174 171 182 181 200
279 289 290 277 268 270 264 272 295 262 250 243 240 244 238 250 255 247 229 246 250 205 203 186 192 177 180 186 194 216 180 177 173 193 205 175 181 181 191 179 200 193 175 183 180 170 177 209 197
281 264 280 120 264 271 261 263 273 284 258 237 242 240 238 229 248 248 250 249 219 226 207 201 218 202 183 204 186 202 206 225 221 218 187 181 191 183 203 183 192 204 195 185 182 186 167 196 198

GFSSGP_2pvu_pres_108.txt.gz
Presure
165 118 97 128 127 122 159 148 153 98 77 80 78 86 83 89 95 83 123 91 167 169 181 139 171 155 168 171 165 175 172 162 163 166 113 129 100 104 160 160 160 94 102 103 90 138 143 135 86
134 138 115 107 118 101 134 153 146 139 141 110 89 84 109 84 93 122 83 116 106 126 140 187 163 184 178 172 160 176 164 170 163 168 158 131 142 89 153 149 131 159 134 146 150 126 111 119 77
146 156 155 115 144 151 121 133 121 145 139 124 143 109 135 147 146 80 81 108 117 74 78 81 84 95 92 116 116 161 192 194 183 155 190 162 171 163 160 149 155 156 95 150 126 155 88 132 89
150 147 155 151 148 134 160 111 134 135 129 139 113 136 132 149 122 114 127 128 84 88 86 160 87 88 133 137 106 168 134 167 170 171 169 158 162 158 167 168 165 161 96 159 161 157 170 96 92
142 167 145 156 147 160 155 204 164 131 132 158 135 126 109 94 122 129 119 147 116 137 122 104 86 85 88 89 94 93 89 89 163 175 161 111 151 155 156 153 167 106 173 171 160 172 164 160 171
150 161 145 150 142 123 147 193 181 132 132 129 129 132 129 116 136 114 117 140 131 139 132 116 142 145 140 112 112 87 92 94 114 108 90 92 132 154 171 152 156 159 152 89 91 89 167 119 170
108 124 156 156 155 161 186 166 209 129 172 126 144 128 135 132 135 119 127 129 139 125 132 110 126 129 132 119 116 120 161 117 120 157 125 87 96 92 104 90 90 104 151 134 139 149 164 144 162
132 134 142 188 167 153 167 130 152 132 164 146 168 125 124 128 131 106 122 131 125 126 118 121 153 135 128 122 124 141 111 111 118 158 88 86 113 97 94 92 91 91 91 117 91 102 91 150 150
165 124 144 132 162 124 144 157 113 133 128 154 199 171 127 181 126 121 115 122 123 123 127 130 122 111 134 157 114 148 126 130 155 155 160 153 129 88 84 91 90 89 88 92 90 94 157 91 92
126 133 141 132 151 146 152 177 152 168 192 178 159 111 134 108 105 120 116 166 115 121 119 115 118 115 132 143 150 131 145 133 142 121 135 177 142 153 116 170 154 92 91 91 90 137 115 102 81
137 142 141 143 128 144 144 149 148 145 141 117 155 110 142 134 163 119 116 101 92 100 107 238 118 122 146 168 122 120 132 134 130 173 143 158 126 142 172 170 152 124 89 167 169 97 142 131 150
156 131 132 128 146 130 144 135 156 152 182 159 171 154 153 163 126 113 107 112 97 132 196 84 89 113 96 89 147 163 146 120 132 122 127 133 144 150 139 158 148 132 162 159 185 183 146 127 161
138 116 143 150 142 129 137 152 143 130 147 157 159 212 144 156 128 104 157 95 135 123 91 123 145 178 128 194 148 188 168 141 123 126 118 120 125 128 143 127 134 172 112 131 128 175 156 180 173
154 136 109 129 108 129 149 140 150 150 177 152 160 160 153 204 149 192 98 139 120 145 148 124 148 128 170 132 113 127 168 119 150 158 133 154 130 109 134 137 136 127 125 134 142 138 134 137 136
127 147 131 125 142 155 146 134 144 160 141 149 168 189 159 177 201 138 150 192 220 191 156 112 121 120 127 97 136 152 120 201 156 121 140 150 150 145 130 119 145 136 122 144 130 168 142 141 120
150 126 127 146 131 130 130 158 139 138 143 146 148 154 148 128 103 94 146 118 154 172 142 154 120 151 159 70 122 143 150 102 112 132 84 123 130 119 124 139 116 127 137 122 144 130 121 146 148
302 143 144 130 132 134 142 147 137 133 143 171 179 182 129 116 173 130 147 169 161 99 132 141 152 144 153 114 141 151 170 160 177 171 112 105 128 165 125 127 135 132 137 136 134 140 128 138 125
143 162 158 139 138 144 138 130 133 129 139 176 112 138 132 113 115 141 139 159 149 173 155 217 141 117 80 139 161 127 212 182 150 185 193 141 127 114 135 120 131 131 129 130 140 127 142 139 146
135 161 150 145 98 139 125 141 98 123 132 149 153 157 124 103 241 133 96 142 140 114 149 141 132 159 140 145 178 197 102 107 226 166 152 117 128 123 127 112 137 133 143 143 128 130 150 129 142
132 150 138 112 126 131 103 133 142 137 129 142 129 214 159 134 149 148 148 145 150 146 145 114 143 146 125 160 125 202 79 182 180 151 139 127 145 132 171 133 137 128 172 138 140 123 131 142 151
264 150 125 134 139 139 140 122 128 160 141 155 142 164 151 134 138 144 140 142 151 151 166 124 141 142 170 176 165 167 246 208 222 126 120 150 149 133 195 135 136 142 140 138 135 147 143 132 140
108 132 136 130 121 145 132 140 165 147 147 155 190 140 135 143 145 142 138 139 152 354 137 148 140 162 178 175 170 138 165 199 119 120 153 122 132 138 173 146 142 194 137 144 139 144 133 145 150
168 286 133 135 145 160 130 150 129 329 162 166 153 142 138 137 139 142 147 150 340 157 124 112 151 133 194 212 179 239 172 223 196 196 139 225 152 140 134 148 143 134 144 146 138 146 164 148 173
131 163 134 322 147 154 165 160 155 157 152 153 124 134 146 147 149 148 150 151 152 143 145 199 211 168 183 152 190 161 226 178 180 158 182 155 186 186 157 142 130 149 140 143 152 155 159 159 169
263 141 149 148 174 148 149 156 162 143 150 155 150 152 419 218 157 158 154 162 207 172 229 243 231 184 196 194 205 247 177 225 226 225 221 199 197 152 148 158 173 134 161 159 142 153 173 164 189
160 191 145 303 321 170 162 163 161 160 159 161 159 153 153 158 161 167 221 272 245 156 155 154 156 258 152 152 154 205 213 203 212 152 145 161 183 194 154 178 177 205 154 163 162 183 163 147 168
145 150 151 161 170 161 161 180 180 183 196 179 182 179 181 170 172 168 164 165 166 172 166 156 149 144 151 161 154 158 155 162 176 181 142 198 178 169 194 200 186 160 166 199 170 169 187 180 177
154 297 305 177 222 218 239 273 264 267 265 262 272 255 256 266 256 202 260 198 194 180 161 152 143 143 197 162 187 199 161 149 158 161 160 198 198 200 193 180 177 165 182 186 174 173 178 177 179
186 281 287 288 278 273 264 265 260 245 250 247 265 251 254 260 248 240 235 237 245 245 237 203 199 181 233 181 195 168 164 182 201 195 169 170 169 184 187 180 188 172 175 182 186 172 188 173 175
283 279 223 291 268 263 246 260 249 252 243 249 244 259 259 245 244 236 255 250 237 233 239 259 201 241 244 194 175 176 175 175 184 180 175 184 189 184 192 182 186 197 195 195 192 183 186 197 192

GFSSGP_2pvu_pres_111.txt.gz
Presure
84 132 134 90 131 89 81 80 84 85 132 94 81 84 86 78 144 128 192 176 173 97 170 165 103 101 152 168 142 110 170 118 113 164 108 156 159 91 96 93 137 162 155 165 125 119 144 88 128
134 82 99 88 109 115 143 91 112 82 77 115 116 81 87 143 101 89 117 161 87 145 108 153 171 150 186 135 158 155 151 157 161 170 159 162 162 138 160 161 156 154 125 107 141 90 148 117 146
132 111 114 117 130 133 140 153 143 79 141 101 131 103 89 144 144 80 118 91 141 82 82 99 137 112 131 179 119 95 127 179 163 167 165 167 171 159 170 161 167 168 165 171 161 155 152 156 151
132 131 135 136 154 135 146 150 148 122 142 137 103 95 91 95 147 136 81 86 78 73 78 82 84 90 89 87 89 89 132 132 133 125 189 186 180 171 154 160 161 160 166 163 97 177 180 176 179
113 116 120 139 147 148 120 141 118 120 117 139 140 138 134 132 165 145 144 102 101 123 113 92 135 85 96 87 86 81 99 89 83 124 145 147 165 94 94 99 132 140 157 157 89 88 157 90 153
114 164 152 132 126 159 166 163 151 134 124 133 129 133 134 129 143 138 120 139 138 120 125 120 134 104 122 147 134 115 95 116 96 91 83 114 104 95 180 92 166 144 128 163 132 112 152 155 150
155 126 161 152 126 153 164 155 161 128 161 132 132 129 106 145 127 120 118 92 121 119 116 140 118 130 109 104 126 131 125 125 115 128 124 108 130 85 93 94 101 105 92 92 94 109 176 160 115
133 107 164 155 160 149 168 161 119 172 161 137 140 128 134 136 128 134 140 124 135 131 141 123 104 124 125 141 123 109 138 143 126 118 120 150 116 93 89 94 92 91 152 91 157 91 100 110 175
122 136 165 153 164 169 135 160 161 161 145 95 177 168 153 126 138 166 136 116 129 107 141 119 121 115 123 131 104 105 128 112 130 118 141 118 140 135 128 114 122 87 90 160 109 90 91 85 139
145 134 151 163 119 176 163 147 167 175 125 160 156 171 156 170 208 131 132 153 130 135 127 119 114 115 115 111 130 104 116 123 123 142 124 126 134 152 125 155 136 137 157 142 156 124 89 125 150
145 125 125 82 152 162 151 156 154 170 143 109 114 100 144 148 132 180 212 159 118 120 114 118 110 115 94 100 144 130 87 140 145 143 126 120 144 119 131 131 156 156 134 176 163 157 161 155 167
151 128 134 124 140 132 155 140 166 184 200 142 170 122 131 175 164 130 135 103 100 114 88 102 124 111 127 102 131 128 133 131 140 145 127 164 125 124 123 128 121 122 135 128 123 142 154 112 135
197 134 122 119 155 161 142 141 105 163 128 145 161 156 139 148 143 132 134 134 126 125 100 131 104 111 87 129 106 130 188 134 167 153 149 164 117 145 140 122 130 125 124 132 136 134 108 131 131
137 201 153 120 153 128 142 147 134 104 149 143 145 144 143 141 157 163 154 153 168 111 132 81 152 187 106 118 168 89 96 124 121 171 123 185 186 160 160 146 148 139 139 133 125 132 138 129 142
118 276 147 153 127 144 134 150 168 144 150 140 155 157 182 93 170 156 152 154 135 134 118 167 141 153 161 140 121 147 90 125 134 187 124 182 179 170 113 149 150 121 123 136 128 132 130 127 131
153 176 145 149 126 138 126 131 139 160 134 156 145 153 133 176 146 154 180 199 194 158 97 117 131 107 114 110 116 110 77 152 170 187 107 186 110 122 171 159 130 143 147 178 153 134 114 136 124
217 159 165 156 134 122 125 124 161 145 77 145 153 144 151 144 150 137 121 117 181 188 174 138 158 108 149 188 156 126 160 121 142 141 148 168 153 119 164 117 183 143 134 160 135 143 125 127 107
291 143 237 142 138 133 147 155 182 140 132 167 135 135 142 148 138 138 148 127 127 116 172 118 75 111 157 120 119 185 144 113 179 129 133 158 101 141 170 155 159 121 127 138 164 151 155 138 141
343 361 342 140 130 137 156 162 135 126 138 132 138 130 133 140 155 125 136 128 100 104 119 208 169 148 178 166 209 145 160 142 143 172 107 128 132 168 98 186 141 120 125 122 163 144 176 132 148
341 140 261 191 154 200 141 145 152 131 126 125 138 124 127 138 121 137 139 140 216 142 125 244 108 147 177 146 147 129 127 88 134 180 91 121 118 203 121 159 138 117 136 132 148 160 125 132 161
339 257 287 178 149 157 167 141 140 134 130 133 120 144 133 151 118 141 121 124 126 208 185 147 136 160 151 122 143 141 156 137 151 90 116 180 178 153 186 203 109 201 148 127 132 155 176 132 156
185 291 149 126 127 134 150 165 155 141 136 127 128 140 139 129 140 166 147 149 267 134 146 141 193 145 117 140 150 172 148 144 141 135 249 171 170 152 196 171 151 148 138 139 136 141 129 136 143
317 159 149 304 289 132 143 133 136 128 131 134 130 130 134 143 142 168 152 150 191 392 153 138 152 141 130 147 112 167 144 112 187 149 132 157 185 214 127 145 220 162 138 178 141 137 201 132 186
153 223 131 150 272 152 125 261 167 141 135 135 133 138 151 147 151 153 153 210 137 134 135 135 138 134 127 135 153 161 131 146 187 156 165 136 206 132 176 201 141 185 136 180 158 189 150 147 173
212 337 272 165 256 173 156 147 139 163 138 146 141 150 149 291 163 131 129 148 143 144 141 139 139 138 146 219 332 148 319 181 157 179 227 159 143 181 173 159 155 203 164 205 167 169 132 198 172
135 278 165 148 163 150 133 134 149 147 151 136 140 151 127 145 144 144 148 146 146 148 150 151 147 143 141 128 280 237 287 159 154 145 194 150 151 156 159 217 167 192 190 151 136 205 187 199 202
182 183 229 168 199 156 264 171 265 148 163 154 149 156 157 144 143 142 141 143 142 141 142 150 152 151 159 178 274 277 170 232 203 140 196 160 185 155 190 212 200 191 198 182 207 205 159 184 164
162 162 155 151 153 153 164 264 150 150 141 140 139 143 152 152 153 161 168 294 263 164 164 262 262 259 152 220 216 200 150 150 145 174 151 192 161 210 154 166 172 171 192 168 195 174 198 180 183
149 164 219 249 272 263 257 244 272 260 239 235 232 243 236 231 228 171 174 168 169 173 167 161 160 156 154 153 154 153 154 228 203 206 234 225 210 213 213 184 220 212 221 203 187 183 161 204 159
148 150 272 259 264 271 245 260 273 264 257 274 255 256 257 251 248 258 262 248 253 259 260 203 203 200 181 256 176 170 174 251 230 230 224 222 220 220 207 180 198 211 184 162 193 200 169 192 167

GFSSGP_2pvu_pres_114.txt.gz
Presure
86 85 67 86 84 76 88 80 88 90 80 137 81 153 169 177 189 147 89 147 88 175 161 159 93 129 173 98 162 168 108 153 150 129 164 160 158 162 151 127 154 161 130 160 156 108 97 137 143
130 85 74 79 87 86 83 85 87 78 85 90 89 83 83 87 125 161 190 197 185 173 180 173 165 138 157 165 192 128 155 148 154 145 158 160 158 163 161 158 157 156 159 162 170 167 90 157 160
91 71 93 89 91 90 75 81 137 87 78 77 81 87 85 88 103 84 91 93 129 105 82 125 112 144 140 88 173 174 177 163 149 183 152 158 164 156 163 165 167 158 169 166 165 164 165 162 166
125 72 98 116 120 73 95 148 99 113 112 138 75 112 91 90 101 124 87 88 131 123 82 139 78 84 84 134 141 130 90 98 130 165 135 135 152 85 179 176 178 166 161 159 165 161 151 88 161
130 131 131 134 108 144 128 131 130 116 137 137 134 75 91 103 86 81 138 131 136 78 140 159 108 85 81 90 85 84 81 87 85 83 84 181 178 181 148 109 94 105 107 167 161 148 137 163 169
128 125 135 139 137 120 146 162 150 138 146 122 136 134 147 133 127 119 102 127 83 85 123 116 122 142 122 124 116 152 152 146 104 122 145 99 82 94 87 89 158 95 134 169 172 100 95 94 129
133 133 140 167 123 132 121 140 119 119 115 119 125 120 148 144 147 140 144 144 146 131 118 111 122 188 149 124 143 128 124 124 109 118 132 113 127 137 93 93 89 137 138 90 134 96 100 118 93
120 129 135 129 150 128 134 141 131 141 172 144 178 115 132 143 129 148 110 132 150 122 106 126 125 120 141 116 121 175 125 126 134 125 135 152 131 155 162 159 103 122 114 84 141 90 90 93 91
112 119 127 115 129 111 118 144 150 131 131 169 171 154 169 162 137 139 140 139 125 105 127 137 126 123 159 128 115 133 127 126 115 120 103 129 136 126 112 132 130 124 129 160 135 149 162 96 134
103 126 133 136 118 138 144 204 140 168 189 160 158 165 168 146 142 144 127 131 142 125 116 129 175 124 127 131 123 117 133 125 132 124 150 135 125 126 124 143 134 130 119 127 125 143 149 127 160
216 110 121 133 138 141 133 130 137 152 117 136 131 153 169 130 168 123 172 126 122 127 107 120 129 118 110 121 120 116 90 115 112 116 125 170 133 130 120 150 129 159 155 116 125 133 130 125 137
164 197 171 136 148 136 140 149 175 193 172 175 174 111 130 174 159 156 139 140 140 152 175 147 128 121 115 105 84 104 116 102 131 129 131 145 162 147 140 148 122 134 141 128 128 129 128 128 134
179 161 173 123 116 130 164 155 139 160 135 136 145 104 139 155 144 133 163 158 167 151 140 172 125 90 110 113 106 121 108 129 114 162 181 170 175 119 133 124 162 142 145 125 102 135 121 142 130
266 256 188 157 119 133 149 149 158 185 127 140 193 152 147 104 139 167 132 150 152 188 205 124 108 150 98 111 91 124 174 138 98 103 77 119 177 152 136 146 145 168 142 163 128 141 127 143 133
245 251 261 171 277 134 133 132 138 145 140 146 166 166 154 139 155 144 158 155 156 167 142 111 163 80 111 108 126 135 105 141 142 167 114 161 134 93 97 117 160 140 110 175 152 119 148 116 141
223 257 251 135 246 257 162 143 104 174 89 132 135 143 151 135 151 152 137 153 165 117 155 155 182 90 125 119 93 123 193 142 131 79 79 138 154 172 223 124 95 153 191 125 149 156 136 141 133
252 245 250 237 219 135 130 129 159 67 146 99 163 157 162 135 136 139 137 149 137 168 144 156 151 137 102 87 143 143 160 107 113 140 133 190 178 109 170 146 144 100 177 159 125 151 117 124 135
239 240 263 257 165 284 161 137 136 143 152 134 150 144 159 142 130 130 129 142 143 143 145 168 122 151 153 88 152 115 80 135 152 212 111 124 128 150 126 169 155 119 160 179 155 204 143 179 187
243 248 249 267 158 148 150 133 136 165 131 126 152 155 138 129 141 136 136 140 142 141 145 149 142 89 92 104 223 121 123 105 128 121 121 196 173 144 139 166 87 110 147 161 149 146 112 120 148
283 287 286 291 132 213 369 168 304 205 232 168 143 144 135 135 136 106 134 134 143 141 132 120 96 107 136 132 107 173 130 185 163 104 144 138 124 113 88 128 129 177 124 177 143 189 112 173 133
275 281 316 349 379 254 147 146 140 143 133 135 144 134 145 134 134 133 140 141 135 133 145 143 113 138 173 146 132 174 149 142 132 132 154 148 158 138 132 141 156 187 161 171 184 160 140 192 128
345 366 390 373 311 307 133 327 120 125 140 137 143 143 145 138 160 149 126 141 139 106 109 148 134 222 201 158 126 167 180 132 142 148 135 164 132 148 188 144 183 148 151 158 131 137 139 125 151
362 351 344 327 156 310 300 316 373 134 124 133 141 145 145 139 138 139 115 130 123 146 131 160 159 126 127 191 147 140 139 145 127 119 106 129 162 139 126 187 117 177 153 147 181 169 158 161 155
270 307 301 317 212 280 149 176 149 162 129 123 135 113 132 127 133 130 126 132 132 148 151 146 155 153 135 207 136 96 120 139 128 134 140 145 161 197 166 161 138 153 142 192 157 185 154 219 144
200 313 323 326 140 144 313 172 150 138 142 134 127 129 138 141 137 135 143 147 146 157 138 142 133 129 136 141 133 99 133 99 127 139 110 138 139 198 143 157 134 143 135 212 204 153 132 191 168
309 204 257 228 303 147 164 258 156 130 126 145 140 149 140 133 134 147 142 140 140 135 153 147 125 127 133 142 142 141 141 146 169 135 130 176 160 160 156 131 167 146 217 159 160 156 175 143 138
291 288 288 279 281 287 193 166 173 266 144 144 145 147 277 143 137 131 141 152 150 128 127 128 137 137 135 135 134 135 135 144 143 141 303 159 284 289 267 138 197 155 234 226 165 200 152 212 130
219 212 186 201 197 194 188 259 195 173 139 217 214 136 142 150 169 251 138 143 150 158 173 137 137 140 142 139 138 138 138 203 205 192 292 144 262 258 253 224 162 162 195 175 182 170 224 199 169
195 155 189 160 154 151 230 141 142 134 149 160 160 161 200 153 148 145 142 142 144 144 143 144 145 151 237 284 283 295 281 290 274 212 186 250 224 251 154 157 229 202 172 174 176 208 227 188 177
156 167 263 166 167 252 254 237 273 279 260 251 183 174 171 172 175 175 176 184 189 245 254 165 165 191 262 158 155 216 269 255 212 244 163 242 237 240 160 164 163 163 215 200 222 224 180 211 212

GFSSGP_2pvu_pres_117.txt.gz
Presure
82 77 87 80 87 88 77 80 131 78 155 101 154 173 168 87 178 84 90 148 153 168 96 154 155 159 141 95 143 105 171 109 169 154 163 158 157 153 155 156 156 165 161 159 160 158 161 166 150
134 75 82 87 72 82 114 104 163 93 89 117 156 104 160 165 169 178 188 155 136 88 135 156 106 159 158 160 132 101 159 161 160 161 155 160 160 162 160 157 166 157 161 162 168 166 166 162 165
114 82 77 75 72 86 133 104 90 91 105 83 87 96 78 97 79 159 109 172 169 180 177 110 154 194 98 128 172 163 168 172 179 154 104 156 133 127 108 159 169 164 159 143 174 164 162 143 90
137 133 117 93 75 77 80 85 89 92 88 80 82 80 78 85 81 89 83 90 94 89 93 85 85 110 82 87 84 140 176 88 108 102 91 90 172 179 172 171 160 167 131 177 127 175 174 133 113
119 126 123 97 111 75 82 83 76 82 101 90 90 91 91 89 149 86 86 90 80 100 86 80 140 127 99 83 83 90 85 82 86 85 83 83 171 154 139 137 146 103 92 95 123 142 136 110 167
145 149 125 124 88 82 163 96 108 119 121 112 120 101 144 82 89 133 70 148 142 135 77 144 163 160 141 131 162 123 146 129 137 146 120 124 117 95 86 80 84 83 87 90 116 92 91 127 91
135 134 142 115 137 119 135 86 126 124 107 132 149 138 144 134 144 129 102 145 136 72 75 149 140 160 114 122 140 143 130 139 140 143 119 117 140 121 143 129 134 127 122 132 110 133 91 97 86
123 128 132 135 141 117 146 138 70 89 142 145 150 142 125 141 142 155 151 111 118 146 159 126 148 128 126 225 124 137 132 137 111 115 94 138 145 116 122 107 105 118 134 129 125 130 160 159 164
156 122 132 132 140 136 115 146 140 132 165 142 145 130 127 131 130 141 120 163 124 140 113 128 96 114 143 120 132 118 110 135 129 122 140 114 128 144 123 128 124 113 137 125 125 149 128 128 135
179 153 162 128 137 137 138 146 149 127 131 127 133 121 128 140 161 139 125 149 126 125 143 124 137 117 99 125 111 126 128 126 127 143 156 123 124 148 118 140 124 125 144 124 126 145 126 134 129
153 176 198 183 121 128 131 140 129 125 138 164 182 144 133 159 119 153 121 111 152 135 133 128 140 142 127 146 125 124 129 121 115 112 105 125 119 121 109 127 168 123 129 133 146 147 129 128 136
154 160 158 158 166 123 123 124 111 126 128 136 166 185 166 168 155 141 132 174 174 130 143 141 111 119 104 121 121 118 122 122 120 117 107 117 103 121 175 135 115 153 159 138 122 125 127 119 149
151 203 153 157 111 170 128 134 146 125 122 152 144 138 151 169 183 167 165 164 174 173 166 175 141 116 183 104 113 110 110 87 116 114 124 122 106 119 144 156 157 157 97 142 148 176 162 147 141
247 246 198 205 177 154 113 140 140 145 142 133 150 117 177 169 165 183 149 138 161 166 139 145 140 157 193 177 110 114 101 111 105 128 125 135 100 132 158 131 216 126 142 123 136 140 222 177 157
251 254 263 261 232 231 203 128 137 195 142 152 150 173 165 172 155 160 178 188 159 117 145 154 153 118 146 171 92 115 89 86 159 157 119 166 147 132 155 136 120 99 101 124 134 135 140 110 143
241 237 237 249 261 165 264 148 167 150 138 170 143 140 132 137 170 157 147 126 135 135 128 157 147 169 96 159 88 101 173 107 192 120 133 126 147 99 125 147 118 192 145 126 106 145 125 104 107
223 237 239 253 251 255 233 214 208 142 143 156 160 149 134 153 87 145 138 130 141 150 168 99 166 147 138 136 109 153 123 186 117 154 134 168 172 150 133 143 137 139 103 181 194 156 175 185 153
225 229 228 238 245 247 241 249 178 139 140 149 83 88 82 153 144 159 142 154 154 152 155 203 149 85 142 108 141 132 122 117 167 133 164 128 134 139 172 114 153 191 122 121 102 146 179 139 152
226 231 240 243 248 250 239 245 121 236 145 245 142 133 140 148 139 148 150 141 131 152 147 154 144 140 125 141 143 142 151 127 156 160 131 143 161 130 131 103 139 121 139 123 112 149 85 143 170
234 231 241 248 250 251 257 250 210 262 238 142 118 140 122 139 151 136 138 133 143 160 141 140 156 141 153 114 128 109 126 133 110 146 128 101 123 139 165 155 154 148 114 141 164 170 197 107 143
248 247 248 242 259 266 269 225 281 122 135 155 282 142 141 148 147 134 131 131 147 142 152 147 119 140 139 116 120 132 110 133 122 146 143 131 142 147 133 123 194 119 150 124 141 186 135 170 151
263 268 273 284 269 130 305 400 377 303 148 141 133 138 141 301 182 142 138 117 137 95 151 149 150 136 141 128 144 126 122 126 142 135 128 204 124 188 128 166 134 130 145 127 123 178 133 159 127
289 290 288 288 400 367 353 196 138 145 91 131 108 124 140 156 140 145 140 147 150 142 134 129 116 122 110 152 142 140 169 167 132 151 121 132 113 125 131 122 138 137 135 147 137 163 144 143 135
374 402 376 349 337 352 331 350 132 212 182 175 127 153 151 145 135 158 135 132 139 133 133 136 137 126 126 160 129 126 131 124 114 124 157 132 196 135 119 142 141 139 138 144 149 171 122 156 108
349 325 370 331 312 288 325 329 212 216 322 133 147 136 152 142 143 146 131 132 130 128 135 123 132 135 137 145 146 142 143 145 147 132 123 126 122 159 145 137 133 137 128 147 174 191 128 148 141
295 322 306 326 324 301 205 159 310 311 250 133 152 132 134 120 140 147 139 130 133 136 125 147 146 144 137 137 150 183 128 128 135 132 133 140 202 141 135 146 146 132 139 197 127 197 139 145 143
302 290 307 294 287 260 284 276 137 263 145 189 290 140 148 142 142 130 129 141 141 135 141 142 134 135 136 135 135 134 126 128 134 138 137 136 133 135 133 132 131 219 170 172 149 181 163 157 142
223 287 278 275 278 212 279 203 201 163 145 168 282 196 142 129 134 142 149 140 134 144 159 151 141 150 143 146 138 132 143 137 134 137 140 138 137 192 206 277 235 280 223 144 162 203 195 249 187
199 267 263 266 272 274 262 265 179 275 157 137 135 147 194 149 158 198 152 150 149 146 144 152 226 138 135 139 140 138 138 140 181 306 144 337 319 332 298 279 223 204 233 157 233 242 231 215 195
246 166 249 171 249 236 149 144 141 135 137 141 149 147 146 150 149 154 295 161 272 163 156 152 148 144 143 143 142 141 141 142 204 264 281 290 304 286 279 159 160 155 252 169 227 233 248 244 193